[[{"header":{"parameterUnit":"m.s-1","parameterCategory":1,"la1":30.6,"la2":29.2853,"lo1":-89.7004,"lo2":-87.6739,"dx":0.0162,"dy":0.0183,"nx":112,"ny":82,"refTime":"2022-11-02T18:00:00:Z","depth":0,"parameterNumber":2,"parameterNumberName":"U-component_of_WINDS"},"data":[0.0,0.0,0.0,0.0,0.0,0.0,0.0,0.0,0.0,0.0,0.0,0.0,0.0,0.0,0.0,0.0,0.0,0.0,0.0,0.0,0.0,0.0,0.0,0.0,0.0,0.0,0.0,0.0,0.0,0.0,0.0,0.0,0.0,0.0,0.0,0.0,0.0,0.0,0.0,0.0,0.0,0.0,0.0,0.0,0.0,0.0,0.0,0.0,0.0,0.0,0.0,0.0,0.0,0.0,0.0,0.0,0.0,0.0,0.0,0.0,0.0,0.0,0.0,0.0,0.0,0.0,0.0,0.0,0.0,0.0,0.0,0.0,0.0,0.0,0.0,0.0,0.0,0.0,0.0,0.0,0.0,0.0,0.0,0.0,0.0,0.0,0.0,0.0,0.0,0.0,3.1222,3.4153,3.6173,3.6583,3.4816,3.4507,3.3262,3.0578,0.0,0.0,0.0,0.0,0.0,0.0,0.0,0.0,0.0,0.0,0.0,0.0,0.0,0.0,0.0,0.0,0.0,0.0,0.0,0.0,0.0,0.0,0.0,0.0,0.0,0.0,0.0,0.0,0.0,0.0,0.0,0.0,0.0,0.0,0.0,0.0,0.0,0.0,0.0,0.0,0.0,0.0,0.0,0.0,0.0,0.0,0.0,0.0,0.0,0.0,0.0,0.0,0.0,0.0,0.0,0.0,0.0,0.0,0.0,0.0,0.0,0.0,0.0,0.0,0.0,0.0,0.0,0.0,0.0,0.0,0.0,0.0,0.0,0.0,0.0,0.0,0.0,0.0,0.0,0.0,0.0,0.0,0.0,0.0,0.0,0.0,0.0,0.0,0.0,0.0,0.0,0.0,0.0,0.0,0.0,0.0,0.0,0.0,0.0,0.0,0.0,0.0,0.0,0.0,3.2843,3.6097,3.6948,3.716,3.6848,3.5854,3.4278,3.2028,0.0,0.0,0.0,0.0,0.0,0.0,0.0,0.0,0.0,0.0,0.0,0.0,0.0,0.0,0.0,0.0,0.0,0.0,0.0,0.0,0.0,0.0,0.0,0.0,0.0,0.0,0.0,0.0,0.0,0.0,0.0,0.0,0.0,0.0,0.0,0.0,0.0,0.0,0.0,0.0,0.0,0.0,0.0,0.0,0.0,0.0,0.0,0.0,0.0,0.0,0.0,0.0,0.0,0.0,0.0,0.0,0.0,0.0,0.0,0.0,0.0,0.0,0.0,0.0,0.0,0.0,0.0,0.0,0.0,0.0,0.0,0.0,0.0,0.0,0.0,0.0,0.0,0.0,0.0,0.0,0.0,0.0,0.0,0.0,0.0,0.0,0.0,0.0,0.0,0.0,0.0,0.0,0.0,0.0,0.0,0.0,0.0,0.0,0.0,0.0,0.0,0.0,0.0,3.1431,3.3713,3.659,3.7434,3.768,3.7331,3.6751,3.5207,3.2372,3.137,0.0,0.0,0.0,0.0,0.0,0.0,0.0,0.0,0.0,0.0,0.0,0.0,0.0,0.0,0.0,0.0,0.0,0.0,0.0,0.0,0.0,0.0,0.0,0.0,0.0,0.0,0.0,0.0,0.0,0.0,0.0,0.0,0.0,0.0,0.0,0.0,0.0,0.0,0.0,0.0,0.0,0.0,0.0,0.0,0.0,0.0,0.0,0.0,0.0,0.0,0.0,0.0,0.0,0.0,0.0,0.0,0.0,0.0,0.0,0.0,0.0,0.0,0.0,0.0,0.0,0.0,0.0,0.0,0.0,0.0,0.0,0.0,0.0,0.0,0.0,0.0,0.0,0.0,0.0,0.0,0.0,0.0,0.0,0.0,0.0,0.0,0.0,0.0,0.0,0.0,0.0,0.0,0.0,0.0,0.0,0.0,0.0,0.0,0.0,0.0,0.0,0.0,3.3014,3.4515,3.6956,3.7796,3.7999,3.7564,3.7389,3.5994,3.2872,3.2534,0.0,0.0,0.0,0.0,0.0,0.0,0.0,0.0,0.0,0.0,0.0,0.0,0.0,0.0,0.0,0.0,0.0,0.0,0.0,0.0,0.0,0.0,0.0,0.0,0.0,0.0,0.0,0.0,0.0,0.0,0.0,0.0,0.0,0.0,0.0,0.0,0.0,0.0,0.0,0.0,0.0,0.0,0.0,0.0,0.0,0.0,0.0,0.0,0.0,0.0,0.0,0.0,0.0,0.0,0.0,0.0,0.0,0.0,0.0,0.0,0.0,0.0,0.0,0.0,0.0,0.0,0.0,0.0,0.0,0.0,0.0,0.0,0.0,0.0,0.0,0.0,0.0,0.0,0.0,0.0,0.0,0.0,0.0,0.0,0.0,0.0,0.0,0.0,0.0,0.0,0.0,0.0,0.0,0.0,0.0,0.0,0.0,0.0,0.0,0.0,0.0,0.0,3.4023,3.5551,3.7871,3.8165,3.8173,3.8144,3.7622,3.6377,3.4197,3.3578,0.0,0.0,0.0,0.0,0.0,0.0,0.0,0.0,0.0,0.0,0.0,0.0,0.0,0.0,0.0,0.0,0.0,0.0,0.0,0.0,0.0,0.0,0.0,0.0,0.0,0.0,0.0,0.0,0.0,0.0,0.0,0.0,0.0,0.0,0.0,0.0,0.0,0.0,0.0,0.0,0.0,0.0,0.0,0.0,0.0,0.0,0.0,0.0,0.0,0.0,0.0,0.0,0.0,0.0,0.0,0.0,0.0,0.0,0.0,0.0,0.0,0.0,0.0,0.0,0.0,0.0,0.0,0.0,0.0,0.0,0.0,0.0,0.0,0.0,0.0,0.0,0.0,0.0,0.0,0.0,0.0,0.0,0.0,0.0,0.0,0.0,0.0,0.0,0.0,0.0,0.0,0.0,0.0,0.0,0.0,0.0,0.0,0.0,0.0,0.0,0.0,0.0,3.3029,3.4492,0.0,3.6903,3.7019,3.8108,3.6995,3.5506,3.3818,0.0,0.0,0.0,0.0,0.0,0.0,0.0,0.0,0.0,0.0,0.0,0.0,0.0,0.0,0.0,0.0,0.0,0.0,0.0,0.0,0.0,0.0,0.0,0.0,0.0,0.0,0.0,0.0,0.0,0.0,0.0,0.0,0.0,0.0,0.0,0.0,0.0,0.0,0.0,0.0,0.0,0.0,0.0,0.0,0.0,0.0,0.0,0.0,0.0,0.0,0.0,0.0,0.0,0.0,0.0,0.0,0.0,0.0,0.0,0.0,0.0,0.0,0.0,0.0,0.0,0.0,0.0,0.0,0.0,0.0,0.0,0.0,0.0,0.0,0.0,0.0,0.0,0.0,0.0,0.0,0.0,0.0,0.0,0.0,0.0,0.0,0.0,0.0,0.0,0.0,0.0,0.0,0.0,0.0,0.0,0.0,0.0,0.0,0.0,0.0,0.0,0.0,3.1463,3.2594,3.4067,0.0,3.5969,3.6088,3.7271,3.6287,3.494,3.3352,0.0,0.0,0.0,0.0,0.0,0.0,0.0,0.0,0.0,0.0,0.0,0.0,0.0,0.0,0.0,0.0,0.0,0.0,0.0,0.0,0.0,0.0,0.0,0.0,0.0,0.0,0.0,0.0,0.0,0.0,0.0,0.0,0.0,0.0,0.0,0.0,0.0,0.0,0.0,0.0,0.0,0.0,0.0,0.0,0.0,0.0,0.0,0.0,0.0,0.0,0.0,0.0,0.0,0.0,0.0,0.0,0.0,0.0,0.0,0.0,0.0,0.0,0.0,0.0,0.0,0.0,0.0,0.0,0.0,0.0,0.0,0.0,0.0,0.0,0.0,0.0,0.0,0.0,0.0,0.0,0.0,0.0,0.0,0.0,0.0,0.0,0.0,0.0,0.0,0.0,0.0,0.0,0.0,0.0,0.0,0.0,0.0,0.0,0.0,0.0,0.0,0.0,3.1037,3.302,3.4682,3.5507,3.5588,3.5588,3.5608,3.5588,3.4809,0.0,0.0,0.0,0.0,0.0,0.0,0.0,0.0,0.0,0.0,0.0,0.0,0.0,0.0,0.0,0.0,0.0,0.0,0.0,0.0,0.0,0.0,0.0,0.0,0.0,0.0,0.0,0.0,0.0,0.0,0.0,0.0,0.0,0.0,0.0,0.0,0.0,0.0,0.0,0.0,0.0,0.0,0.0,0.0,0.0,0.0,0.0,0.0,0.0,0.0,0.0,0.0,0.0,0.0,0.0,0.0,0.0,0.0,0.0,0.0,0.0,0.0,0.0,0.0,0.0,0.0,0.0,0.0,0.0,0.0,0.0,0.0,0.0,0.0,0.0,0.0,0.0,0.0,0.0,0.0,0.0,0.0,0.0,0.0,0.0,0.0,0.0,0.0,0.0,0.0,0.0,0.0,0.0,0.0,0.0,0.0,0.0,0.0,0.0,0.0,0.0,0.0,0.0,3.0215,3.2097,3.381,3.4662,3.4204,3.4304,3.5507,3.4532,3.3552,3.2947,0.0,0.0,0.0,0.0,0.0,0.0,0.0,0.0,0.0,0.0,0.0,0.0,0.0,0.0,0.0,0.0,0.0,0.0,0.0,0.0,0.0,0.0,0.0,0.0,0.0,0.0,0.0,0.0,0.0,0.0,0.0,0.0,0.0,0.0,0.0,0.0,0.0,0.0,0.0,0.0,0.0,0.0,0.0,0.0,0.0,0.0,0.0,0.0,0.0,0.0,0.0,0.0,0.0,0.0,0.0,0.0,0.0,0.0,0.0,0.0,0.0,0.0,0.0,0.0,0.0,0.0,0.0,0.0,0.0,0.0,0.0,0.0,0.0,0.0,0.0,0.0,0.0,0.0,0.0,0.0,0.0,0.0,0.0,0.0,0.0,0.0,0.0,0.0,0.0,0.0,0.0,0.0,0.0,0.0,0.0,0.0,0.0,0.0,0.0,0.0,0.0,0.0,3.0131,3.1838,3.3304,3.381,3.3411,3.3513,3.4532,3.3683,3.2958,3.2633,0.0,0.0,0.0,0.0,0.0,0.0,0.0,0.0,0.0,0.0,0.0,0.0,0.0,0.0,0.0,0.0,0.0,0.0,0.0,0.0,0.0,0.0,0.0,0.0,0.0,0.0,0.0,0.0,0.0,0.0,0.0,0.0,0.0,0.0,0.0,0.0,0.0,0.0,0.0,0.0,0.0,0.0,0.0,0.0,0.0,0.0,0.0,0.0,0.0,0.0,0.0,0.0,0.0,0.0,0.0,0.0,0.0,0.0,0.0,0.0,0.0,0.0,0.0,0.0,0.0,0.0,0.0,0.0,0.0,0.0,0.0,0.0,0.0,0.0,0.0,0.0,0.0,0.0,0.0,0.0,0.0,0.0,0.0,0.0,0.0,0.0,0.0,0.0,0.0,0.0,0.0,0.0,0.0,0.0,0.0,0.0,0.0,0.0,0.0,0.0,0.0,0.0,3.0588,3.2089,3.309,3.309,3.309,3.309,3.309,3.309,3.2839,3.224,0.0,0.0,0.0,0.0,0.0,0.0,0.0,0.0,0.0,0.0,0.0,0.0,0.0,0.0,0.0,0.0,0.0,0.0,0.0,0.0,0.0,0.0,0.0,0.0,0.0,0.0,0.0,0.0,0.0,0.0,0.0,0.0,0.0,0.0,0.0,0.0,0.0,0.0,0.0,0.0,0.0,0.0,0.0,0.0,0.0,0.0,0.0,0.0,0.0,0.0,0.0,0.0,0.0,0.0,0.0,0.0,0.0,0.0,0.0,0.0,2.1297,0.0,0.0,0.0,0.0,0.0,0.0,0.0,0.0,0.0,0.0,0.0,0.0,0.0,0.0,0.0,0.0,0.0,0.0,0.0,0.0,0.0,0.0,0.0,0.0,0.0,0.0,0.0,0.0,0.0,0.0,0.0,0.0,0.0,0.0,0.0,0.0,0.0,0.0,0.0,0.0,0.0,3.116,3.2336,3.309,3.309,3.309,3.309,3.309,3.309,3.2839,3.224,3.1989,0.0,0.0,0.0,0.0,0.0,0.0,0.0,0.0,0.0,0.0,0.0,0.0,0.0,0.0,0.0,0.0,0.0,0.0,0.0,0.0,0.0,0.0,0.0,0.0,0.0,0.0,0.0,0.0,0.0,0.0,0.0,0.0,0.0,0.0,0.0,0.0,0.0,0.0,0.0,0.0,0.0,0.0,0.0,0.0,0.0,0.0,0.0,0.0,0.0,0.0,0.0,0.0,0.0,0.0,0.0,0.0,0.0,0.0,0.0,0.0,2.2438,0.0,0.0,0.0,0.0,0.0,0.0,0.0,0.0,0.0,0.0,0.0,0.0,0.0,0.0,0.0,0.0,0.0,0.0,0.0,0.0,0.0,0.0,0.0,0.0,0.0,0.0,0.0,0.0,0.0,0.0,0.0,0.0,0.0,0.0,0.0,0.0,0.0,0.0,0.0,0.0,3.216,3.3169,3.3872,3.3872,3.3872,3.3872,3.3872,3.3872,3.3621,3.3068,3.2767,0.0,0.0,0.0,0.0,0.0,0.0,0.0,0.0,0.0,0.0,0.0,0.0,0.0,0.0,0.0,0.0,0.0,0.0,0.0,0.0,0.0,0.0,0.0,0.0,0.0,0.0,0.0,0.0,0.0,0.0,0.0,0.0,0.0,0.0,0.0,0.0,0.0,0.0,0.0,0.0,0.0,0.0,0.0,0.0,0.0,0.0,0.0,0.0,0.0,0.0,0.0,0.0,0.0,1.8797,1.9415,2.0493,2.0122,2.1142,2.3273,2.4102,2.4481,2.4441,2.3868,0.0,0.0,0.0,0.0,0.0,0.0,0.0,0.0,0.0,0.0,0.0,0.0,0.0,0.0,0.0,0.0,0.0,0.0,0.0,0.0,0.0,0.0,2.4696,2.4373,2.5201,2.6309,2.7181,0.0,0.0,0.0,0.0,0.0,0.0,0.0,0.0,0.0,0.0,0.0,3.3291,3.4148,3.4703,3.4703,3.4703,3.4703,3.4703,3.4703,3.4502,3.4073,3.3621,3.3072,0.0,0.0,0.0,0.0,0.0,0.0,0.0,0.0,0.0,0.0,0.0,0.0,0.0,0.0,0.0,0.0,0.0,0.0,0.0,0.0,0.0,0.0,0.0,0.0,0.0,0.0,0.0,0.0,0.0,0.0,0.0,0.0,1.5402,1.5724,0.0,0.0,0.0,0.0,0.0,0.0,0.0,0.0,0.0,0.0,0.0,0.0,0.0,1.8688,1.8542,1.9052,1.9164,1.8875,1.9452,2.0427,2.1767,2.1472,2.2058,2.3294,2.3182,0.0,2.4756,2.4654,0.0,0.0,0.0,0.0,0.0,0.0,0.0,0.0,0.0,0.0,0.0,0.0,0.0,0.0,0.0,0.0,0.0,0.0,0.0,0.0,0.0,0.0,2.596,2.6254,2.6495,2.6943,2.7877,2.8277,2.8707,2.9553,2.9752,0.0,0.0,0.0,0.0,0.0,0.0,0.0,3.4352,3.4603,3.4703,3.4703,3.4703,3.4703,3.4703,3.4703,3.4678,3.4603,3.4527,3.4137,3.3366,3.2795,0.0,0.0,0.0,0.0,0.0,0.0,0.0,0.0,0.0,0.0,0.0,0.0,0.0,0.0,0.0,0.0,0.0,0.0,0.0,0.0,0.0,0.0,0.0,0.0,0.0,0.0,0.0,0.0,0.0,1.5344,1.5592,1.6111,1.617,1.6111,0.0,0.0,0.0,0.0,0.0,0.0,0.0,0.0,0.0,1.8913,1.9164,1.9314,1.9376,1.9787,1.9946,1.9803,2.0084,2.0879,2.2071,2.1802,2.2299,2.3361,2.3263,2.3916,2.4949,2.389,2.2781,2.1783,0.0,0.0,0.0,0.0,2.3537,2.443,2.4687,2.4785,2.4785,2.4785,0.0,0.0,0.0,0.0,0.0,0.0,0.0,2.5191,2.5469,2.5874,2.6364,2.6772,2.7302,2.7912,2.8421,2.9632,3.0568,0.0,3.1062,3.1658,3.1658,0.0,0.0,0.0,0.0,3.5125,3.5602,3.6182,3.6535,3.6535,3.6535,3.6535,3.6535,3.6535,3.6362,3.5896,3.5597,3.5057,3.4211,3.3372,3.272,0.0,0.0,0.0,0.0,0.0,0.0,0.0,0.0,0.0,0.0,0.0,0.0,0.0,0.0,0.0,0.0,0.0,0.0,0.0,0.0,0.0,0.0,0.0,0.0,0.0,0.0,0.0,0.0,1.6016,1.6162,1.6587,1.6777,1.6733,0.0,0.0,0.0,0.0,0.0,0.0,1.8774,1.8971,1.9178,1.9437,1.9526,1.9709,2.0023,2.0319,2.0491,2.0535,2.068,2.1179,2.1929,2.1721,2.2176,2.3125,2.2861,2.3376,2.4332,2.3483,2.3029,2.2852,2.281,2.3141,2.3607,2.3607,2.4225,2.5137,2.5449,2.559,2.559,2.559,2.5723,2.5835,2.5649,0.0,0.0,0.0,0.0,2.6147,2.6602,2.6744,2.6855,2.7383,2.805,2.8712,2.9024,3.0681,3.1956,0.0,3.2694,3.3746,3.3919,0.0,0.0,0.0,0.0,3.6455,3.6606,3.7185,3.7588,3.7588,3.7588,3.7588,3.7588,3.7588,3.7389,3.6945,3.6547,3.6054,3.5471,3.4367,3.3665,3.346,0.0,0.0,0.0,0.0,0.0,0.0,0.0,0.0,0.0,0.0,0.0,0.0,0.0,0.0,0.0,0.0,0.0,0.0,0.0,0.0,0.0,0.0,0.0,0.0,0.0,0.0,0.0,0.0,0.0,1.7288,1.7823,0.0,0.0,0.0,0.0,1.7782,1.7844,1.82,1.9039,1.9323,1.9766,2.0426,2.0179,2.0076,2.0081,2.0428,2.0597,2.0601,2.1174,2.1464,2.1518,2.1252,2.1614,2.2402,2.1225,2.1295,2.2312,2.4254,2.5138,2.5234,2.5216,2.5267,2.5293,2.5293,2.5937,2.6869,2.6914,2.6889,2.6889,2.6889,2.666,2.6426,2.6797,2.666,0.0,0.0,2.6928,2.7051,2.7506,2.7624,2.7839,2.8633,2.8855,2.9082,2.9798,3.0634,3.1685,0.0,3.445,3.5556,3.613,0.0,3.6431,3.6959,3.6658,3.6582,3.711,3.6758,3.648,3.648,3.648,3.648,3.648,3.648,3.6683,3.7161,3.7161,3.724,3.7444,3.6184,3.5377,3.5186,3.2348,0.0,0.0,0.0,0.0,0.0,0.0,0.0,0.0,0.0,0.0,0.0,0.0,0.0,0.0,0.0,0.0,0.0,0.0,0.0,0.0,0.0,0.0,0.0,0.0,0.0,0.0,0.0,0.0,1.7638,1.8174,0.0,1.7915,1.8384,1.8716,1.8695,1.8741,1.8888,1.9201,1.9692,2.0074,2.0317,2.0594,2.0727,2.0727,2.0849,2.1018,2.1179,2.141,2.1499,2.1515,2.1662,2.1806,2.1861,2.1693,2.272,2.4592,2.5332,2.5088,2.4377,2.587,2.6429,2.6429,2.6429,2.6679,2.6986,2.6986,2.6986,2.7084,2.7656,2.791,2.8105,2.8535,2.8582,2.8484,2.8613,2.8652,2.8718,2.8875,2.8914,2.8992,2.9285,2.9336,2.9403,2.9671,3.1262,3.288,3.3779,3.4802,3.5794,3.6764,3.721,3.7261,3.6758,3.711,3.7362,3.7235,3.7312,3.7412,3.7412,3.7412,3.7412,3.7412,3.7412,3.7366,3.7221,3.6874,3.6727,3.6818,3.6036,3.5349,3.4854,3.3788,3.2244,0.0,0.0,0.0,0.0,0.0,0.0,0.0,0.0,0.0,0.0,0.0,0.0,0.0,0.0,0.0,0.0,0.0,0.0,0.0,0.0,0.0,0.0,0.0,0.0,0.0,0.0,1.8101,1.7974,1.8513,1.8815,1.8592,1.9067,1.949,1.9672,1.9698,1.9726,1.9726,2.0225,2.0506,2.0506,2.0906,2.1093,2.1093,2.1322,2.1527,2.1704,2.1825,2.1933,2.2032,2.211,2.2465,2.3012,2.2453,2.3596,2.5886,2.5886,2.5303,2.4612,2.696,2.7607,2.7244,2.7713,2.7871,2.7871,2.7871,2.7871,2.7969,2.8535,2.8906,2.9199,2.952,2.9598,2.9598,2.9598,2.9598,2.9637,2.9774,2.9813,2.9852,3.0009,3.0048,3.0048,3.0048,3.1602,3.323,3.4019,3.5422,3.6724,3.7468,3.799,3.799,3.7085,3.7387,3.7588,3.7261,3.7337,3.7462,3.7462,3.7462,3.7438,3.734,3.7414,3.7318,3.6948,3.6678,3.6579,3.6691,3.6106,3.5386,3.457,3.369,3.2043,2.9552,0.0,0.0,0.0,0.0,0.0,0.0,0.0,0.0,0.0,0.0,0.0,0.0,0.0,0.0,0.0,0.0,0.0,0.0,0.0,0.0,0.0,0.0,0.0,1.7925,1.8394,1.8701,1.8394,1.8946,1.9327,1.9327,1.9647,2.0035,2.059,2.0604,2.0604,2.0604,2.0919,2.1124,2.1124,2.1127,2.1127,2.1154,2.1783,2.2118,2.2118,2.2466,2.2781,2.3093,2.2513,2.3553,2.5671,2.3272,2.3627,2.592,2.592,2.5949,2.6238,2.8653,2.8822,2.7813,2.9103,2.9598,2.9598,2.9598,2.9618,2.9618,2.9618,2.9618,2.9637,2.9637,2.9637,2.9637,2.9637,2.9637,2.9735,3.0117,3.0215,3.0332,3.0762,3.0859,3.0859,3.0859,3.1633,3.2683,3.3868,3.6405,3.8388,3.8388,3.8641,3.8642,3.8065,3.7538,0.0,3.7161,3.6708,3.6405,3.6381,3.6405,3.6287,3.6003,3.6241,3.6369,3.6358,3.6627,3.6899,3.7219,3.6479,3.5468,3.4337,3.1839,2.9998,2.8898,0.0,0.0,0.0,0.0,0.0,0.0,0.0,0.0,0.0,0.0,0.0,0.0,0.0,0.0,0.0,0.0,0.0,0.0,0.0,0.0,0.0,0.0,1.8946,1.8262,1.8961,1.9488,1.94,1.9897,2.0229,2.0229,2.0345,2.0542,2.0931,2.0783,2.0674,2.0674,2.1206,2.1532,2.1532,2.1768,2.2022,2.2268,2.22,2.226,2.2466,2.2809,2.3019,2.3094,2.3187,2.3459,2.385,2.3138,2.4329,2.6696,2.6696,2.7232,2.8165,2.9192,2.9374,2.9075,2.9458,2.9598,2.9598,2.9598,2.9794,3.0019,3.0019,3.0282,3.0527,3.0527,3.0527,3.0527,3.0527,3.0527,3.0576,3.0664,3.0703,3.0644,3.043,3.0391,3.0293,3.0028,3.1457,3.302,3.3748,3.6034,3.7805,3.7816,3.7892,3.7842,3.7463,3.7287,0.0,3.6396,3.6363,3.631,3.6122,3.6288,3.6287,3.6003,3.6074,3.5933,3.5551,3.56,3.5771,3.6059,3.5115,3.3837,3.2255,3.035,2.9206,0.0,0.0,0.0,0.0,0.0,0.0,0.0,0.0,0.0,0.0,0.0,0.0,0.0,0.0,0.0,0.0,0.0,0.0,0.0,0.0,0.0,0.0,1.9257,1.955,1.9143,1.9608,1.9959,1.9959,2.0229,2.0528,2.0841,2.0841,2.1043,2.1496,2.1511,2.1446,2.1326,2.1841,2.2108,2.2079,2.2394,2.2662,2.287,2.2812,2.2841,2.3022,2.3067,2.346,2.4139,2.4205,2.4405,2.4709,2.4163,2.5102,2.6991,2.6991,2.7757,0.0,0.0,0.0,0.0,0.0,3.0146,3.0146,3.0146,3.0302,3.0488,3.0488,3.0664,3.0898,3.0898,3.0898,3.0898,3.0898,3.0898,3.0898,3.0898,3.1016,3.1074,3.082,3.0898,3.0957,3.0732,3.1925,3.3298,3.4189,3.5588,0.0,3.7486,3.779,3.7817,3.7417,3.7367,3.7218,3.6748,3.6698,3.6674,3.6528,3.665,3.6625,3.6357,3.6455,0.0,0.0,0.0,3.5595,3.4968,3.3398,0.0,0.0,0.0,2.9004,2.9199,2.9121,0.0,0.0,2.8672,2.8613,0.0,0.0,0.0,0.0,0.0,0.0,0.0,0.0,0.0,0.0,0.0,0.0,0.0,0.0,0.0,0.0,1.9872,2.0269,2.0269,2.0298,2.0298,2.0296,2.0298,2.0582,2.127,2.1315,2.1512,2.2154,2.2607,2.2773,2.2543,0.0,0.0,0.0,0.0,2.3616,2.3646,2.3927,2.4006,2.3991,2.3763,2.4394,2.5806,2.5501,2.5973,2.6991,2.5837,2.605,2.7233,2.7233,2.7966,2.9235,3.0421,3.0186,2.9264,3.045,3.0898,3.0898,3.0898,0.0,0.0,3.0937,3.0957,3.0976,3.1016,3.1035,3.1035,3.1035,3.1035,3.1035,3.1035,3.1309,3.1582,3.1494,3.1816,3.215,3.2243,3.278,3.367,3.5054,3.5521,3.6164,3.7575,3.8027,3.8064,3.7617,3.7543,3.7543,3.7518,3.7343,3.7193,3.7143,0.0,0.0,3.6816,3.7017,3.6892,3.6234,3.6285,3.5561,3.3768,3.1741,3.0618,3.0483,2.9543,2.9258,2.9676,3.0059,3.0273,3.0254,2.9121,2.8809,0.0,0.0,0.0,0.0,0.0,0.0,0.0,0.0,0.0,0.0,0.0,0.0,0.0,0.0,0.0,1.9679,2.0208,2.0605,2.0605,2.0824,2.101,2.0996,2.1007,2.1344,2.2247,2.1888,2.1978,2.2853,2.3912,2.4512,2.446,2.6014,2.6889,2.6889,2.6729,2.6782,2.7051,2.685,2.663,2.6329,0.0,0.0,2.7125,2.7065,2.7185,2.7366,2.6853,2.7366,2.8534,2.8534,2.9324,3.0557,3.0791,3.0733,3.0557,3.0791,3.0898,3.0898,3.0898,3.0898,3.0937,3.1289,3.1377,3.1465,3.1846,3.1944,0.0,3.1944,3.1944,3.1944,3.1944,3.2022,3.1953,3.1601,3.1582,3.184,3.2525,3.3451,3.4681,3.6453,3.7512,3.8353,3.9083,3.805,3.7165,3.7268,3.7293,3.7193,3.6967,3.7093,3.7118,3.6892,3.7068,3.7093,3.6816,3.6841,3.6336,3.5031,3.4144,3.3095,3.1782,3.1316,3.0662,2.9822,2.9878,2.998,3.0078,3.0527,3.0762,3.0762,3.0508,3.0605,0.0,0.0,0.0,0.0,0.0,0.0,0.0,0.0,0.0,0.0,0.0,1.9107,0.0,0.0,2.0047,2.0223,2.0647,2.1028,2.1189,2.135,2.1451,2.1462,2.1436,2.1758,2.251,2.2481,2.2927,2.4216,2.5208,2.5911,2.6228,2.7452,2.8002,2.7706,2.7741,2.7817,2.8014,2.7667,2.7426,2.7246,2.7426,2.7757,2.8206,2.8206,2.8206,2.8206,2.827,2.8661,2.934,3.0193,3.0967,3.1553,3.1553,3.1406,3.1211,3.1211,3.1348,3.1553,3.1553,3.1553,3.1592,3.1777,3.1836,3.1875,3.214,3.2198,3.2198,3.2198,3.2198,3.2198,3.2198,3.2355,3.2422,3.2207,3.2324,3.2769,3.3864,3.4513,3.5481,3.7412,3.8041,3.8434,3.9091,3.82,3.7586,3.8113,3.8189,3.8064,3.7643,3.7592,3.7541,3.7412,3.7515,3.7541,3.7412,3.6842,3.5925,3.4571,3.3426,3.246,3.1629,3.102,3.0354,2.9598,2.9813,2.9911,2.9911,3.0332,3.0547,3.0547,3.0781,3.0879,0.0,0.0,0.0,0.0,0.0,0.0,0.0,0.0,1.8672,1.9008,1.933,1.9638,1.9928,2.0208,2.0502,2.0839,2.113,2.1423,2.1745,2.1789,2.1818,2.1876,2.2112,2.2481,2.308,2.363,2.4528,2.5883,2.672,2.7393,2.7949,2.8664,2.8842,2.8337,2.8534,2.8671,2.876,2.8415,2.8236,2.8236,2.8055,2.8481,2.9405,2.9498,2.9547,2.9565,2.993,3.0109,3.0207,3.1618,3.2198,3.2198,3.2198,3.2042,3.1728,3.168,3.1875,3.2198,3.2198,3.2198,3.2218,3.2296,3.2316,3.2335,3.2413,3.2452,3.2452,3.2452,3.2452,3.2452,3.2452,3.2656,3.291,3.291,3.3184,3.3765,3.5098,3.5592,3.6322,3.8193,3.8464,3.8554,3.9152,3.8912,3.8755,3.9064,3.9116,3.8994,3.8679,3.8444,3.8286,3.8286,3.8286,3.8206,3.7965,3.6831,3.5624,3.4393,3.3221,3.2424,3.2035,3.1113,3.0458,3.0106,3.0185,3.0263,3.0341,3.0771,3.0996,3.1074,3.1465,3.1289,1.2646,1.3273,1.4819,1.704,1.7901,1.8482,0.0,0.0,1.9723,1.9976,2.0312,2.0546,2.0575,2.0881,2.1203,2.154,2.1613,2.1759,2.2111,2.2125,2.2228,2.2461,2.3541,2.4499,2.5109,2.6236,2.7158,2.7669,2.8835,2.9563,2.9648,3.0762,3.1392,3.1305,3.1073,3.1073,3.1383,3.1043,3.0869,3.0888,3.1279,3.1366,3.1207,3.1625,3.183,3.183,3.1888,3.1908,3.1908,3.2118,3.2198,3.2198,3.2198,3.2394,3.2598,3.2257,3.2159,3.2198,3.2198,3.2198,3.2257,3.2628,3.2734,3.2793,3.3164,3.3281,3.3281,3.3281,3.3281,3.3281,3.3281,3.3289,3.3328,3.3328,3.3347,3.3765,3.5098,3.6276,3.7498,3.8853,4.0029,4.0837,4.0932,4.086,4.0407,3.9059,3.8843,3.8987,3.9396,3.9444,3.9417,3.9417,3.9417,3.8951,3.784,3.6626,3.5367,3.4042,3.2894,3.2234,3.2175,3.2044,3.1964,3.1905,3.2276,3.2617,3.2988,3.3418,3.386,3.4199,3.4258,3.3633,1.5673,1.6195,1.6974,1.8325,1.8906,1.9283,1.9693,1.9928,2.0135,2.0429,2.0751,2.0985,2.0985,2.1276,2.154,0.0,2.1862,2.2379,2.3442,2.3743,2.4152,2.5044,2.664,2.711,2.5635,2.6999,2.8346,2.9286,3.0012,3.0675,3.1276,3.196,3.2162,3.1816,3.1672,3.1676,3.1906,3.1584,3.1545,3.183,3.2026,3.2045,3.1894,3.212,3.2335,3.257,3.257,3.2676,3.2891,3.2891,3.2891,3.2891,3.2891,3.3008,3.3105,3.2695,3.2695,3.2891,3.2891,3.2891,3.293,3.3105,3.3164,3.3184,3.3347,3.3594,3.3809,3.3809,3.3984,3.416,3.416,3.416,3.416,3.416,3.416,3.4514,3.5878,3.6551,3.7247,3.8194,3.9496,4.0346,4.0013,4.0658,4.1105,4.0715,4.0138,3.9705,3.9609,3.9609,3.9308,3.8559,3.8475,3.769,3.5656,3.5043,3.4218,3.2975,3.2452,3.2316,3.255,3.257,3.2656,3.2891,3.3066,3.3242,3.3386,3.3613,3.3789,3.3945,3.3711,3.3574,1.7626,1.8096,1.8333,1.922,1.9752,2.006,2.006,2.0267,2.0546,2.078,2.1042,2.1233,2.132,2.154,2.1759,2.192,2.2154,2.2886,2.4522,2.4916,2.554,2.697,2.8772,2.9098,2.7013,2.8438,2.9846,3.0772,3.0995,3.1392,3.2133,3.237,3.2279,3.1736,3.1914,3.2076,3.2157,3.1849,3.1916,3.232,3.2346,3.2374,3.2374,3.2492,3.2676,3.2969,3.2969,3.3144,3.3386,3.3386,3.3386,3.3406,3.3555,3.3594,3.3574,3.3379,3.3359,3.3406,3.3555,3.3594,3.3613,3.373,3.3769,3.3769,3.3769,3.4004,3.4271,3.4271,3.4473,3.4707,3.4707,3.4707,3.4707,3.4707,3.4707,3.508,3.6433,3.701,3.754,3.8455,3.9757,4.0569,4.0167,4.0969,4.1779,4.2164,4.1562,4.0908,4.0523,4.0475,3.9969,3.866,3.8515,3.7472,3.4876,3.4664,3.4167,3.2964,3.2902,3.3039,3.3301,3.332,3.3457,3.3738,3.3769,3.3816,3.3965,3.3828,3.3874,3.4089,3.3711,3.3965,1.7051,1.7536,1.8056,1.944,2.0223,2.0663,2.0663,2.0912,2.1174,2.1189,2.1203,2.1306,2.1628,2.1686,2.1891,2.2461,2.2578,2.317,2.4855,2.5086,2.5698,2.7289,2.892,2.9953,0.0,3.1372,3.219,3.2248,3.196,3.1787,3.1816,3.1946,3.186,3.1534,3.2275,3.2643,3.2583,3.233,3.233,3.2603,3.2732,3.2773,3.2793,3.3203,3.3367,3.3367,3.3367,3.3386,3.3386,3.3386,3.3386,3.3457,3.3887,3.4095,3.4134,3.4492,3.4121,3.3476,3.3906,3.4095,3.4153,3.4531,3.4668,3.4668,3.4668,3.4668,3.4687,3.4687,3.4687,3.4707,3.4707,3.4707,3.4707,3.4707,3.4707,3.508,3.6497,3.7784,3.905,4.0441,4.1788,4.2706,4.2682,4.2711,4.2741,4.2765,4.2741,4.2717,4.2693,4.2693,4.2161,4.0754,4.0609,3.9534,3.6831,3.6628,3.605,3.4727,3.4629,3.4629,3.4648,3.4648,3.4648,3.4668,3.4668,3.4883,3.5332,3.4883,3.5098,3.5903,3.5508,3.5815,1.8283,1.899,1.9515,2.0228,2.072,2.1014,2.1014,2.113,2.1276,2.1496,2.1364,2.1306,2.1642,2.1876,2.2379,2.3424,2.396,2.5051,2.7301,2.7996,2.8712,2.9884,3.0694,0.0,0.0,0.0,0.0,3.2584,3.2765,3.2764,3.2531,3.2889,3.2804,3.2265,3.2493,3.2681,3.2732,3.264,3.2777,3.3113,3.3176,3.3203,3.3223,3.3328,3.3386,3.3406,3.373,3.3848,3.3887,3.416,3.4277,3.4277,3.4434,3.4492,3.4512,3.4648,3.4512,3.4297,3.4434,3.4492,3.4512,3.4648,3.4707,3.4707,3.4707,3.4922,3.5156,3.5156,3.5371,3.5586,3.5586,3.5586,3.5586,3.5586,3.5586,3.5701,3.615,3.7357,3.845,3.8937,4.0891,4.2475,4.2475,4.2902,4.2849,4.1653,4.2226,4.2466,4.1539,4.1121,4.0075,3.7814,3.7317,3.6465,3.4655,3.4497,3.4326,3.388,3.3848,3.4101,3.4668,3.4707,3.498,3.5566,3.5586,3.5801,3.6284,3.6074,3.6309,3.6855,3.6445,3.6441,1.9478,2.0064,2.0459,2.078,2.1029,2.1203,2.1203,2.1306,2.1452,2.1657,2.1525,2.1511,2.195,2.2483,2.3244,2.4297,2.5194,2.652,2.8623,2.9275,2.9972,3.115,3.1638,3.2058,0.0,0.0,0.0,3.2773,3.3106,3.3146,3.2821,3.3245,3.3246,3.2688,3.2918,3.3043,3.3008,3.3008,3.3144,3.3386,3.3386,3.3496,3.3652,3.3652,3.373,3.3887,3.418,3.4297,3.4316,3.459,3.4707,3.4726,3.4883,3.4941,3.4961,3.5117,3.5176,3.5156,3.5,3.4941,3.4961,3.5117,3.5176,3.5176,3.5176,3.5371,3.5605,3.5605,3.5801,3.5982,3.5982,3.5982,3.5982,3.5982,3.5982,3.6152,3.664,3.7461,3.8407,3.9408,4.0668,4.1697,4.2229,4.2309,4.1931,4.0768,4.1314,4.1484,4.042,4.0033,3.9011,3.6987,3.6535,3.5829,3.4453,3.4323,3.4323,3.4323,3.4323,3.4668,3.5371,3.541,3.5742,3.6465,3.6484,3.6621,3.6894,3.6773,3.6929,3.7285,3.691,3.6871,2.0472,2.0707,2.0795,2.113,2.1203,2.1203,2.1203,2.1467,2.1701,2.1701,2.1715,2.1906,0.0,0.0,2.435,2.5051,2.6247,2.7547,2.8831,2.9009,2.9589,0.0,0.0,0.0,0.0,0.0,0.0,3.2944,0.0,3.2985,3.2683,3.3069,3.3173,3.2832,3.3516,3.3733,3.3386,3.3406,3.3425,3.3425,3.3476,3.3711,3.4134,3.4134,3.4349,3.4707,3.4726,3.4726,3.4726,3.4766,3.4766,3.4805,3.5254,3.543,3.5469,3.5879,3.5982,3.5957,3.5566,3.543,3.5488,3.5898,3.5982,3.5982,3.5982,3.5982,3.5982,3.5982,3.5982,3.5982,3.5982,3.6001,3.6055,3.6123,3.6157,3.655,3.7891,3.8271,3.9165,4.1765,4.1283,4.0928,4.2243,4.1293,4.0333,4.0214,4.0127,3.992,3.9505,3.9417,3.9045,3.8059,3.7955,3.7421,3.6078,3.5982,3.5982,3.5982,3.5982,3.6211,3.6695,3.6714,3.691,3.7285,3.7305,3.7305,3.7324,3.6968,3.6988,3.7363,3.6988,3.7187,2.0619,2.0868,2.1101,2.1189,2.1203,2.1203,2.1203,2.1467,2.1701,2.1701,2.1891,2.2111,0.0,0.0,0.0,2.5963,2.7414,0.0,3.0216,3.0567,0.0,3.1722,0.0,3.2385,3.3331,3.3306,0.0,0.0,3.3599,3.3568,3.3507,3.3649,3.3607,3.3262,3.3422,3.3481,3.3386,3.375,3.3906,3.3938,3.4219,3.4434,3.4531,3.4531,3.459,3.4726,3.5059,3.5215,3.5234,3.5547,3.5684,3.5684,3.582,3.5859,3.5879,3.5942,3.5982,3.5996,3.5898,3.5859,3.5879,3.5996,3.5982,3.5982,3.5982,3.5982,3.5982,3.5982,3.5982,3.5982,3.5982,3.6269,3.6794,3.7882,3.8398,3.8712,3.9089,4.0839,4.2235,4.1861,4.3209,4.4433,4.4373,4.3293,4.1911,4.042,3.9343,3.8642,3.8504,3.8189,3.752,3.621,3.6096,3.5949,3.558,3.584,3.5982,3.5982,3.5982,3.6211,3.6695,3.6714,3.691,3.7285,3.7305,3.7461,3.7773,3.7656,3.7832,3.8278,3.818,3.8239,2.0868,2.1072,2.1203,2.1203,2.1203,2.1203,2.1203,2.1467,2.173,2.1876,2.2052,2.2452,2.3324,2.4561,0.0,0.0,0.0,0.0,3.0791,3.1025,3.1299,0.0,3.1949,0.0,3.3387,3.34,3.3534,0.0,3.3937,3.3782,3.3627,3.3677,3.3576,3.3418,3.3386,3.3516,3.3711,3.4121,3.4336,3.4388,3.459,3.4805,3.5,3.5,3.5098,3.5293,3.5566,3.5664,3.5684,3.5918,3.5982,3.5982,3.5982,3.5982,3.5982,3.5982,3.5982,3.6021,3.623,3.6309,3.6269,3.6094,3.5982,3.6055,3.625,3.6309,3.6348,3.6523,3.6582,3.6582,3.6582,3.6758,3.7177,3.8024,3.8358,3.8714,3.9351,4.0256,4.0902,4.0699,4.1948,4.2979,4.2685,4.1518,4.0229,3.9101,3.8303,3.7813,3.7744,3.7395,3.691,3.6313,3.623,3.623,3.623,3.6445,3.6582,3.6582,3.6582,3.6777,3.7207,3.7226,3.7422,3.7851,3.7851,3.7969,3.8203,3.8203,3.834,3.8611,3.8611,3.8611,2.113,2.1203,2.1203,2.1203,2.1203,2.1203,2.1203,2.1496,2.1832,2.2067,2.2363,2.3082,2.4714,2.6024,2.7281,2.8687,0.0,3.0918,3.0957,3.0976,3.1152,3.1621,3.2031,3.2575,3.3296,3.3391,3.367,3.436,3.4047,3.3733,3.3481,3.3418,3.3406,3.3496,3.3523,3.3769,3.4192,3.459,3.4785,3.4785,3.4844,3.5078,3.5488,3.5488,3.5664,3.5982,3.5982,3.5982,3.5982,3.5982,3.5982,3.5982,3.5982,3.6055,3.6079,3.6079,3.6152,3.625,3.6656,3.6792,3.6734,3.6309,3.6157,3.6269,3.6675,3.6792,3.6871,3.7187,3.7305,3.7305,3.7305,3.7344,3.7418,3.7665,3.774,3.8111,3.9398,3.8687,3.8217,3.9654,3.9917,3.9917,3.9965,3.8897,3.7971,3.7794,3.7779,3.7708,3.7496,3.7086,3.6894,3.7266,3.7344,3.7383,3.7383,3.7441,3.7461,3.7461,3.7461,3.7637,3.7988,3.7972,3.8184,3.8611,3.8611,3.8611,3.8611,3.8611,3.8611,3.8611,3.8611,3.8611,2.1189,2.1203,2.1203,2.1203,2.1203,2.1203,2.1203,2.1672,0.0,0.0,2.3292,2.4636,2.4674,2.676,2.8562,2.8842,3.002,3.1016,3.1367,3.1406,3.1699,0.0,3.2637,3.2976,3.3701,3.3568,0.0,0.0,3.3827,3.3576,3.3796,3.3544,3.3594,3.3977,3.4297,3.4512,3.459,3.5039,3.5273,3.5273,3.5625,3.584,3.5918,3.5918,3.5923,3.5982,3.5982,0.0,3.5982,3.5982,3.5982,3.5982,3.5982,3.623,3.6597,3.6597,3.6777,3.709,3.7168,3.7187,3.7168,3.7109,3.707,3.709,3.7168,3.7187,3.7207,3.7266,3.7305,3.7305,3.7305,3.7559,3.8133,3.9403,3.995,4.0253,4.0536,4.0359,4.0643,4.211,4.2354,4.2354,4.2388,4.218,4.1608,4.0395,4.0182,3.9739,3.8521,3.7676,3.7226,3.7285,3.7617,3.7812,3.7812,3.8144,3.8359,3.8359,3.8359,3.8435,3.8493,3.8457,3.8532,3.8611,3.8611,3.8611,3.8611,3.8611,3.8611,3.8611,3.8611,3.8611,2.1203,2.1203,2.1203,2.1203,2.1203,2.1262,2.1423,0.0,0.0,0.0,2.4601,2.6024,2.6713,2.7973,2.9128,2.9844,3.0672,3.1289,3.1455,3.1719,3.209,3.2715,3.2948,3.3198,3.3599,3.3639,3.3733,3.3859,3.3823,3.3779,3.391,3.3823,3.3965,3.4394,3.4824,3.5059,3.5059,3.5508,3.5723,3.5723,3.5918,3.5982,3.5982,3.5982,3.5982,3.5982,3.5982,3.5982,3.5982,3.5982,3.6152,3.6348,3.6348,3.6621,3.6992,3.6992,3.7129,3.7324,3.7539,3.7617,3.7656,3.7891,3.7656,3.7344,3.7559,3.7617,3.7676,3.791,3.8005,3.8005,3.8005,3.8105,3.8442,3.9178,4.0085,4.0586,3.9838,4.0249,4.1013,4.17,4.1261,4.1191,4.2753,4.1735,4.0728,4.08,4.0141,3.9405,3.8683,3.8259,3.8005,3.8005,3.8144,3.8262,3.8262,3.8457,3.8611,3.8611,3.8611,3.8611,3.8611,3.8611,3.8611,3.8611,3.8611,3.8611,3.8611,3.8611,3.8611,3.8611,3.8611,3.8611,2.1189,2.1203,2.1261,2.1518,2.1648,2.1839,2.225,2.3302,0.0,2.4801,2.6025,2.7405,2.8687,2.9128,2.9648,3.0733,3.1172,3.1445,3.1621,3.1983,3.2394,0.0,3.3209,0.0,3.3379,3.3702,0.0,3.3681,3.4093,3.4255,3.4092,3.4282,3.4512,3.4844,3.5293,3.5527,3.5527,3.5859,3.5982,3.5982,3.5982,3.5982,3.5982,3.5982,3.5982,3.5982,3.5982,3.5982,3.6035,3.6113,3.6367,3.6714,3.6792,3.707,3.7441,3.7441,3.75,3.7617,3.7949,3.8066,3.8125,3.8457,3.8125,3.7637,3.7969,3.8066,3.8144,3.8513,3.8611,3.8611,3.8611,3.8611,3.8611,3.8611,3.9478,3.9998,3.8865,3.9514,4.032,4.032,3.9369,3.9353,4.1665,4.0141,3.8991,4.0141,3.9333,3.8611,3.8611,3.8611,3.8611,3.8611,3.8611,3.8611,3.8611,3.8611,3.8611,3.8611,3.8611,3.8611,3.8611,3.8611,3.8611,3.8611,3.8611,3.8611,3.8611,3.8611,3.8611,3.8611,3.8611,3.8611,2.113,2.1203,2.1461,2.2567,2.3099,2.3556,2.4262,0.0,2.615,2.5861,2.7311,2.8735,2.889,2.9903,3.0762,3.0898,3.0918,3.1211,3.2022,3.2179,3.2492,3.323,0.0,0.0,3.3418,3.3702,3.4049,3.4465,3.4848,3.4955,3.4655,3.5053,3.5293,3.5332,3.5742,3.5923,3.5923,3.5962,3.5982,3.5982,3.5982,3.5982,3.5982,3.5982,3.5982,3.5982,3.5982,3.5982,0.0,3.6445,3.6675,3.6753,3.709,3.75,3.7835,3.7835,3.8105,3.8493,3.8496,3.8552,3.8552,3.8591,3.8552,3.8493,3.8496,3.8552,3.8552,3.8591,3.8611,3.8611,3.8611,3.8611,3.8611,3.8611,3.872,3.8756,3.8647,3.872,3.8793,3.8793,3.8683,3.8683,3.8955,3.8793,3.8647,3.8793,3.8683,3.8611,3.8611,3.8611,3.8611,3.8611,3.8611,3.8611,3.8611,3.8611,3.8611,3.8611,3.8611,3.8611,3.8611,3.8611,3.8611,3.8611,3.8611,3.8611,3.8611,3.8611,3.8611,3.8611,3.8611,3.8611,2.1174,2.1731,2.2397,2.2862,2.3633,2.4379,2.4884,0.0,2.7007,2.7282,2.8595,2.9755,3.0041,3.0557,3.0898,3.0898,3.1094,3.1484,3.212,3.2413,3.2847,3.3591,3.3827,0.0,0.0,0.0,3.4519,3.5035,3.5453,3.5622,3.5488,3.543,3.5508,3.5762,3.5937,3.5982,3.5982,3.5982,3.5982,3.5982,3.5982,3.5982,3.5982,3.5982,3.5982,3.6035,3.6289,3.6406,0.0,3.6875,3.7187,3.7441,3.7617,3.793,3.832,3.832,3.8418,3.8611,3.8611,3.8611,3.8611,3.8611,3.8611,3.8611,3.8611,3.8611,3.8611,3.8611,3.8611,3.8611,3.8611,3.8611,3.8611,3.8611,3.8611,3.8611,3.8611,3.8611,3.8611,3.8611,3.8611,3.8882,3.9766,3.9208,3.8882,3.9802,3.9172,3.8611,3.8611,3.8611,3.8611,3.8611,3.8611,3.8611,3.8611,3.8611,3.8611,3.8611,3.8611,3.8611,3.8611,3.8611,3.8611,3.8611,3.8611,3.8611,3.8611,3.8611,3.8611,3.8611,3.9514,3.9926,2.1602,2.2341,2.3203,2.4031,2.4859,2.5579,0.0,0.0,2.8061,2.8585,2.9499,3.0332,3.0801,3.0898,3.0898,3.0898,3.1133,3.1523,3.212,3.2452,3.2905,3.3674,0.0,3.4163,0.0,3.4705,3.4989,3.5385,3.5781,3.5982,3.5982,3.5742,3.5723,3.5982,3.5982,3.5982,3.5982,3.5982,3.5982,3.5982,3.5982,3.5982,3.5982,3.5982,3.6094,3.623,3.6577,3.6773,0.0,3.7305,3.7656,3.7894,3.8066,3.8301,3.8611,3.8611,3.8611,3.8611,3.8611,3.8611,3.8611,3.8611,3.8611,3.8611,3.8611,3.8611,3.8611,3.8611,3.8611,3.8611,3.8611,3.8611,3.8611,3.8611,3.8611,3.8611,3.8611,3.8611,3.8611,3.8611,3.8611,3.8918,3.9962,3.9281,3.8955,3.9998,3.9281,3.8611,3.8611,3.8611,3.8611,3.8611,3.8611,3.8611,3.8611,3.8611,3.8611,3.8611,3.8611,3.8611,3.8611,3.8611,3.8611,3.8611,3.8611,3.8611,3.8611,3.8611,3.8829,3.9281,4.032,4.136,2.2586,2.2974,2.3673,2.6457,2.7151,2.7456,2.8605,2.923,2.9598,2.957,2.9902,3.0332,3.0801,3.0898,3.0898,3.0898,3.0898,3.1221,3.2081,3.2198,3.248,0.0,0.0,3.4321,3.412,3.4896,3.5391,3.5391,3.5781,0.0,3.5982,3.6016,3.6016,3.5982,3.5982,3.5982,3.5982,3.5982,3.5982,3.5982,3.5982,3.5982,3.5982,3.5982,3.625,3.6695,3.6714,3.6949,0.0,3.7734,3.7874,3.7969,3.8398,3.8611,3.8611,3.8611,3.8611,3.8611,3.8611,3.8611,3.8611,3.8611,3.8611,3.8611,3.8611,3.8611,3.8611,3.8611,3.8611,3.8611,3.8611,3.8611,3.8611,3.8611,3.8611,3.8611,3.8611,3.8611,3.8611,3.8611,3.8611,3.8611,3.8611,3.8611,3.8611,3.8611,3.8611,3.8611,3.8611,3.8611,3.8611,3.8611,3.8611,3.8611,3.8611,3.8611,3.8611,3.8611,3.8611,3.8611,3.8611,3.8611,3.8611,3.8611,3.8611,3.8611,3.8611,3.8611,3.9333,4.0764,4.08,4.2697,2.2586,2.3575,2.4567,2.6299,2.7339,2.8045,2.8415,2.8594,2.8894,2.9481,2.9696,3.0028,3.0762,3.0898,3.0898,3.0898,3.0898,3.1191,3.2081,3.2452,3.3003,3.4088,3.4945,3.5316,0.0,0.0,3.6167,3.584,3.623,3.6328,3.6001,3.5982,3.5982,3.5982,3.5982,3.5982,3.5982,3.5982,3.5982,3.5982,3.5982,3.5982,3.6001,3.6328,3.6577,3.6734,3.7285,3.7598,3.7718,3.8184,3.8359,3.8379,3.8552,3.8611,3.8611,3.8611,3.8611,3.8611,3.8611,3.8611,3.8611,3.8611,3.8611,3.8611,3.8611,3.8611,3.8611,3.8611,3.8611,3.8611,3.8611,3.8611,3.8611,3.8611,3.8611,3.8611,3.8611,3.8611,3.8611,3.8611,3.8611,3.8611,3.8611,3.8809,3.9004,3.9004,3.9277,3.9473,3.9473,3.9473,3.9473,3.9473,3.9473,3.9238,3.8669,3.8611,3.8728,3.8984,3.9004,3.9141,3.9473,3.9473,3.9473,3.9473,3.9473,4.0011,4.1077,4.1114,4.2442,4.4971,4.4971,4.6101,2.3306,2.4495,2.5716,2.7075,2.786,2.834,2.8496,2.8535,2.873,2.9461,2.9715,3.0048,3.0762,3.0898,3.0898,3.0898,3.0898,3.125,3.2296,3.2637,3.3289,3.4663,0.0,0.0,0.0,3.6084,3.6309,3.6001,3.6269,3.6309,3.6035,3.5982,3.5982,3.5982,3.5982,3.5982,3.5982,3.5982,3.5982,3.5982,3.5982,3.6079,3.6269,3.6577,3.6871,3.7168,3.7695,3.7991,0.0,3.8457,3.8611,3.8611,3.8611,3.8611,3.8611,3.8611,3.8611,3.8611,3.8611,3.8611,3.8611,3.8611,3.8691,3.8848,3.9023,3.8884,3.8611,3.8611,3.8728,3.8809,3.8809,3.8945,3.9082,3.9082,3.9082,3.9082,3.9082,3.9082,3.9082,3.9082,3.9082,3.9082,3.9082,3.9297,3.9453,3.9453,3.9707,3.9902,3.9902,3.9902,3.9902,3.9902,3.9902,3.9668,3.9121,3.9082,3.918,3.9453,3.9453,3.959,3.9883,3.9902,3.9902,3.9902,3.9902,4.0352,4.1319,4.2554,4.4423,4.691,4.7458,4.8305,0.0,2.5635,2.6882,2.847,2.8574,2.8398,2.8762,2.8879,0.0,2.95,2.9931,3.0332,3.0801,3.0898,3.0898,3.0898,3.0918,3.1367,3.2617,3.291,3.3544,3.5033,3.5355,0.0,3.5824,3.595,3.5982,3.5982,3.5982,3.5982,3.5982,3.5982,3.5982,3.5982,3.5982,3.5982,3.5982,3.5982,3.5982,3.5982,3.5982,3.625,3.6714,3.6734,3.7148,0.0,3.7933,3.8203,3.8611,3.8611,3.8611,3.8611,3.8611,3.8611,3.8611,3.8611,3.8611,3.8611,3.8611,3.863,3.8669,3.8689,3.8945,3.9336,3.9766,3.9316,3.8708,3.8708,3.8945,3.9258,3.9258,3.957,3.9902,3.9902,3.9902,3.9902,3.9902,3.9902,3.9902,3.9902,3.9902,3.9902,3.9902,3.9922,3.9941,3.9941,3.9961,3.998,3.998,3.998,3.998,3.998,3.998,3.998,3.998,3.9941,3.9902,3.9941,3.9941,3.9961,3.998,3.998,3.998,3.998,4.0207,4.0375,4.0488,4.3495,4.5694,4.7201,4.8571,4.948,2.5414,0.0,2.6799,2.8122,2.8359,2.832,0.0,2.8691,2.9043,2.95,2.9931,3.0332,3.0801,3.0898,3.0898,3.0898,3.1152,3.1699,3.2656,3.3945,3.4935,3.5295,3.5639,3.5776,3.553,3.5815,3.5982,3.5982,3.5982,3.5982,3.5982,3.5982,3.5982,3.5982,3.5982,3.5982,3.5982,3.5982,3.5982,3.5982,3.5982,3.625,3.6714,3.7047,3.7441,3.7913,3.8281,3.8513,3.8611,3.8611,3.8611,3.8611,3.8611,3.8611,3.8611,3.8611,3.8611,3.8611,3.8611,3.8789,3.9121,3.9473,3.9648,3.9746,3.9863,3.9746,3.959,3.959,3.9648,3.9726,3.9726,3.9824,3.9902,3.9902,3.9902,3.9902,3.9902,3.9902,3.9902,3.9902,3.9902,3.9902,3.9902,4.0156,4.0371,4.0371,4.0664,4.0879,4.0879,4.0879,4.0879,4.0879,4.0879,4.0879,4.0879,4.0273,4.0039,4.0351,4.0371,4.0527,4.0898,4.0879,4.0879,4.0879,4.328,4.5107,4.6344,4.8288,4.944,4.9794,5.017,5.0383,2.6265,2.6737,2.7256,2.8082,2.8301,2.834,2.8535,2.8906,2.9336,2.9766,3.0215,3.0586,3.084,3.1055,3.1172,3.1172,3.1699,3.2463,3.3481,3.4453,3.5223,3.5605,3.5706,3.5723,0.0,3.5845,3.5982,3.5982,3.5982,3.5982,3.5982,3.5982,3.5982,3.5982,3.5982,3.5982,3.5982,3.5982,3.5982,3.5982,3.623,3.6543,3.6973,3.7402,3.7812,3.8242,3.8476,3.8611,3.8611,3.8611,3.8611,3.8611,3.8611,3.8611,3.8611,3.8611,3.8611,3.865,3.8789,3.916,3.959,4.0039,4.0176,4.0215,4.043,4.0488,4.041,4.0,4.0039,4.0176,4.0176,4.0332,4.0488,4.0488,4.0488,4.0488,4.0488,4.0488,4.0488,4.0488,4.0488,4.0488,4.0488,4.0664,4.082,4.082,4.1016,4.1211,4.1211,4.1211,4.1211,4.1211,4.1211,4.1211,4.1211,4.1413,4.1348,4.0839,4.082,4.1265,4.2234,4.2254,4.2618,4.3324,4.5041,4.6714,4.8308,4.9162,4.9997,5.0696,5.0696,5.0696,2.685,2.7324,2.78,2.8184,2.8301,2.8398,2.8828,2.9258,2.9715,3.0117,3.0566,3.0918,3.0976,3.1269,3.1513,3.1601,3.2383,3.3407,3.4559,3.4825,3.5119,3.5751,3.5616,0.0,3.5898,3.5942,3.5982,3.5982,3.5982,3.5982,3.5982,3.5982,3.5982,3.5982,3.5982,3.5982,3.5982,3.5982,3.6055,3.6133,3.6484,3.6934,3.7402,3.7718,3.8164,3.8611,3.8611,0.0,3.8611,3.8611,3.8611,3.8611,3.8611,3.8611,3.8611,3.8611,3.865,3.8787,3.9238,3.9668,4.0059,4.0488,4.0625,4.0684,4.1055,4.1211,4.1054,4.0293,4.0351,4.0625,4.0625,4.0898,4.1211,4.1211,4.1211,4.1211,4.1211,4.1211,4.1211,4.1211,4.1211,4.1211,4.1211,4.1211,4.1211,4.1211,4.1211,4.1211,4.1211,4.1211,4.1288,4.154,4.154,4.1657,4.1889,4.2866,4.2943,4.1618,4.1773,4.2503,4.3798,4.3873,4.4607,4.6211,4.627,4.7045,4.8694,4.8694,4.9365,5.0696,5.0696,5.0696,2.6771,2.7324,2.78,2.8184,2.8301,2.8398,2.8828,2.9258,2.9715,3.0117,3.0566,3.0996,3.1367,3.1465,3.1641,3.2042,3.3117,3.4212,0.0,0.0,3.5703,3.5497,0.0,3.5801,3.5527,3.5801,3.5982,3.5982,3.5982,3.5982,3.5982,3.5982,3.5982,3.5982,3.5982,3.5982,3.5982,3.5982,3.6211,3.6597,3.6675,3.707,3.7832,3.7855,3.8164,3.8611,0.0,3.8611,3.8611,3.8611,3.8611,3.8611,3.8611,3.8611,3.8611,3.8611,3.8809,3.9219,4.0039,4.0371,4.0488,4.0937,4.1074,4.1132,4.1191,4.1211,4.1191,4.1054,4.1016,4.1074,4.1074,4.1172,4.1211,4.1211,4.1211,4.1211,4.1211,4.1211,4.1211,4.1211,4.1211,4.1211,4.1211,4.1211,4.1211,4.1211,4.1211,4.1211,4.1211,4.1211,4.1695,4.3019,4.3134,4.3684,4.5079,4.4138,4.338,4.3172,4.444,4.5303,4.5506,4.5506,4.6285,4.7909,4.7945,4.873,5.0341,5.0341,5.0448,5.0696,5.0696,5.0696,2.683,2.7324,2.7897,2.8797,2.9188,2.9434,2.9883,3.0312,3.0684,3.0859,3.1074,3.1367,3.1797,3.2051,3.2578,3.373,3.4231,3.4714,3.5559,3.5452,3.5399,0.0,0.0,3.5703,3.5723,3.5898,3.5982,3.5982,3.5982,3.5982,3.5982,3.5982,3.5982,3.5982,3.5982,3.5982,3.5982,3.625,3.6499,3.6714,3.7129,3.7539,3.7894,3.8164,3.8379,3.8611,0.0,3.8611,3.8611,3.8611,3.8611,3.8611,3.8611,3.8611,3.865,3.8828,3.9336,3.998,4.0333,4.0684,4.0898,4.1152,4.1211,4.1211,4.1211,4.1211,4.1211,4.1211,4.1211,4.1211,4.1211,4.1211,4.1211,4.1211,4.1211,4.1211,4.1211,4.1211,4.1211,4.1211,4.1211,4.1211,4.1211,4.1211,4.1211,4.1211,4.1211,4.1211,4.1211,4.1211,4.1463,4.2177,4.2254,4.2542,4.3286,4.4252,4.444,4.3532,4.502,4.6285,4.7155,4.8018,4.8838,4.958,4.958,4.9961,5.0696,5.0696,5.0696,5.0696,5.0696,5.0696,2.7031,2.7506,2.8132,2.9305,2.9755,3.0098,3.0859,3.1211,3.1426,3.1621,3.1758,3.1914,3.2276,3.2765,3.3555,3.5,3.5019,3.5119,3.5803,3.5401,3.5236,3.5856,3.5715,3.5664,3.5962,3.5982,3.5982,3.5982,3.5982,3.5982,3.5982,3.5982,3.604,3.6172,3.6172,3.6211,3.6309,3.6758,3.6914,3.6851,3.7578,3.7969,3.8086,3.8418,3.8611,3.8611,3.8611,3.8611,3.8611,3.8611,3.8611,3.8611,3.8611,3.8669,3.8789,3.9316,3.9941,4.0527,4.0644,4.0898,4.1211,4.1211,4.1211,4.1211,4.1211,4.1211,4.1211,4.1211,4.1211,4.1211,4.1211,4.1211,4.1211,4.1211,4.1211,4.1211,4.1211,4.1211,4.1211,4.1211,4.1211,4.1211,4.1211,4.1211,4.1211,4.1211,4.1211,4.1211,4.1211,4.1211,4.1327,4.1695,4.1734,4.1734,4.1734,4.4628,4.5766,4.4176,4.5915,4.7558,4.8802,5.0033,5.0696,5.0696,5.0696,5.0696,5.0696,5.0696,5.0696,5.0696,5.0696,5.0696,2.7428,2.7956,2.8457,2.9383,2.9297,2.9425,3.1064,3.1191,3.1172,3.1983,3.2441,3.2715,3.2734,3.3449,3.4192,3.4668,3.5078,3.5488,3.5918,0.0,3.5937,3.601,3.5976,3.5996,3.6016,3.5982,3.5982,3.5982,3.5982,3.5982,3.5982,3.5982,3.6211,3.6656,3.6656,3.6851,3.7207,3.7617,3.7637,3.7266,3.7715,3.8144,3.8571,3.8591,3.8611,3.8611,3.8611,3.8611,3.8611,3.8611,3.8611,3.8611,3.8611,3.8809,3.9258,4.0117,4.0469,4.0547,4.0976,4.1191,4.1211,4.1211,4.1211,4.1211,4.1211,4.1211,4.1211,4.1211,4.1211,4.1211,4.1211,4.1211,4.1211,4.1211,4.1211,4.1211,4.1211,4.1211,4.1211,4.1211,4.1211,4.1211,4.1211,4.1211,4.1211,4.1211,4.1211,4.1211,4.1211,4.1211,4.1773,4.3172,4.3324,4.3324,4.3324,4.6307,4.7448,4.5803,4.8634,5.0412,5.0519,5.0625,5.0696,5.0696,5.0696,5.0696,5.0696,5.0696,5.0696,5.0696,5.0696,5.0696,2.7526,2.8386,2.9246,2.9833,3.0059,3.0449,3.1641,3.1992,3.2168,3.2531,3.2891,3.3262,3.3535,3.4512,3.5254,3.5156,3.5508,3.584,3.5962,3.5982,3.5982,3.5982,3.5982,3.5982,3.5982,3.5982,3.5982,3.5982,3.5982,3.6133,3.6406,3.6426,3.6621,3.7051,3.7972,3.8087,3.7305,3.8653,3.8773,3.7695,3.8125,3.8418,3.8611,3.8611,3.8611,3.8611,3.8611,3.8611,3.8611,3.8611,3.8611,3.8594,3.8867,3.9394,4.0059,4.0391,4.0684,4.0957,4.1152,4.1211,4.1211,4.1211,4.1211,4.1211,4.1211,4.1211,4.1211,4.1211,4.1211,4.1211,4.1211,4.1211,4.1211,4.1211,4.1211,4.1211,4.1211,4.1211,4.1211,4.1211,4.1211,4.1211,4.1211,4.1211,4.1211,4.1211,4.1211,4.1211,4.1211,4.1211,4.1424,4.2023,4.2062,4.2887,4.4854,4.61,4.7411,4.8802,4.909,4.9652,5.066,5.0696,5.0696,5.0696,5.0696,5.0696,5.0696,5.0696,5.0696,5.0696,5.0696,5.0696,2.8132,2.8933,2.9755,3.043,3.0762,3.1191,3.2305,3.2676,3.2871,3.3144,3.3535,3.3965,3.4414,3.5215,3.5723,0.0,3.5742,3.5982,3.5982,3.5982,3.5982,3.5982,3.5982,3.5982,3.5982,3.5982,3.604,3.6211,3.6655,3.7106,3.7544,3.8047,3.847,3.8917,3.9439,3.9292,3.8421,3.9268,3.918,3.8125,3.8437,3.8611,3.8611,3.8611,3.8611,3.8611,3.8611,3.8611,3.8611,3.8611,3.8652,3.8809,3.9258,3.9883,4.0508,4.0684,4.0918,4.1211,4.1211,4.1211,4.1211,4.1211,4.1211,4.1211,4.1211,4.1211,4.1211,4.1211,4.1211,4.1211,4.1211,4.1211,4.1211,4.1211,4.1211,4.1211,4.1211,4.1211,4.1211,4.1211,4.1211,4.1211,4.1211,4.1211,4.1211,4.1211,4.1211,4.1211,4.1211,4.1211,4.1405,4.1869,4.2848,4.4121,4.5788,4.6824,4.8127,4.9854,4.9401,4.9544,5.066,5.0696,5.0696,5.0696,5.0696,5.0696,5.0696,5.0696,5.0696,5.0696,5.0696,5.0696,2.9364,2.9598,2.9931,3.1191,3.1211,3.1348,3.2996,3.3105,3.3047,3.3938,3.4414,3.4844,3.5312,3.5391,3.5391,3.5391,3.5742,3.5982,3.5982,3.5982,3.5982,3.5982,3.5982,3.5982,3.6035,3.6035,3.6211,3.6675,3.8064,3.908,3.9502,4.0992,4.1987,4.2379,4.0974,4.04,4.0764,3.9333,3.8611,3.8611,3.8611,3.8611,3.8611,3.8611,3.8611,3.8611,3.8611,3.8611,3.8611,3.8611,3.8828,3.9258,3.9726,4.0156,4.0547,4.1016,4.1211,4.1211,4.1211,4.1211,4.1211,4.1211,4.1211,4.1211,4.1211,4.1211,4.1211,4.1211,4.1211,4.1211,4.1211,4.1211,4.1211,4.1211,4.1211,4.1211,4.1211,4.1211,4.1211,4.1211,4.1211,4.1211,4.1211,4.1211,4.1211,4.1211,4.1211,4.1211,4.125,4.125,4.185,4.3362,4.6381,4.7631,4.6085,4.8838,4.9997,4.8417,4.9818,5.0696,5.0696,5.0696,5.0696,5.0696,5.0696,5.0696,5.0696,5.0696,5.0696,5.0696,5.0696,5.0696,2.8887,2.9785,3.0615,3.0976,3.1875,3.2793,3.3269,3.332,3.3574,3.4766,3.5098,3.5234,3.5371,3.5625,0.0,3.5449,3.5742,3.5982,3.5982,3.5982,3.5982,3.5982,3.5982,3.6133,3.6445,3.6484,3.709,3.856,3.9076,3.9948,4.1478,4.1978,4.1921,4.1278,4.186,4.1221,3.9281,3.9874,3.9622,3.8611,3.8611,3.8611,3.8611,3.8611,3.8611,3.8611,3.8611,3.8611,3.863,3.8887,3.9277,3.9726,4.0176,4.0605,4.0996,4.1172,4.1211,4.1211,4.1211,4.1211,4.1211,4.1211,4.1211,4.1211,4.1211,4.1211,4.1211,4.1211,4.1211,4.1211,4.1211,4.1211,4.1211,4.1211,4.1211,4.1211,4.1211,4.1211,4.1211,4.1211,4.1211,4.1211,4.1211,4.1211,4.1211,4.1211,4.2139,4.3248,4.4365,4.4515,4.4666,4.5132,4.6026,4.6898,4.7521,4.8453,4.927,4.9961,5.0448,5.0696,5.0696,5.0696,5.0696,5.0696,5.0696,5.0696,5.0696,5.0696,5.0696,5.0696,5.0696,5.0696,2.9668,3.0527,3.1309,3.2022,3.2793,3.3523,3.4082,3.4199,3.4473,3.5449,3.5644,3.5644,3.5644,3.5859,0.0,3.5684,3.5859,3.5982,3.5982,3.5982,3.5982,3.5982,3.6172,3.6387,3.6675,3.7386,3.8373,3.9702,4.0874,4.2126,4.3486,4.3542,4.3265,4.2613,4.2298,4.1261,3.9478,3.9766,3.9478,3.8611,3.8611,3.8611,3.8611,3.8611,3.8611,3.8611,3.8611,3.8611,3.865,3.9023,3.9473,3.9941,4.0351,4.0781,4.1211,4.1211,4.1211,4.1211,4.1211,4.1211,4.1211,4.1211,4.1211,4.1211,4.1211,4.1211,4.1211,4.1211,4.1211,4.1211,4.1211,4.1211,4.1211,4.1211,4.1211,4.1211,4.1211,4.1211,4.1211,4.1211,4.1211,4.1211,4.1211,4.1211,4.1405,4.2023,4.3439,4.4795,4.5766,4.6455,4.6861,4.6861,4.7411,4.82,4.9162,4.9234,4.9652,5.0625,5.0696,5.0696,5.0696,5.0696,5.0696,5.0696,5.0696,5.0696,5.0696,5.0696,5.0696,5.0696,5.0696,5.0696,3.1074,3.1484,3.1973,3.3613,3.3809,3.3926,3.5176,3.5449,3.5566,3.5903,3.5982,3.5982,3.5982,3.5982,3.5982,3.5982,3.5982,3.5982,3.5982,3.6055,3.604,3.604,3.6602,3.6981,3.702,3.8669,4.0014,4.0613,4.3149,4.484,4.5289,4.5312,4.5244,4.5085,4.2298,4.08,4.08,3.9353,3.8611,3.8611,3.8611,3.8611,3.8611,3.8611,3.8611,3.8611,3.865,3.8669,3.8708,3.9141,3.957,4.0,4.041,4.082,4.1211,4.1211,4.1211,4.1211,4.1211,4.1211,4.1211,4.1211,4.1211,4.1211,4.1211,4.1211,4.1211,4.1211,4.1211,4.1211,4.1211,4.1211,4.1211,4.1211,4.1211,4.1211,4.1211,4.1211,4.1211,4.1211,4.1211,4.1211,4.1211,4.1327,4.1907,4.3515,4.5095,4.61,4.61,4.7521,4.8526,4.8526,4.983,5.0696,5.0696,5.0696,5.0696,5.0696,5.0696,5.0696,5.0696,5.0696,5.0696,5.0696,5.0696,5.0696,5.0696,5.0696,5.0696,5.0696,5.0744,5.0768,3.0312,3.123,3.2296,3.3301,3.4277,3.5137,3.5742,3.5879,3.5918,3.5962,3.5982,3.5982,3.5982,3.5982,3.5982,3.5982,3.5982,3.5982,3.5982,3.6309,3.6558,3.6558,3.7949,3.904,3.9409,4.0846,4.2445,4.4062,4.4789,4.5197,4.5312,4.5312,4.4744,4.3517,4.1735,4.08,4.08,3.9353,3.8611,3.8611,3.8611,3.8611,3.8611,3.8611,3.8611,3.863,3.8926,3.9062,3.9121,3.9922,4.0293,4.043,4.0859,4.1094,4.1211,4.1211,4.1211,4.1211,4.1211,4.1211,4.1211,4.1211,4.1211,4.1211,4.1211,4.1211,4.1211,4.1211,4.1211,4.1211,4.1211,4.1211,4.1211,4.1211,4.1211,4.1211,4.1211,4.1211,4.1211,4.1211,4.1211,4.1211,4.1211,4.2216,4.3553,4.5132,4.6751,4.7777,4.7777,4.9198,5.0175,5.0175,5.0483,5.0696,5.0696,5.0696,5.0696,5.0696,5.0696,5.0696,5.0696,5.0696,5.0696,5.0696,5.0696,5.0696,5.0696,5.0696,5.0696,5.072,5.1129,5.1321,3.0605,3.1484,3.2492,3.373,3.4863,3.5742,3.5942,3.5982,3.5982,3.5982,3.5982,3.5982,3.5982,3.5982,3.5982,3.5982,3.6191,3.6328,3.6328,3.6699,3.7232,3.7975,3.9101,4.0215,4.1175,4.277,4.4199,4.5221,4.5978,4.6348,4.6348,4.4983,4.3828,4.3032,4.0871,3.9766,3.9766,3.8991,3.8611,3.8611,3.8826,3.8984,3.9199,3.8984,3.9004,3.9219,3.9434,3.9531,3.959,4.0254,4.0489,4.0566,4.0996,4.1211,4.1211,4.1211,4.1211,4.1211,4.1211,4.1211,4.1211,4.1211,4.1211,4.1211,4.1211,4.1211,4.1211,4.1211,4.1211,4.1211,4.1211,4.1211,4.1211,4.1211,4.1211,4.1211,4.1211,4.1211,4.1211,4.1211,4.1211,4.1211,4.1211,4.2465,4.4063,4.5655,4.7265,4.8562,4.9365,5.0175,5.0696,5.0696,5.0696,5.0696,5.0696,5.0696,5.0696,5.0696,5.0696,5.0816,5.1081,5.1081,5.096,5.072,5.096,5.1081,5.1081,5.1345,5.1465,5.1465,5.173,5.1874,3.1094,3.1934,3.2883,3.4336,3.5371,3.5982,3.5982,3.5982,3.5982,3.5982,3.5982,3.5982,3.5982,3.5982,3.6035,3.6113,3.6445,3.6734,3.6792,3.7374,3.8262,3.9475,4.0494,4.1567,4.2784,4.4381,4.5414,4.5651,4.655,4.7108,4.7108,4.4482,4.2997,4.2997,4.0141,3.872,3.8991,3.872,3.865,3.8728,3.9121,3.9551,4.0,3.9609,3.9609,3.9902,3.9961,4.0,4.0039,4.0469,4.0644,4.0664,4.1035,4.1211,4.1211,4.1211,4.1211,4.1211,4.1211,4.1211,4.1211,4.1211,4.1211,4.1211,4.1211,4.1211,4.1211,4.1211,4.1211,4.1211,4.1211,4.1211,4.1211,4.1211,4.1211,4.1211,4.1211,4.1211,4.1211,4.1211,4.1211,4.1288,4.154,4.2866,4.4365,4.5692,4.7521,4.909,5.0139,5.0519,5.0696,5.0696,5.0696,5.0696,5.0696,5.0792,5.084,5.084,5.0912,5.1177,5.161,5.1634,5.1417,5.0984,5.1393,5.1634,5.1634,5.2067,5.232,5.232,5.2379,5.2464,3.082,3.2363,3.3997,3.4551,3.5371,3.5982,3.5982,3.5982,3.5982,3.5982,3.5982,3.5982,3.5982,3.5982,3.6152,3.6523,3.6675,3.6832,3.7168,3.8703,3.9879,4.0089,4.2764,4.4687,4.4891,4.5164,4.5843,4.7132,4.6214,4.5583,4.5583,4.3932,4.2997,4.2997,4.0141,3.9208,4.0499,3.9245,3.875,3.9121,3.959,4.0019,4.043,4.0333,4.0176,3.9922,4.0273,4.043,4.0469,4.0918,4.1132,4.1094,4.1191,4.1211,4.1211,4.1211,4.1211,4.1211,4.1211,4.1211,4.1211,4.1211,4.1211,4.1211,4.1211,4.1211,4.1211,4.1211,4.1211,4.1211,4.1211,4.1211,4.1211,4.1211,4.1211,4.1211,4.1211,4.1211,4.1211,4.1211,4.1211,4.1618,4.2943,4.4515,4.5655,4.5878,4.8453,4.9961,4.8766,4.983,5.0696,5.0696,5.0696,5.0696,5.0696,5.1129,5.1393,5.1393,5.1826,5.2127,5.2199,5.2187,5.2175,5.2103,5.2175,5.2187,5.2187,5.2295,5.232,5.232,5.2801,5.2993,3.1319,3.2843,3.4212,3.459,3.5371,3.5982,3.5982,3.5982,3.5982,3.5982,3.5982,3.5982,3.5982,3.5982,3.6152,3.6636,3.691,3.7483,3.8758,3.9854,4.1179,4.2864,4.3614,4.4367,4.521,4.4538,4.4641,4.6147,4.5651,4.5312,4.5312,4.3828,4.2613,4.1806,3.973,3.9,3.9874,3.9236,3.9258,3.9941,4.0156,4.0469,4.0879,4.0879,4.0781,4.0625,4.0801,4.0879,4.0898,4.1094,4.1211,4.1211,4.1211,4.1211,4.1211,4.1211,4.1211,4.1211,4.1211,4.1211,4.1211,4.1211,4.1211,4.1211,4.1211,4.1211,4.1211,4.1211,4.1211,4.1211,4.1211,4.1211,4.1211,4.1211,4.1211,4.1211,4.1211,4.1211,4.1211,4.1211,4.1211,4.1444,4.21,4.281,4.3553,4.444,4.6529,4.8091,4.8272,4.9688,5.0816,5.1105,5.1153,5.1273,5.1562,5.1802,5.1922,5.1922,5.2163,5.2403,5.2753,5.2753,5.286,5.3149,5.286,5.2753,5.2753,5.3004,5.3149,5.3149,5.3389,5.3485,3.1612,3.2883,3.3899,3.4414,3.5215,3.5845,3.5962,3.5982,3.5982,0.0,3.5982,3.5982,3.5982,3.5982,3.6191,3.6773,3.709,3.7885,3.9536,4.038,4.163,4.3885,4.3483,4.3621,4.5142,4.3897,4.3794,4.5718,4.5515,4.5312,4.5312,4.3828,4.2333,4.0835,3.9389,3.8769,3.9199,3.9434,3.9863,4.0489,4.0644,4.0859,4.1211,4.1211,4.1211,4.1211,4.1211,4.1211,4.1211,4.1211,4.1211,4.1211,4.1211,4.1211,4.1211,4.1211,4.1211,4.1211,4.1211,4.1211,4.1211,4.1211,4.1211,4.1211,4.1211,4.1211,4.1211,4.1211,4.1211,4.1211,4.1211,4.1211,4.1211,4.1211,4.1211,4.1211,4.1211,4.1211,4.1211,4.1211,4.1211,4.1211,4.1211,4.154,4.2331,4.3873,4.5577,4.7298,4.8915,5.0269,5.1249,5.1658,5.1682,5.185,5.2295,5.2403,5.2512,5.2512,5.2632,5.2836,5.3282,5.3306,5.3437,5.3785,5.3461,5.3306,5.3269,5.363,5.3785,5.3785,5.3785,5.3785,3.1309,3.2187,3.3066,3.3938,3.4798,3.5527,3.5903,3.5982,3.5982,3.5982,3.5982,3.5982,3.5982,3.5982,3.6289,3.7129,3.7285,3.7614,3.8563,3.9926,4.0871,4.1013,4.2193,4.3621,4.5142,4.3897,4.4207,4.7141,4.6079,4.5312,4.5312,4.3828,4.2333,4.0835,3.9389,3.8769,3.9199,4.0039,4.0469,4.0489,4.0937,4.1191,4.1211,4.1211,4.1211,4.1211,4.1211,4.1211,4.1211,4.1211,4.1211,4.1211,4.1211,4.1211,4.1211,4.1211,4.1211,4.1211,4.1211,4.1211,4.1211,4.1211,4.1211,4.1211,4.1211,4.1211,4.1211,4.1211,4.1211,4.1211,4.1211,4.1211,4.1211,4.1211,4.1211,4.1211,4.1211,4.1211,4.1211,4.1211,4.1211,4.1211,4.1211,4.2388,4.3911,4.5543,4.7596,4.9521,5.1154,5.1862,5.2247,5.2271,5.2271,5.2295,5.232,5.2777,5.3066,5.3066,5.3485,5.3712,5.3737,5.3737,5.3798,5.3785,5.3798,5.3737,5.3737,5.3798,5.3785,5.3785,5.3785,5.3785,3.1367,3.2148,3.293,3.3516,3.4531,3.543,3.5586,3.582,3.5982,3.5982,3.5982,3.5982,3.5982,3.5982,3.6211,3.6832,3.7129,3.7834,3.9404,4.0314,4.1155,4.2087,4.2683,4.324,4.3759,4.3309,4.3448,4.4516,4.4104,4.3414,4.2438,4.1876,4.0906,3.9442,3.9121,3.9316,4.0039,4.0644,4.0937,4.0937,4.1132,4.1211,4.1211,4.1211,4.1211,4.1211,4.1211,4.1211,4.1211,4.1211,4.1211,4.1211,4.1211,4.1211,4.1211,4.1211,4.1211,4.1211,4.1211,4.1211,4.1211,4.1211,4.1211,4.1211,4.1211,4.1211,4.1211,4.1211,4.1211,4.1211,4.1211,4.1211,4.1211,4.1211,4.1211,4.1211,4.1211,4.1211,4.1211,4.1211,4.1211,4.1211,4.1211,4.2784,4.4197,4.4808,4.758,4.9808,5.0386,5.1554,5.244,5.2801,5.2825,5.2969,5.3245,5.3437,5.3558,5.3558,5.3726,5.3785,5.3785,5.3785,5.3785,5.3785,5.3785,5.3785,5.3785,5.3785,5.3785,5.3785,5.3785,5.3785,3.1191,3.1836,3.25,3.3066,3.3984,3.4844,3.5293,3.5605,3.5859,3.5962,3.5982,3.5982,3.5982,3.5982,3.6152,3.6636,3.7031,3.7794,3.9217,4.0212,4.1155,4.2158,4.2718,4.3205,4.3725,4.3759,4.3759,4.3759,4.3759,0.0,4.0906,4.08,4.0166,3.8843,3.9199,3.9785,4.0469,4.0957,4.1211,4.1211,4.1211,4.1211,4.1211,4.1211,4.1211,4.1211,4.1211,4.1211,4.1211,4.1211,4.1211,4.1211,4.1211,4.1211,4.1211,4.1211,4.1211,4.1211,4.1211,4.1211,4.1211,4.1211,4.1211,4.1211,4.1211,4.1211,4.1211,4.1211,4.1211,4.1211,4.1211,4.1211,4.1211,4.1211,4.1211,4.1211,4.1211,4.1211,4.1211,4.1211,4.1328,4.1387,4.1387,4.3128,4.4714,4.5233,4.8091,5.0377,5.09,5.2017,5.2932,5.3293,5.3317,5.3461,5.3798,5.3785,5.3785,5.3785,5.3785,5.3785,5.3785,5.3785,5.3785,5.3785,5.3785,5.3785,5.3785,5.3785,5.3785,5.3785,5.3785,5.3785,0.0,0.0,0.0,3.2559,3.3086,3.3718,3.5039,3.5371,3.5508,3.5884,3.5982,3.5982,3.5982,3.5982,3.6152,3.6616,3.7012,3.7422,3.7832,3.9515,4.0743,4.0779,4.2052,4.3552,4.5108,4.5244,4.521,4.5176,4.5176,4.3885,4.0871,4.0728,4.0273,3.9236,3.9668,4.0098,4.0508,4.0957,4.1211,4.1211,4.1211,4.1211,4.1211,4.1211,4.1211,4.1211,4.1211,4.1211,4.1211,4.1211,4.1211,4.1211,4.1211,4.1211,4.1211,4.1211,4.1211,4.1211,4.1211,4.1211,4.1211,4.1211,4.1211,4.1211,4.1211,4.1211,4.1211,4.1211,4.1211,4.1211,4.1211,4.1211,4.1211,4.1211,4.1211,4.1211,4.123,4.123,4.123,4.123,4.1523,4.1816,4.1816,4.3632,4.5601,4.7088,4.929,5.1361,5.2928,5.351,5.3785,5.3785,5.3785,5.3785,5.3785,5.3785,5.3785,5.3785,5.3785,5.3785,5.3785,5.3785,5.3785,5.3785,5.3785,5.3785,5.3785,5.3785,5.3785,5.3785,5.3785,5.3785,3.0859,0.0,0.0,0.0,0.0,0.0,0.0,0.0,3.543,3.5547,3.5801,3.5982,3.5982,3.5982,3.6021,3.6172,3.6562,3.6894,3.7047,3.7992,3.9104,4.0218,4.0982,4.1982,4.3483,4.3621,4.3205,0.0,4.2017,4.1226,3.9317,3.9208,3.9346,3.9687,3.9824,4.0254,4.0976,4.1152,4.1211,4.1211,4.1211,4.1211,4.1211,4.1211,4.1211,4.1211,4.1211,4.1211,4.1211,4.1211,4.1211,4.1211,4.1211,4.1211,4.1211,4.1211,4.1211,4.1211,4.1211,4.1211,4.1211,4.1211,4.1211,4.1211,4.1211,4.1211,4.1211,4.1211,4.1211,4.1211,4.1211,4.1211,4.1211,4.1211,4.1211,4.1289,4.1562,4.1621,4.1621,4.1621,4.1973,4.2206,4.2206,4.5006,4.7394,4.782,5.0765,5.3094,5.3531,5.3726,5.3785,5.3785,5.3785,5.3785,5.3785,5.3785,5.3785,5.3785,5.3785,5.3785,5.3785,5.3785,5.3785,5.3785,5.3785,5.3785,5.3785,5.3785,5.3785,5.3785,5.3785,5.3785,3.0898,3.1074,3.1289,3.1465,0.0,0.0,3.3535,3.4297,3.5,0.0,3.5859,3.5982,3.5982,3.5982,3.5982,3.5982,3.623,3.6465,3.6675,3.7788,3.895,4.0081,4.0962,4.1874,4.2905,4.2997,4.2403,4.0906,4.08,4.0141,3.8683,3.8611,3.8984,3.9863,3.9902,4.0312,4.1211,4.1211,4.1211,4.1211,4.1211,4.1211,4.1211,4.1211,4.1211,4.1211,4.1211,4.1211,4.1211,4.1211,4.1211,4.1211,4.1211,4.1211,4.1211,4.1211,4.1211,4.1211,4.1211,4.1211,4.1211,4.1211,4.1211,4.1211,4.1211,4.1211,4.1211,4.1211,4.1211,4.1211,4.1211,4.1211,4.1211,4.1211,4.1348,4.1504,4.1758,4.209,4.2285,4.209,4.2402,4.2695,4.2695,4.5282,4.7576,4.8283,5.0879,5.2982,5.3709,5.3785,5.3785,5.3785,5.3785,5.3785,5.3785,5.3785,5.3785,5.3785,5.3785,5.3785,5.3785,5.3785,5.3785,5.3785,5.3785,5.3785,5.3785,5.3785,5.3785,5.3785,5.3785,5.3785,3.0898,3.0898,3.0976,3.1348,0.0,0.0,3.3469,3.3899,3.431,0.0,3.5728,3.5854,3.6029,3.6062,3.6062,3.6062,3.6121,3.6264,3.6577,3.8093,3.9399,3.9986,4.1124,0.0,4.2623,4.2527,4.1918,4.0657,4.0571,3.9962,3.8683,3.8611,3.8984,3.9863,3.9902,4.0312,4.1211,4.1211,4.1211,4.1211,4.1211,4.1211,4.1211,4.1211,4.1211,4.1211,4.1211,4.1211,4.1211,4.1211,4.1211,4.1211,4.1211,4.1211,4.1211,4.1211,4.1211,4.1211,4.1211,4.1211,4.1211,4.1211,4.1211,4.1211,4.1211,4.1211,4.1211,4.1211,4.1211,4.1211,4.1211,4.1211,4.123,4.1269,4.1523,4.1816,4.1914,4.2539,4.2969,4.2637,4.2871,4.3185,4.3185,4.4927,4.6888,4.8539,5.0226,5.1931,5.3572,5.3785,5.3785,5.3785,5.3785,5.3785,5.3785,5.3785,5.3785,5.3785,5.3785,5.3785,5.3785,5.3785,5.3785,5.3785,5.3785,5.3785,5.3785,5.3785,5.3785,5.3785,5.3785,5.3785,3.0976,3.0898,3.0918,0.0,0.0,0.0,3.1934,3.2559,3.3203,0.0,3.4199,3.4909,3.6302,3.6558,3.6558,3.6558,3.6852,3.683,3.621,3.6779,3.7731,3.9006,0.0,0.0,4.0605,3.9627,3.8919,3.9007,3.9027,3.8882,3.8611,3.8611,3.8984,3.9863,3.9902,4.0312,4.1211,4.1211,4.1211,4.1211,4.1211,4.1211,4.1211,4.1211,4.1211,4.1211,4.1211,4.1211,4.1211,4.1211,4.1211,4.1211,4.1211,4.1211,4.1211,4.1211,4.1211,4.1211,4.1211,4.1211,4.1211,4.1211,4.1211,4.1211,4.1211,4.1211,4.1211,4.1211,4.1211,4.1211,4.1211,4.1211,4.1289,4.1601,4.1738,4.1992,4.2676,4.2969,4.3144,4.3398,4.3516,4.3574,4.3574,4.5088,4.6888,4.8539,5.0226,5.1931,5.3572,5.3785,5.3785,5.3785,5.3785,5.3785,5.3785,5.3785,5.3785,5.3785,5.3785,5.3785,5.3785,5.3785,5.3785,5.3785,5.3785,5.3785,5.3785,5.3785,5.3785,5.3785,5.3785,5.3785,0.0,0.0,0.0,3.0898,0.0,0.0,0.0,0.0,3.2656,3.3301,3.408,3.4992,3.6149,3.6845,3.7118,3.6744,3.7038,3.6856,3.5552,0.0,0.0,0.0,0.0,0.0,3.8633,3.8256,3.8105,3.8571,3.8611,3.8611,3.8611,3.8611,3.8867,3.9531,3.9766,4.0195,4.084,4.1074,4.1211,4.1211,4.1211,4.1211,4.1211,4.1211,4.1211,4.1211,4.1211,4.1211,4.1211,4.1211,4.1211,4.1211,4.1211,4.1211,4.1211,4.1211,4.1211,4.1211,4.1211,4.1211,4.1211,4.1211,4.1211,4.1211,4.1211,4.1211,4.1211,4.1211,4.1211,4.1211,4.1211,4.1367,4.1543,4.1758,4.2129,4.2558,4.3029,4.3242,4.3457,4.3672,4.3711,4.3711,4.3711,4.5148,4.6888,4.8539,5.0226,5.1931,5.3572,5.3785,5.3785,5.3785,5.3785,5.3785,5.3785,5.3785,5.3785,5.3785,5.3785,5.3785,5.3785,5.3785,5.3785,5.3785,5.3785,5.3785,5.3785,5.3785,5.3785,5.3785,5.3785,5.3785,0.0,0.0,0.0,0.0,0.0,3.1074,0.0,0.0,0.0,0.0,0.0,0.0,0.0,0.0,0.0,0.0,0.0,0.0,0.0,0.0,0.0,0.0,0.0,0.0,3.7012,3.75,3.7988,3.8418,3.8493,3.8476,3.8611,3.8611,3.8769,3.9199,3.9648,4.0098,4.0527,4.0957,4.1211,4.1211,4.1211,4.1211,4.1211,4.1211,4.1211,4.1211,4.1211,4.1211,4.1211,4.1211,4.1211,4.1211,4.1211,4.1211,4.1211,4.1211,4.1211,4.1211,4.1211,4.1211,4.1211,4.1211,4.1211,4.1211,4.1211,4.1211,4.1211,4.1211,4.1211,4.123,4.1308,4.1543,4.1836,4.2012,4.2578,4.3105,4.3183,4.3457,4.3711,4.3711,4.3711,4.3711,4.3711,4.5148,4.6888,4.8539,5.0226,5.1931,5.3572,5.3785,5.3785,5.3785,5.3785,5.3785,5.3785,5.3785,5.3785,5.3785,5.3785,5.3785,5.3785,5.3785,5.3785,5.3785,5.3785,5.3785,5.3785,5.3785,5.3785,5.3785,5.3785,5.3785,0.0,0.0,0.0,0.0,3.0898,0.0,0.0,0.0,0.0,0.0,0.0,0.0,0.0,0.0,0.0,0.0,0.0,0.0,0.0,0.0,0.0,0.0,0.0,0.0,0.0,3.6894,3.7539,3.7969,3.7988,3.8164,3.8591,3.8611,3.8769,3.9199,3.9648,4.0098,4.0527,4.0957,4.1211,4.1211,4.1211,4.1211,4.1211,4.1211,4.1211,4.1211,4.1211,4.1211,4.1211,4.1211,4.1211,4.1211,4.1211,4.1211,4.1211,4.1211,4.1211,4.1211,4.1211,4.1211,4.1211,4.1211,4.1211,4.1211,4.1211,4.1211,4.1211,4.1211,4.1211,4.1289,4.1641,4.1758,4.1992,4.2754,4.3048,4.3183,4.3555,4.3672,4.3711,4.3711,4.3711,4.3711,4.3711,4.5148,4.6888,4.8539,5.0226,5.1931,5.3572,5.3785,5.3785,5.3785,5.3785,5.3785,5.3785,5.3785,5.3785,5.3785,5.3785,5.3785,5.3785,5.3785,5.3785,5.3785,5.3785,5.3785,5.3785,5.3785,5.3785,5.3785,5.3785,5.3785,0.0,0.0,0.0,0.0,0.0,0.0,3.1016,0.0,3.0937,0.0,0.0,0.0,0.0,0.0,0.0,0.0,0.0,0.0,0.0,0.0,0.0,0.0,0.0,0.0,0.0,0.0,0.0,0.0,3.7894,3.8105,3.8591,3.8611,3.8689,3.8828,3.9258,3.9707,4.0156,4.0586,4.0918,4.1211,4.1211,4.1211,4.1211,4.1211,4.1211,4.1211,4.1211,4.1211,4.1211,4.1211,4.1211,4.1211,4.1211,4.1211,4.1211,4.1211,4.1211,4.1211,4.1211,4.1211,4.1211,4.1211,4.1211,4.1211,4.1211,4.1211,4.1211,4.1211,4.1348,4.1582,4.1758,4.2168,4.2637,4.2988,4.3262,4.3496,4.3672,4.3711,4.3711,4.3711,4.4514,4.523,4.523,4.6606,4.8302,4.9992,5.1678,5.2982,5.3709,5.3785,5.3785,5.3785,5.3785,5.3785,5.3785,5.3785,5.3785,5.3785,5.3785,5.3785,5.3785,5.3785,5.3785,5.3785,5.3785,5.3785,5.3785,5.3785,5.3785,5.3785,5.3785,5.3991,3.2207,0.0,0.0,0.0,0.0,0.0,0.0,0.0,0.0,0.0,0.0,0.0,0.0,0.0,0.0,0.0,0.0,0.0,0.0,0.0,0.0,0.0,0.0,0.0,0.0,0.0,0.0,0.0,0.0,3.7949,3.8379,3.8552,3.8611,3.8611,3.8984,3.9434,3.9883,4.0312,4.0742,4.1211,4.1211,4.1211,4.1211,4.1211,4.1211,4.1211,4.1211,4.1211,4.1211,4.1211,4.1211,4.1211,4.1211,4.1211,4.1211,4.1211,4.1211,4.1211,4.1211,4.1211,4.1211,4.1211,4.1211,4.1211,4.1211,4.1211,4.123,4.1348,4.1562,4.1855,4.209,4.2617,4.3146,4.3223,4.3476,4.3711,4.3711,4.3711,4.3711,4.3711,4.5108,4.6466,4.6888,4.8381,4.9914,5.1139,5.2717,5.3785,5.3785,5.3785,5.3785,5.3785,5.3785,5.3785,5.3785,5.3785,5.3785,5.3785,5.3785,5.3785,5.3785,5.3785,5.3785,5.3785,5.3785,5.3785,5.3785,5.3785,5.3894,5.4039,5.4039,5.4231,0.0,0.0,0.0,3.1719,0.0,0.0,0.0,0.0,3.0898,0.0,0.0,0.0,0.0,0.0,0.0,3.1891,0.0,0.0,0.0,0.0,0.0,0.0,0.0,0.0,0.0,0.0,0.0,0.0,0.0,0.0,3.7894,3.834,3.8611,3.8611,3.8984,3.9434,3.9883,4.0312,4.0742,4.1211,4.1211,4.1211,4.1211,4.1211,4.1211,4.1211,4.1211,4.1211,4.1211,4.1211,4.1211,4.1211,4.1211,4.1211,4.1211,4.1211,4.1211,4.1211,4.1211,4.1211,4.1211,4.1211,4.1211,4.1211,4.1211,4.1211,4.1289,4.166,4.1797,4.1992,4.2812,4.3087,4.3183,4.3594,4.3691,4.3711,4.3711,4.3711,4.3711,4.3711,4.5108,4.6807,4.8421,5.0109,5.1255,5.1293,5.2717,5.3785,5.3785,5.3785,5.3785,5.3785,5.3785,5.3785,5.3785,5.3785,5.3785,5.3785,5.3785,5.3785,5.3785,5.3785,5.3785,5.3785,5.3785,5.3785,5.3785,5.3785,5.4087,5.4592,5.4592,5.4592,0.0,0.0,3.416,3.2715,0.0,0.0,0.0,0.0,0.0,0.0,0.0,0.0,0.0,0.0,3.2079,3.1205,0.0,0.0,0.0,0.0,0.0,0.0,0.0,0.0,0.0,0.0,0.0,0.0,0.0,0.0,0.0,3.834,3.8611,3.8611,3.8747,3.9004,3.9434,3.9883,4.0312,4.0742,4.1035,4.1211,4.1211,4.1211,4.1211,4.1211,4.1211,4.1211,4.1211,4.1211,4.1211,4.1211,4.1211,4.1211,4.1211,4.1211,4.1211,4.1211,4.1211,4.1211,4.1211,4.1211,4.1211,4.1211,4.1211,4.1406,4.1621,4.1758,4.2207,4.2715,4.3008,4.3281,4.3535,4.3672,4.3711,4.3711,4.3711,4.3711,4.3711,4.3711,4.6001,4.8143,4.8697,5.1101,5.2944,5.2944,5.3422,5.3785,5.3785,5.3785,5.3785,5.3785,5.3785,5.3785,5.3785,5.3785,5.3785,5.3785,5.3785,5.3785,5.3785,5.3785,5.3785,5.3785,5.3785,5.3785,5.3785,5.4183,5.4423,5.4616,5.5323,5.5635,3.4297,3.4707,0.0,3.3574,3.3672,0.0,3.2305,0.0,0.0,0.0,0.0,0.0,0.0,0.0,0.0,3.1289,0.0,0.0,0.0,0.0,0.0,0.0,0.0,0.0,0.0,0.0,0.0,0.0,0.0,0.0,0.0,0.0,3.8418,3.8611,3.8611,3.8769,3.9199,3.9668,4.0098,4.0489,4.0976,4.1211,4.1211,4.1211,4.1211,4.1211,4.1211,4.1211,4.1211,4.1211,4.1211,4.1211,4.1211,4.1211,4.1211,4.1211,4.1211,4.1211,4.1211,4.1211,4.1211,4.1211,4.1211,4.125,4.1348,4.1582,4.1836,4.1973,4.2539,4.3127,4.3127,4.3398,4.3711,4.3711,4.3711,4.3711,4.3711,4.3711,4.3856,4.4494,4.6888,4.8973,4.9601,5.1969,5.3785,5.3785,5.3785,5.3785,5.3785,5.3785,5.3785,5.3785,5.3785,5.3785,5.3785,5.3785,5.3785,5.3785,5.3785,5.3785,5.3785,5.3785,5.3726,5.3558,5.3726,5.3785,5.3785,5.4351,5.4808,5.5193,5.5875,5.6284]},{"header":{"parameterUnit":"m.s-1","parameterCategory":1,"la1":30.6,"la2":29.2853,"lo1":-89.7004,"lo2":-87.6739,"dx":0.0162,"dy":0.0183,"nx":112,"ny":82,"refTime":"2022-11-02T18:00:00:Z","depth":0,"parameterNumber":3,"parameterNumberName":"V-component_of_WINDS"},"data":[0.0,0.0,0.0,0.0,0.0,0.0,0.0,0.0,0.0,0.0,0.0,0.0,0.0,0.0,0.0,0.0,0.0,0.0,0.0,0.0,0.0,0.0,0.0,0.0,0.0,0.0,0.0,0.0,0.0,0.0,0.0,0.0,0.0,0.0,0.0,0.0,0.0,0.0,0.0,0.0,0.0,0.0,0.0,0.0,0.0,0.0,0.0,0.0,0.0,0.0,0.0,0.0,0.0,0.0,0.0,0.0,0.0,0.0,0.0,0.0,0.0,0.0,0.0,0.0,0.0,0.0,0.0,0.0,0.0,0.0,0.0,0.0,0.0,0.0,0.0,0.0,0.0,0.0,0.0,0.0,0.0,0.0,0.0,0.0,0.0,0.0,0.0,0.0,0.0,0.0,3.5329,3.506,3.4177,3.3449,3.3111,3.2925,3.2973,3.3334,0.0,0.0,0.0,0.0,0.0,0.0,0.0,0.0,0.0,0.0,0.0,0.0,0.0,0.0,0.0,0.0,0.0,0.0,0.0,0.0,0.0,0.0,0.0,0.0,0.0,0.0,0.0,0.0,0.0,0.0,0.0,0.0,0.0,0.0,0.0,0.0,0.0,0.0,0.0,0.0,0.0,0.0,0.0,0.0,0.0,0.0,0.0,0.0,0.0,0.0,0.0,0.0,0.0,0.0,0.0,0.0,0.0,0.0,0.0,0.0,0.0,0.0,0.0,0.0,0.0,0.0,0.0,0.0,0.0,0.0,0.0,0.0,0.0,0.0,0.0,0.0,0.0,0.0,0.0,0.0,0.0,0.0,0.0,0.0,0.0,0.0,0.0,0.0,0.0,0.0,0.0,0.0,0.0,0.0,0.0,0.0,0.0,0.0,0.0,0.0,0.0,0.0,0.0,0.0,3.5336,3.555,3.4379,3.357,3.3507,3.2568,3.2316,3.3094,0.0,0.0,0.0,0.0,0.0,0.0,0.0,0.0,0.0,0.0,0.0,0.0,0.0,0.0,0.0,0.0,0.0,0.0,0.0,0.0,0.0,0.0,0.0,0.0,0.0,0.0,0.0,0.0,0.0,0.0,0.0,0.0,0.0,0.0,0.0,0.0,0.0,0.0,0.0,0.0,0.0,0.0,0.0,0.0,0.0,0.0,0.0,0.0,0.0,0.0,0.0,0.0,0.0,0.0,0.0,0.0,0.0,0.0,0.0,0.0,0.0,0.0,0.0,0.0,0.0,0.0,0.0,0.0,0.0,0.0,0.0,0.0,0.0,0.0,0.0,0.0,0.0,0.0,0.0,0.0,0.0,0.0,0.0,0.0,0.0,0.0,0.0,0.0,0.0,0.0,0.0,0.0,0.0,0.0,0.0,0.0,0.0,0.0,0.0,0.0,0.0,0.0,0.0,3.4301,3.4834,3.5605,3.4717,3.3927,3.3613,3.3091,3.2867,3.3086,3.2913,0.0,0.0,0.0,0.0,0.0,0.0,0.0,0.0,0.0,0.0,0.0,0.0,0.0,0.0,0.0,0.0,0.0,0.0,0.0,0.0,0.0,0.0,0.0,0.0,0.0,0.0,0.0,0.0,0.0,0.0,0.0,0.0,0.0,0.0,0.0,0.0,0.0,0.0,0.0,0.0,0.0,0.0,0.0,0.0,0.0,0.0,0.0,0.0,0.0,0.0,0.0,0.0,0.0,0.0,0.0,0.0,0.0,0.0,0.0,0.0,0.0,0.0,0.0,0.0,0.0,0.0,0.0,0.0,0.0,0.0,0.0,0.0,0.0,0.0,0.0,0.0,0.0,0.0,0.0,0.0,0.0,0.0,0.0,0.0,0.0,0.0,0.0,0.0,0.0,0.0,0.0,0.0,0.0,0.0,0.0,0.0,0.0,0.0,0.0,0.0,0.0,0.0,3.4638,3.4704,3.5339,3.4786,3.4214,3.3822,3.3666,3.3455,3.3088,3.2927,0.0,0.0,0.0,0.0,0.0,0.0,0.0,0.0,0.0,0.0,0.0,0.0,0.0,0.0,0.0,0.0,0.0,0.0,0.0,0.0,0.0,0.0,0.0,0.0,0.0,0.0,0.0,0.0,0.0,0.0,0.0,0.0,0.0,0.0,0.0,0.0,0.0,0.0,0.0,0.0,0.0,0.0,0.0,0.0,0.0,0.0,0.0,0.0,0.0,0.0,0.0,0.0,0.0,0.0,0.0,0.0,0.0,0.0,0.0,0.0,0.0,0.0,0.0,0.0,0.0,0.0,0.0,0.0,0.0,0.0,0.0,0.0,0.0,0.0,0.0,0.0,0.0,0.0,0.0,0.0,0.0,0.0,0.0,0.0,0.0,0.0,0.0,0.0,0.0,0.0,0.0,0.0,0.0,0.0,0.0,0.0,0.0,0.0,0.0,0.0,0.0,0.0,3.5078,3.5435,3.4588,3.4439,3.4371,3.4345,3.3875,3.3443,3.3023,3.2426,0.0,0.0,0.0,0.0,0.0,0.0,0.0,0.0,0.0,0.0,0.0,0.0,0.0,0.0,0.0,0.0,0.0,0.0,0.0,0.0,0.0,0.0,0.0,0.0,0.0,0.0,0.0,0.0,0.0,0.0,0.0,0.0,0.0,0.0,0.0,0.0,0.0,0.0,0.0,0.0,0.0,0.0,0.0,0.0,0.0,0.0,0.0,0.0,0.0,0.0,0.0,0.0,0.0,0.0,0.0,0.0,0.0,0.0,0.0,0.0,0.0,0.0,0.0,0.0,0.0,0.0,0.0,0.0,0.0,0.0,0.0,0.0,0.0,0.0,0.0,0.0,0.0,0.0,0.0,0.0,0.0,0.0,0.0,0.0,0.0,0.0,0.0,0.0,0.0,0.0,0.0,0.0,0.0,0.0,0.0,0.0,0.0,0.0,0.0,0.0,0.0,0.0,3.5536,3.5874,0.0,3.5676,3.5555,3.4501,3.5184,3.4702,3.2515,0.0,0.0,0.0,0.0,0.0,0.0,0.0,0.0,0.0,0.0,0.0,0.0,0.0,0.0,0.0,0.0,0.0,0.0,0.0,0.0,0.0,0.0,0.0,0.0,0.0,0.0,0.0,0.0,0.0,0.0,0.0,0.0,0.0,0.0,0.0,0.0,0.0,0.0,0.0,0.0,0.0,0.0,0.0,0.0,0.0,0.0,0.0,0.0,0.0,0.0,0.0,0.0,0.0,0.0,0.0,0.0,0.0,0.0,0.0,0.0,0.0,0.0,0.0,0.0,0.0,0.0,0.0,0.0,0.0,0.0,0.0,0.0,0.0,0.0,0.0,0.0,0.0,0.0,0.0,0.0,0.0,0.0,0.0,0.0,0.0,0.0,0.0,0.0,0.0,0.0,0.0,0.0,0.0,0.0,0.0,0.0,0.0,0.0,0.0,0.0,0.0,0.0,3.4905,3.6041,3.6652,0.0,3.6562,3.6444,3.5291,3.6247,3.5711,3.2882,0.0,0.0,0.0,0.0,0.0,0.0,0.0,0.0,0.0,0.0,0.0,0.0,0.0,0.0,0.0,0.0,0.0,0.0,0.0,0.0,0.0,0.0,0.0,0.0,0.0,0.0,0.0,0.0,0.0,0.0,0.0,0.0,0.0,0.0,0.0,0.0,0.0,0.0,0.0,0.0,0.0,0.0,0.0,0.0,0.0,0.0,0.0,0.0,0.0,0.0,0.0,0.0,0.0,0.0,0.0,0.0,0.0,0.0,0.0,0.0,0.0,0.0,0.0,0.0,0.0,0.0,0.0,0.0,0.0,0.0,0.0,0.0,0.0,0.0,0.0,0.0,0.0,0.0,0.0,0.0,0.0,0.0,0.0,0.0,0.0,0.0,0.0,0.0,0.0,0.0,0.0,0.0,0.0,0.0,0.0,0.0,0.0,0.0,0.0,0.0,0.0,0.0,3.4395,3.6552,3.7891,3.7011,3.6933,3.6933,3.6914,3.6933,3.6164,0.0,0.0,0.0,0.0,0.0,0.0,0.0,0.0,0.0,0.0,0.0,0.0,0.0,0.0,0.0,0.0,0.0,0.0,0.0,0.0,0.0,0.0,0.0,0.0,0.0,0.0,0.0,0.0,0.0,0.0,0.0,0.0,0.0,0.0,0.0,0.0,0.0,0.0,0.0,0.0,0.0,0.0,0.0,0.0,0.0,0.0,0.0,0.0,0.0,0.0,0.0,0.0,0.0,0.0,0.0,0.0,0.0,0.0,0.0,0.0,0.0,0.0,0.0,0.0,0.0,0.0,0.0,0.0,0.0,0.0,0.0,0.0,0.0,0.0,0.0,0.0,0.0,0.0,0.0,0.0,0.0,0.0,0.0,0.0,0.0,0.0,0.0,0.0,0.0,0.0,0.0,0.0,0.0,0.0,0.0,0.0,0.0,0.0,0.0,0.0,0.0,0.0,0.0,3.5222,3.7416,3.8723,3.791,3.8323,3.8182,3.7011,3.7975,3.7386,3.4379,0.0,0.0,0.0,0.0,0.0,0.0,0.0,0.0,0.0,0.0,0.0,0.0,0.0,0.0,0.0,0.0,0.0,0.0,0.0,0.0,0.0,0.0,0.0,0.0,0.0,0.0,0.0,0.0,0.0,0.0,0.0,0.0,0.0,0.0,0.0,0.0,0.0,0.0,0.0,0.0,0.0,0.0,0.0,0.0,0.0,0.0,0.0,0.0,0.0,0.0,0.0,0.0,0.0,0.0,0.0,0.0,0.0,0.0,0.0,0.0,0.0,0.0,0.0,0.0,0.0,0.0,0.0,0.0,0.0,0.0,0.0,0.0,0.0,0.0,0.0,0.0,0.0,0.0,0.0,0.0,0.0,0.0,0.0,0.0,0.0,0.0,0.0,0.0,0.0,0.0,0.0,0.0,0.0,0.0,0.0,0.0,0.0,0.0,0.0,0.0,0.0,0.0,3.5908,3.7943,3.921,3.8723,3.9119,3.898,3.7975,3.8833,3.8376,3.6006,0.0,0.0,0.0,0.0,0.0,0.0,0.0,0.0,0.0,0.0,0.0,0.0,0.0,0.0,0.0,0.0,0.0,0.0,0.0,0.0,0.0,0.0,0.0,0.0,0.0,0.0,0.0,0.0,0.0,0.0,0.0,0.0,0.0,0.0,0.0,0.0,0.0,0.0,0.0,0.0,0.0,0.0,0.0,0.0,0.0,0.0,0.0,0.0,0.0,0.0,0.0,0.0,0.0,0.0,0.0,0.0,0.0,0.0,0.0,0.0,0.0,0.0,0.0,0.0,0.0,0.0,0.0,0.0,0.0,0.0,0.0,0.0,0.0,0.0,0.0,0.0,0.0,0.0,0.0,0.0,0.0,0.0,0.0,0.0,0.0,0.0,0.0,0.0,0.0,0.0,0.0,0.0,0.0,0.0,0.0,0.0,0.0,0.0,0.0,0.0,0.0,0.0,3.6493,3.8242,3.9391,3.9391,3.9391,3.9391,3.9391,3.9391,3.9092,3.8422,0.0,0.0,0.0,0.0,0.0,0.0,0.0,0.0,0.0,0.0,0.0,0.0,0.0,0.0,0.0,0.0,0.0,0.0,0.0,0.0,0.0,0.0,0.0,0.0,0.0,0.0,0.0,0.0,0.0,0.0,0.0,0.0,0.0,0.0,0.0,0.0,0.0,0.0,0.0,0.0,0.0,0.0,0.0,0.0,0.0,0.0,0.0,0.0,0.0,0.0,0.0,0.0,0.0,0.0,0.0,0.0,0.0,0.0,0.0,0.0,3.8619,0.0,0.0,0.0,0.0,0.0,0.0,0.0,0.0,0.0,0.0,0.0,0.0,0.0,0.0,0.0,0.0,0.0,0.0,0.0,0.0,0.0,0.0,0.0,0.0,0.0,0.0,0.0,0.0,0.0,0.0,0.0,0.0,0.0,0.0,0.0,0.0,0.0,0.0,0.0,0.0,0.0,3.7135,3.8494,3.9391,3.9391,3.9391,3.9391,3.9391,3.9391,3.9092,3.8422,3.8123,0.0,0.0,0.0,0.0,0.0,0.0,0.0,0.0,0.0,0.0,0.0,0.0,0.0,0.0,0.0,0.0,0.0,0.0,0.0,0.0,0.0,0.0,0.0,0.0,0.0,0.0,0.0,0.0,0.0,0.0,0.0,0.0,0.0,0.0,0.0,0.0,0.0,0.0,0.0,0.0,0.0,0.0,0.0,0.0,0.0,0.0,0.0,0.0,0.0,0.0,0.0,0.0,0.0,0.0,0.0,0.0,0.0,0.0,0.0,0.0,3.9861,0.0,0.0,0.0,0.0,0.0,0.0,0.0,0.0,0.0,0.0,0.0,0.0,0.0,0.0,0.0,0.0,0.0,0.0,0.0,0.0,0.0,0.0,0.0,0.0,0.0,0.0,0.0,0.0,0.0,0.0,0.0,0.0,0.0,0.0,0.0,0.0,0.0,0.0,0.0,0.0,3.8285,3.9529,4.0367,4.0367,4.0367,4.0367,4.0367,4.0367,4.0068,3.9409,3.905,0.0,0.0,0.0,0.0,0.0,0.0,0.0,0.0,0.0,0.0,0.0,0.0,0.0,0.0,0.0,0.0,0.0,0.0,0.0,0.0,0.0,0.0,0.0,0.0,0.0,0.0,0.0,0.0,0.0,0.0,0.0,0.0,0.0,0.0,0.0,0.0,0.0,0.0,0.0,0.0,0.0,0.0,0.0,0.0,0.0,0.0,0.0,0.0,0.0,0.0,0.0,0.0,0.0,4.4217,4.3736,4.3328,4.2725,4.2404,4.2257,4.26,4.2563,4.2226,4.1654,0.0,0.0,0.0,0.0,0.0,0.0,0.0,0.0,0.0,0.0,0.0,0.0,0.0,0.0,0.0,0.0,0.0,0.0,0.0,0.0,0.0,0.0,4.1305,4.0815,4.0724,4.0902,4.136,0.0,0.0,0.0,0.0,0.0,0.0,0.0,0.0,0.0,0.0,0.0,3.9631,4.0696,4.1403,4.1403,4.1403,4.1403,4.1403,4.1403,4.1164,4.0606,4.0068,3.9457,0.0,0.0,0.0,0.0,0.0,0.0,0.0,0.0,0.0,0.0,0.0,0.0,0.0,0.0,0.0,0.0,0.0,0.0,0.0,0.0,0.0,0.0,0.0,0.0,0.0,0.0,0.0,0.0,0.0,0.0,0.0,0.0,3.8182,3.8979,0.0,0.0,0.0,0.0,0.0,0.0,0.0,0.0,0.0,0.0,0.0,0.0,0.0,4.4094,4.3816,4.4278,4.4272,4.3801,4.4274,4.4565,4.4753,4.4765,4.4915,4.5167,4.5313,0.0,4.2132,4.2011,0.0,0.0,0.0,0.0,0.0,0.0,0.0,0.0,0.0,0.0,0.0,0.0,0.0,0.0,0.0,0.0,0.0,0.0,0.0,0.0,0.0,0.0,4.3962,4.4514,4.4644,4.4786,4.5269,4.0904,3.666,3.5931,3.5614,0.0,0.0,0.0,0.0,0.0,0.0,0.0,4.0984,4.1283,4.1403,4.1403,4.1403,4.1403,4.1403,4.1403,4.1373,4.1283,4.1194,4.0909,4.0432,3.9739,0.0,0.0,0.0,0.0,0.0,0.0,0.0,0.0,0.0,0.0,0.0,0.0,0.0,0.0,0.0,0.0,0.0,0.0,0.0,0.0,0.0,0.0,0.0,0.0,0.0,0.0,0.0,0.0,0.0,3.8037,3.8653,3.9876,4.0021,3.9876,0.0,0.0,0.0,0.0,0.0,0.0,0.0,0.0,0.0,4.4422,4.4272,4.442,4.5032,4.5237,4.5465,4.5613,4.5917,4.5947,4.5821,4.6424,4.6621,4.6536,4.7108,4.6561,4.5125,4.4057,4.3937,4.4354,0.0,0.0,0.0,0.0,4.2736,4.2367,4.276,4.2929,4.2929,4.2929,0.0,0.0,0.0,0.0,0.0,0.0,0.0,4.3687,4.4113,4.4646,4.5264,4.6022,4.5891,4.566,4.576,4.2864,4.0109,0.0,3.853,3.7686,3.7686,0.0,0.0,0.0,0.0,4.1814,4.2382,4.312,4.3589,4.3589,4.3589,4.3589,4.3589,4.3589,4.3479,4.3256,4.2896,4.248,4.2012,4.0982,4.0405,0.0,0.0,0.0,0.0,0.0,0.0,0.0,0.0,0.0,0.0,0.0,0.0,0.0,0.0,0.0,0.0,0.0,0.0,0.0,0.0,0.0,0.0,0.0,0.0,0.0,0.0,0.0,0.0,3.9704,4.0066,4.099,4.1461,4.1352,0.0,0.0,0.0,0.0,0.0,0.0,4.5117,4.4355,4.4437,4.5515,4.4839,4.5058,4.6327,4.6453,4.6847,4.751,4.7702,4.7568,4.7228,4.801,4.8103,4.7611,4.8473,4.8531,4.7883,4.6212,4.5566,4.5523,4.4888,4.4454,4.4165,4.4165,4.3873,4.3538,4.4079,4.4268,4.4268,4.4268,4.4553,4.4804,4.437,0.0,0.0,0.0,0.0,4.5345,4.6075,4.6264,4.6515,4.7428,4.7264,4.6911,4.6902,4.5647,4.4186,0.0,4.1426,4.0217,4.0378,0.0,0.0,0.0,0.0,4.3349,4.3529,4.4267,4.4796,4.4796,4.4796,4.4796,4.4796,4.4796,4.4707,4.4619,4.4138,4.3785,4.3656,4.2439,4.1852,4.2065,0.0,0.0,0.0,0.0,0.0,0.0,0.0,0.0,0.0,0.0,0.0,0.0,0.0,0.0,0.0,0.0,0.0,0.0,0.0,0.0,0.0,0.0,0.0,0.0,0.0,0.0,0.0,0.0,0.0,4.2855,4.4114,0.0,0.0,0.0,0.0,4.2864,4.2881,4.3536,4.4921,4.4842,4.5459,4.7046,4.711,4.7154,4.7237,4.7981,4.8376,4.8459,4.9063,4.9364,4.934,4.954,4.9341,4.8945,4.9552,4.9564,4.9029,4.7923,4.7465,4.7458,4.7424,4.7396,4.7383,4.7383,4.7033,4.6597,4.6616,4.6631,4.6631,4.6631,4.6177,4.5771,4.6413,4.6177,0.0,0.0,4.6699,4.6853,4.7582,4.7785,4.8157,4.9593,4.9916,5.0056,5.0587,4.9443,4.742,0.0,4.2924,4.2421,4.301,0.0,4.3369,4.3997,4.3638,4.3549,4.4177,4.3758,4.3379,4.3379,4.3379,4.3379,4.3379,4.3379,4.3668,4.4287,4.4287,4.4628,4.5423,4.4385,4.3883,4.4136,4.3122,0.0,0.0,0.0,0.0,0.0,0.0,0.0,0.0,0.0,0.0,0.0,0.0,0.0,0.0,0.0,0.0,0.0,0.0,0.0,0.0,0.0,0.0,0.0,0.0,0.0,0.0,0.0,0.0,4.3725,4.4561,0.0,4.3654,4.4728,4.5395,4.5065,4.5596,4.6168,4.6716,4.7104,4.7579,4.8155,4.8589,4.883,4.883,4.9117,4.9216,4.9146,4.9387,4.9519,4.9554,5.0724,5.1215,5.1191,5.2533,5.2566,5.163,5.1227,4.9909,4.8036,4.7338,4.7072,4.7072,4.7072,4.6976,4.68,4.68,4.68,4.6969,4.7902,4.8342,4.868,4.9424,4.9442,4.9273,4.956,4.9627,4.9679,4.995,5.0017,5.0153,5.066,5.0811,5.0863,5.1069,4.9788,4.8404,4.7686,4.587,4.435,4.4008,4.4296,4.4356,4.3758,4.4177,4.4526,4.4326,4.4466,4.4586,4.4586,4.4586,4.4586,4.4586,4.4586,4.4828,4.5354,4.4981,4.5203,4.6183,4.5456,4.5499,4.6516,4.6187,4.5996,0.0,0.0,0.0,0.0,0.0,0.0,0.0,0.0,0.0,0.0,0.0,0.0,0.0,0.0,0.0,0.0,0.0,0.0,0.0,0.0,0.0,0.0,0.0,0.0,0.0,0.0,4.4802,4.4558,4.5393,4.5776,4.5234,4.639,4.7272,4.7493,4.8074,4.8442,4.8442,4.8828,4.905,4.905,4.9475,4.9693,4.9693,5.0232,5.0485,5.0366,5.0952,5.1203,5.1203,5.2486,5.2845,5.2609,5.4206,5.4187,5.3001,5.3001,5.1807,4.984,4.8699,4.8425,4.8586,4.8365,4.8274,4.8274,4.8274,4.8274,4.8443,4.9424,5.0067,5.0574,5.1066,5.1201,5.1201,5.1201,5.1201,5.1269,5.1505,5.1573,5.1641,5.1911,5.1979,5.1979,5.1979,5.0635,4.944,4.9613,4.7652,4.5757,4.5201,4.5376,4.5274,4.4147,4.4556,4.4796,4.4356,4.4496,4.4646,4.4646,4.4646,4.4666,4.4748,4.4687,4.4919,4.5627,4.5142,4.5322,4.6333,4.58,4.6063,4.7309,4.7892,4.8354,4.864,0.0,0.0,0.0,0.0,0.0,0.0,0.0,0.0,0.0,0.0,0.0,0.0,0.0,0.0,0.0,0.0,0.0,0.0,0.0,0.0,0.0,0.0,0.0,4.4367,4.5526,4.6287,4.5526,4.682,4.7761,4.7761,4.8475,4.9202,4.9861,4.9897,4.9897,4.9897,4.9809,4.9765,4.9765,4.9848,4.9848,4.9837,5.1395,5.2186,5.2186,5.3904,5.4577,5.4403,5.4772,5.4248,5.3148,5.4412,5.4258,5.3071,5.3071,5.3057,5.2914,5.1691,5.1597,5.2104,5.1439,5.1201,5.1201,5.1201,5.1235,5.1235,5.1235,5.1235,5.1269,5.1269,5.1269,5.1269,5.1269,5.1269,5.1438,5.2164,5.2334,5.2536,5.3281,5.345,5.345,5.345,5.2129,5.0689,4.9858,4.8037,4.662,4.6569,4.641,4.6052,4.5364,4.4736,0.0,4.4287,4.3698,4.329,4.3309,4.329,4.3389,4.3675,4.3478,4.3778,4.4898,4.473,4.4961,4.586,4.5553,4.5704,4.651,4.8161,4.9375,5.0117,0.0,0.0,0.0,0.0,0.0,0.0,0.0,0.0,0.0,0.0,0.0,0.0,0.0,0.0,0.0,0.0,0.0,0.0,0.0,0.0,0.0,0.0,4.682,4.52,4.6856,4.8159,4.7942,4.871,4.9292,4.9292,4.9498,4.967,4.9762,4.9866,4.9911,4.9911,5.0959,5.1585,5.1585,5.2798,5.3412,5.3267,5.3845,5.4074,5.3988,5.4311,5.4477,5.4488,5.5127,5.5266,5.5098,5.612,5.587,5.4735,5.4735,5.447,5.3818,5.1927,5.133,5.1455,5.1282,5.1201,5.1201,5.1201,5.1539,5.1995,5.1995,5.2385,5.2875,5.2875,5.2875,5.2875,5.2875,5.2875,5.2892,5.3112,5.3179,5.3078,5.2706,5.2638,5.2469,5.1945,5.0587,4.9534,4.9798,4.8365,4.6842,4.6028,4.5813,4.55,4.4696,4.4436,0.0,4.3908,4.3528,4.3369,4.3577,4.3438,4.3389,4.3675,4.3616,4.3833,4.4445,4.4406,4.4769,4.5638,4.6074,4.7165,4.8963,4.9526,4.9893,0.0,0.0,0.0,0.0,0.0,0.0,0.0,0.0,0.0,0.0,0.0,0.0,0.0,0.0,0.0,0.0,0.0,0.0,0.0,0.0,0.0,0.0,4.7663,4.8387,4.7456,4.8532,4.9401,4.9401,4.9756,5.0098,5.0392,5.0392,5.0646,5.1261,5.1297,5.1536,5.1966,5.281,5.3291,5.3303,5.423,5.4626,5.4539,5.4987,5.5144,5.5069,5.5431,5.5436,5.5186,5.5668,5.5794,5.566,5.6495,5.6298,5.5417,5.5417,5.4994,0.0,0.0,0.0,0.0,0.0,5.2148,5.2148,5.2148,5.2418,5.2807,5.2807,5.3112,5.3518,5.3518,5.3518,5.3518,5.3518,5.3518,5.3518,5.3518,5.3721,5.3822,5.3382,5.3518,5.3619,5.3162,5.1905,5.0849,5.0867,4.9321,0.0,4.6498,4.615,4.5774,4.4989,4.4879,4.4799,4.4579,4.4469,4.4489,4.4659,4.4509,4.4529,4.4748,4.4719,0.0,0.0,0.0,4.5406,4.6038,4.7094,0.0,0.0,0.0,5.0236,5.0574,5.0439,0.0,0.0,4.9661,4.956,0.0,0.0,0.0,0.0,0.0,0.0,0.0,0.0,0.0,0.0,0.0,0.0,0.0,0.0,0.0,0.0,4.9184,5.0245,5.0245,5.0318,5.0318,5.0234,5.0318,5.0624,5.1271,5.1379,5.2016,5.3484,5.3421,5.3732,5.4676,0.0,0.0,0.0,0.0,5.4476,5.4463,5.5193,5.5542,5.5591,5.6495,5.6608,5.5978,5.6118,5.5858,5.5417,5.5964,5.5865,5.5299,5.5299,5.4887,5.4267,5.3701,5.3833,5.4251,5.3684,5.3518,5.3518,5.3518,0.0,0.0,5.3585,5.3619,5.3653,5.3721,5.3754,5.3754,5.3754,5.3754,5.3754,5.3754,5.4228,5.4702,5.4617,5.5108,5.5546,5.5357,5.422,5.2979,5.2215,5.0377,4.8706,4.7825,4.7065,4.6381,4.5837,4.5746,4.5746,4.5767,4.591,4.6032,4.6022,0.0,0.0,4.6284,4.6123,4.6224,4.6691,4.6652,4.6765,4.7069,4.8413,4.9177,4.9261,4.9966,5.0676,5.1336,5.2063,5.2435,5.2401,5.0439,4.9898,0.0,0.0,0.0,0.0,0.0,0.0,0.0,0.0,0.0,0.0,0.0,0.0,0.0,0.0,0.0,4.863,5.0017,5.1079,5.1079,5.1622,5.1757,5.1004,5.159,5.2254,5.281,5.3087,5.3472,5.4165,5.3706,5.3478,5.3673,5.3633,5.3637,5.3637,5.4501,5.4911,5.4778,5.5051,5.5288,5.5432,0.0,0.0,5.5308,5.5337,5.5278,5.5189,5.544,5.5189,5.4595,5.4595,5.4219,5.3668,5.3534,5.3568,5.3668,5.3534,5.3518,5.3518,5.3518,5.3518,5.3585,5.4194,5.4414,5.4499,5.509,5.5259,0.0,5.5259,5.5259,5.5259,5.5259,5.5395,5.5344,5.4735,5.4702,5.4461,5.3141,5.2193,5.1477,5.1105,5.0235,4.9645,4.9968,4.7997,4.6255,4.5971,4.595,4.5981,4.6163,4.6062,4.6042,4.6224,4.6082,4.6062,4.6284,4.6264,4.6612,4.7504,4.8145,4.8778,4.9411,4.9754,5.0159,5.0754,5.149,5.1928,5.2097,5.2875,5.3281,5.3281,5.2841,5.301,0.0,0.0,0.0,0.0,0.0,0.0,0.0,0.0,0.0,0.0,0.0,4.7218,0.0,0.0,4.9619,5.0053,5.1104,5.2045,5.2444,5.2842,5.2927,5.2459,5.2807,5.3351,5.3928,5.4025,5.4176,5.4469,5.406,5.3944,5.4224,5.4097,5.4079,5.4231,5.4739,5.4963,5.4907,5.5039,5.5159,5.5249,5.5159,5.4994,5.4765,5.4765,5.4765,5.4765,5.5259,5.5277,5.4964,5.5035,5.4873,5.4583,5.4583,5.4397,5.4059,5.4059,5.4296,5.4583,5.4583,5.4583,5.4651,5.504,5.5141,5.5209,5.5597,5.5699,5.5699,5.5699,5.5699,5.5699,5.5699,5.5969,5.6156,5.5784,5.5987,5.5909,5.4656,5.411,5.348,5.2148,5.1351,5.0715,5.0259,4.8675,4.7518,4.7647,4.7636,4.7586,4.7323,4.7313,4.7354,4.7456,4.7375,4.7354,4.7456,4.7851,4.8494,4.9373,5.0203,5.0647,5.0618,5.0994,5.1211,5.1201,5.1573,5.1742,5.1742,5.2536,5.2909,5.2909,5.3315,5.3484,0.0,0.0,0.0,0.0,0.0,0.0,0.0,0.0,4.6214,4.7047,4.7844,4.8605,4.9246,5.0017,5.0825,5.1658,5.2299,5.3023,5.382,5.3929,5.4001,5.4146,5.3881,5.394,5.4621,5.4427,5.4372,5.4649,5.4332,5.4346,5.4852,5.4482,5.4388,5.4653,5.4595,5.4567,5.452,5.4657,5.4749,5.4749,5.5061,5.493,5.4441,5.4613,5.4631,5.4665,5.5268,5.5526,5.5562,5.5671,5.5699,5.5699,5.5699,5.5428,5.5023,5.4871,5.5209,5.5699,5.5699,5.5699,5.5733,5.5868,5.5902,5.5936,5.6071,5.6139,5.6139,5.6139,5.6139,5.6139,5.6139,5.6562,5.7002,5.7002,5.7476,5.768,5.6787,5.6478,5.5732,5.3606,5.2639,5.1748,5.0509,4.9805,4.9382,4.9386,4.9396,4.9243,4.8845,4.893,4.9004,4.9004,4.9004,4.9067,4.9254,5.0059,5.0877,5.1717,5.2524,5.2653,5.2021,5.2623,5.2689,5.208,5.2216,5.2351,5.2486,5.323,5.3687,5.3822,5.4499,5.4194,4.2779,4.3161,4.3812,4.3961,4.4587,4.5743,0.0,0.0,4.8739,4.9521,5.0354,5.0934,5.1006,5.1683,5.248,5.3313,5.3494,5.3856,5.4641,5.4762,5.5015,5.5679,5.4466,5.3913,5.4622,5.409,5.4027,5.4819,5.4303,5.3955,5.4042,5.3416,5.3094,5.3145,5.3281,5.3281,5.3144,5.3298,5.3399,5.3433,5.4109,5.4465,5.4601,5.5262,5.555,5.555,5.5652,5.5686,5.5686,5.57,5.5699,5.5699,5.5699,5.6037,5.6461,5.58,5.5631,5.5699,5.5699,5.5699,5.58,5.6443,5.6697,5.6799,5.7442,5.7645,5.7645,5.7645,5.7645,5.7645,5.7645,5.773,5.7798,5.7798,5.7832,5.768,5.6787,5.5995,5.5137,5.4094,5.3181,5.2563,5.239,5.2298,5.166,4.9937,4.966,4.9845,5.0368,5.043,5.0451,5.0451,5.0451,5.0762,5.1548,5.2369,5.3181,5.4084,5.4881,5.5272,5.5171,5.5292,5.5293,5.5192,5.5834,5.6494,5.7137,5.7881,5.8573,5.9235,5.9336,5.8254,4.426,4.4571,4.4949,4.5932,4.6794,4.7652,4.8666,4.9246,4.9836,5.0644,5.1441,5.2021,5.2021,5.2661,5.3313,0.0,5.411,5.4532,5.4976,5.4932,5.5052,5.5596,5.4545,5.4226,5.5369,5.4673,5.4164,5.415,5.3796,5.3466,5.3162,5.2799,5.2676,5.2886,5.2972,5.3243,5.3697,5.3887,5.4227,5.4648,5.4986,5.5156,5.5243,5.5564,5.5936,5.6341,5.6341,5.6596,5.6968,5.6968,5.6968,5.6968,5.6968,5.7171,5.734,5.663,5.663,5.6968,5.6968,5.6968,5.7036,5.734,5.7442,5.7476,5.7832,5.8186,5.8558,5.8558,5.8863,5.9167,5.9167,5.9167,5.9167,5.9167,5.9167,5.8961,5.8049,5.7582,5.6947,5.5702,5.4738,5.3969,5.3584,5.3047,5.2553,5.2113,5.1374,5.082,5.0697,5.0697,5.0882,5.1403,5.1466,5.1995,5.3363,5.3768,5.4297,5.5152,5.5506,5.5902,5.6308,5.6341,5.6562,5.6968,5.7273,5.7577,5.79,5.822,5.8524,5.8795,5.8389,5.8152,4.5326,4.5939,4.6392,4.772,4.8811,4.9572,4.9572,5.0162,5.0934,5.1513,5.2082,5.2552,5.277,5.3313,5.3856,5.4255,5.4834,5.5252,5.5402,5.5311,5.5241,5.5297,5.4469,5.4296,5.5232,5.4556,5.3844,5.3365,5.3281,5.3094,5.2694,5.2824,5.3063,5.3344,5.351,5.3914,5.4592,5.4818,5.514,5.5628,5.5884,5.6003,5.6003,5.6206,5.6596,5.7103,5.7103,5.7408,5.79,5.79,5.79,5.7934,5.8118,5.8186,5.8152,5.7814,5.778,5.7934,5.8118,5.8186,5.822,5.8423,5.849,5.849,5.849,5.8896,5.9284,5.9284,5.9708,6.0114,6.0114,6.0114,6.0114,6.0114,6.0114,5.9852,5.8946,5.8586,5.8015,5.6612,5.5609,5.4825,5.4345,5.3694,5.3414,5.3906,5.3137,5.2359,5.1867,5.1805,5.2147,5.3028,5.3134,5.3827,5.5544,5.5677,5.6029,5.688,5.6916,5.7153,5.7679,5.7712,5.7949,5.8509,5.849,5.8644,5.8829,5.8592,5.8746,5.9118,5.8389,5.8829,4.6296,4.7532,4.8214,4.8726,5.0053,5.1224,5.1224,5.1839,5.2408,5.2444,5.248,5.2733,5.353,5.3675,5.4182,5.5679,5.5969,5.6023,5.6237,5.6262,5.5985,5.5184,5.4391,5.3829,0.0,5.306,5.2659,5.2624,5.2799,5.2903,5.2886,5.3764,5.4359,5.4549,5.5067,5.5348,5.5384,5.5577,5.5577,5.5418,5.6338,5.6765,5.6799,5.7509,5.7866,5.7866,5.7866,5.79,5.79,5.79,5.79,5.7949,5.8693,5.8979,5.9047,5.9742,5.9099,5.7983,5.8727,5.8979,5.9081,5.981,6.0047,6.0047,6.0047,6.0047,6.008,6.008,6.008,6.0114,6.0114,6.0114,6.0114,6.0114,6.0114,5.9852,5.8907,5.8043,5.7152,5.6176,5.5328,5.4722,5.4691,5.4668,5.4645,5.4676,5.4645,5.4614,5.4583,5.4583,5.4946,5.5901,5.5958,5.6723,5.8514,5.8688,5.9044,5.9922,5.9979,5.9979,6.0013,6.0013,6.0013,6.0047,6.0047,6.0419,6.1197,6.0419,6.0791,6.2265,6.1501,6.1955,4.7166,4.8442,4.9621,5.0304,5.1285,5.2093,5.2093,5.2299,5.2661,5.3204,5.2878,5.2733,5.3566,5.4146,5.4532,5.4602,5.5519,5.5936,5.5134,5.4872,5.4501,5.3912,5.35,0.0,0.0,0.0,0.0,5.2463,5.2948,5.327,5.3412,5.42,5.4798,5.5118,5.5301,5.5689,5.6338,5.6391,5.6628,5.7065,5.739,5.7509,5.7543,5.7798,5.79,5.7934,5.8423,5.8626,5.8693,5.9167,5.937,5.937,5.9641,5.9742,5.9776,6.0013,5.9776,5.9404,5.9641,5.9742,5.9776,6.0013,6.0114,6.0114,6.0114,6.0486,6.0892,6.0892,6.1264,6.1637,6.1637,6.1637,6.1637,6.1637,6.1637,6.1525,6.1217,6.0442,5.9706,5.9389,5.8061,5.701,5.701,5.6101,5.5402,5.5527,5.5093,5.4908,5.5564,5.5194,5.5476,5.6995,5.6715,5.6895,5.8106,5.8201,5.8347,5.8607,5.8626,5.9066,6.0047,6.0114,6.0588,6.1603,6.1637,6.2009,6.2767,6.2482,6.2888,6.3835,6.3125,6.3037,4.8669,4.9738,5.0716,5.1513,5.2129,5.248,5.248,5.2733,5.3096,5.3603,5.3277,5.3241,5.4327,5.4531,5.4594,5.4732,5.5443,5.5601,5.4548,5.42,5.3863,5.3281,5.3311,5.3287,0.0,0.0,0.0,5.2897,5.3564,5.4089,5.4287,5.4989,5.5536,5.5911,5.6093,5.6518,5.7171,5.7171,5.7408,5.79,5.79,5.8017,5.8287,5.8287,5.8423,5.8693,5.9201,5.9404,5.9438,5.9911,6.0114,6.0148,6.0419,6.052,6.0554,6.0825,6.0926,6.0892,6.0622,6.052,6.0554,6.0825,6.0926,6.0926,6.0926,6.1264,6.167,6.167,6.2009,6.24,6.24,6.24,6.24,6.24,6.24,6.2302,6.1971,6.1432,6.0799,6.0108,5.9311,5.8592,5.8257,5.757,5.7121,5.7287,5.6798,5.6577,5.6863,5.6515,5.6894,5.8692,5.8469,5.8539,5.9449,5.9524,5.9524,5.9524,5.9524,6.0047,6.1264,6.1332,6.1907,6.3159,6.3193,6.3429,6.3903,6.3612,6.3883,6.458,6.3849,6.3781,5.0669,5.1332,5.155,5.2299,5.248,5.248,5.248,5.3132,5.3711,5.3711,5.3748,5.4218,0.0,0.0,5.4452,5.5936,5.573,5.5099,5.4438,5.4343,5.4074,0.0,0.0,0.0,0.0,0.0,0.0,5.3892,0.0,5.5237,5.5416,5.614,5.6669,5.6867,5.7327,5.7698,5.79,5.7934,5.7967,5.7967,5.7983,5.8389,5.9047,5.9047,5.9419,6.0114,6.0148,6.0148,6.0148,6.0216,6.0216,6.0283,6.1061,6.1366,6.1434,6.2144,6.24,6.2279,6.1603,6.1366,6.1467,6.2178,6.24,6.24,6.24,6.24,6.24,6.24,6.24,6.24,6.24,6.2434,6.2448,6.2409,6.2389,6.2205,6.1306,6.1023,6.0453,5.8687,5.9027,5.9274,5.8344,5.8972,5.9586,5.9619,5.9631,5.9393,5.8637,5.8507,5.9131,6.0833,6.1036,6.1365,6.2254,6.24,6.24,6.24,6.24,6.2719,6.3477,6.3511,6.3849,6.458,6.4613,6.4613,6.4647,6.3951,6.3984,6.4715,6.3984,6.441,5.1115,5.1731,5.2226,5.2444,5.248,5.248,5.248,5.3132,5.3711,5.3711,5.4182,5.4725,0.0,0.0,0.0,5.4741,5.4685,0.0,5.3816,5.3617,0.0,5.3987,0.0,5.4367,5.4525,5.55,0.0,0.0,5.578,5.5935,5.5972,5.6841,5.741,5.7611,5.7744,5.7845,5.79,5.8457,5.8727,5.8709,5.9268,5.9641,5.981,5.981,5.9911,6.0148,6.0723,6.0994,6.1028,6.1569,6.1806,6.1806,6.2042,6.211,6.2144,6.2333,6.24,6.2347,6.2178,6.211,6.2144,6.2347,6.24,6.24,6.24,6.24,6.24,6.24,6.24,6.24,6.24,6.2821,6.3013,6.2274,6.2507,6.2864,6.2631,6.141,6.0458,6.0766,5.9815,5.8764,5.8025,5.8641,5.9302,5.9574,6.0151,6.0511,6.0367,5.9873,5.9972,6.109,6.1203,6.1335,6.1549,6.2076,6.24,6.24,6.24,6.2719,6.3477,6.3511,6.3849,6.458,6.4613,6.4884,6.5425,6.5222,6.5527,6.6216,6.6047,6.6149,5.1731,5.2154,5.248,5.248,5.248,5.248,5.248,5.3132,5.3784,5.4146,5.4581,5.5051,5.5451,5.5085,0.0,0.0,0.0,0.0,5.3534,5.3399,5.3601,0.0,5.4715,0.0,5.5497,5.649,5.7,0.0,5.6761,5.6853,5.6945,5.7459,5.779,5.7881,5.79,5.8051,5.8389,5.9099,5.9471,5.9487,5.9911,6.0283,6.0622,6.0622,6.0791,6.1129,6.1603,6.1772,6.1806,6.2212,6.24,6.24,6.24,6.24,6.24,6.24,6.24,6.2468,6.2753,6.2888,6.2821,6.2516,6.24,6.2448,6.2787,6.2888,6.2956,6.326,6.3362,6.3362,6.3362,6.3666,6.3829,6.3283,6.3446,6.3642,6.3204,6.2585,6.2164,6.2298,6.1464,6.0604,6.0189,6.0906,6.1579,6.1747,6.2199,6.2544,6.2585,6.1929,6.181,6.266,6.2753,6.2753,6.2753,6.3125,6.3362,6.3362,6.3362,6.37,6.4444,6.4478,6.4816,6.5561,6.5561,6.5764,6.617,6.617,6.6406,6.6791,6.6791,6.6791,5.2299,5.248,5.248,5.248,5.248,5.248,5.248,5.3204,5.4037,5.4617,5.4918,5.5298,5.6,5.5101,5.4271,5.4382,0.0,5.3551,5.3619,5.3653,5.3957,5.4769,5.548,5.6068,5.6596,5.74,5.7735,5.7327,5.7514,5.7698,5.7845,5.7881,5.7934,5.8017,5.8137,5.849,5.9148,5.9911,6.025,6.025,6.0351,6.0757,6.1467,6.1467,6.1772,6.24,6.24,6.24,6.24,6.24,6.24,6.24,6.24,6.2448,6.257,6.257,6.2618,6.2787,6.3409,6.3646,6.3545,6.2888,6.2705,6.2821,6.3443,6.3646,6.3781,6.441,6.4613,6.4613,6.4613,6.4681,6.4728,6.4585,6.4632,6.4459,6.3589,6.4069,6.4396,6.3383,6.3264,6.3264,6.3188,6.3942,6.4542,6.4645,6.4699,6.4741,6.4864,6.4153,6.3903,6.4546,6.4681,6.4749,6.4749,6.485,6.4884,6.4884,6.4884,6.5189,6.5797,6.5852,6.6136,6.6791,6.6791,6.6791,6.6791,6.6791,6.6791,6.6791,6.6791,6.6791,5.2444,5.248,5.248,5.248,5.248,5.248,5.248,5.3639,0.0,0.0,5.504,5.5906,5.5419,5.4791,5.4359,5.4388,5.3881,5.3721,5.4329,5.4397,5.4905,0.0,5.6528,5.6829,5.7355,5.7704,0.0,0.0,5.7643,5.779,5.7662,5.7808,5.8186,5.8776,5.9404,5.9776,5.9911,6.0689,6.1095,6.1095,6.1704,6.2076,6.2212,6.2212,6.2299,6.24,6.24,0.0,6.24,6.24,6.24,6.24,6.24,6.2753,6.3308,6.3308,6.37,6.4241,6.4377,6.441,6.4377,6.4275,6.4208,6.4241,6.4377,6.441,6.4444,6.4546,6.4613,6.4613,6.4613,6.5053,6.5307,6.4457,6.4717,6.5127,6.4951,6.5061,6.4884,6.3848,6.3687,6.3687,6.3664,6.3802,6.4223,6.5039,6.5171,6.5487,6.6302,6.5256,6.4478,6.458,6.5155,6.5493,6.5493,6.6068,6.644,6.644,6.644,6.6487,6.6588,6.6609,6.6656,6.6791,6.6791,6.6791,6.6791,6.6791,6.6791,6.6791,6.6791,6.6791,5.248,5.248,5.248,5.248,5.248,5.2625,5.3023,0.0,0.0,0.0,5.4853,5.5101,5.477,5.4533,5.428,5.3979,5.4007,5.4194,5.455,5.4938,5.5581,5.6664,5.6709,5.6925,5.7686,5.7753,5.7698,5.7625,5.8143,5.8214,5.764,5.8143,5.8829,5.9573,6.0317,6.0723,6.0723,6.1501,6.1873,6.1873,6.2212,6.24,6.24,6.24,6.24,6.24,6.24,6.24,6.24,6.24,6.2618,6.2956,6.2956,6.3429,6.4072,6.4072,6.4309,6.4647,6.5019,6.5155,6.5222,6.5628,6.5222,6.4681,6.5053,6.5155,6.5256,6.5662,6.5743,6.5743,6.5743,6.6,6.6167,6.5688,6.5413,6.5426,6.5975,6.568,6.5159,6.4675,6.5002,6.5047,6.3984,6.4652,6.5337,6.5293,6.5746,6.6235,6.6749,6.6183,6.5743,6.5743,6.6068,6.6271,6.6271,6.6609,6.6791,6.6791,6.6791,6.6791,6.6791,6.6791,6.6791,6.6791,6.6791,6.6791,6.6791,6.6791,6.6791,6.6791,6.6791,6.6791,5.2444,5.248,5.2457,5.2352,5.2425,5.2642,5.2978,5.3036,0.0,5.442,5.4409,5.4296,5.4382,5.428,5.4042,5.3568,5.3991,5.4465,5.4769,5.5327,5.6037,0.0,5.6873,0.0,5.7814,5.7717,0.0,5.8045,5.8754,5.8886,5.8167,5.9006,5.9776,6.0351,6.1129,6.1535,6.1535,6.211,6.24,6.24,6.24,6.24,6.24,6.24,6.24,6.24,6.24,6.24,6.2415,6.255,6.299,6.3511,6.3646,6.4208,6.485,6.485,6.4952,6.5155,6.573,6.5933,6.6034,6.6609,6.6034,6.5189,6.5764,6.5933,6.6068,6.6622,6.6791,6.6791,6.6791,6.6791,6.6791,6.6791,6.6192,6.5833,6.6643,6.617,6.5636,6.5636,6.6256,6.6311,6.4698,6.5746,6.6525,6.5746,6.6278,6.6791,6.6791,6.6791,6.6791,6.6791,6.6791,6.6791,6.6791,6.6791,6.6791,6.6791,6.6791,6.6791,6.6791,6.6791,6.6791,6.6791,6.6791,6.6791,6.6791,6.6791,6.6791,6.6791,6.6791,6.6791,5.2299,5.248,5.2375,5.1823,5.2187,5.2368,5.1224,0.0,5.3914,5.3317,5.3818,5.44,5.4407,5.3946,5.3551,5.3518,5.3551,5.4059,5.5395,5.5665,5.6206,5.7629,0.0,0.0,5.7881,5.7717,5.7875,5.8583,5.9309,5.9789,5.9873,6.0636,6.1129,6.1197,6.1907,6.2299,6.2299,6.2367,6.24,6.24,6.24,6.24,6.24,6.24,6.24,6.24,6.24,6.24,0.0,6.3125,6.3443,6.3579,6.4241,6.4952,6.5615,6.5615,6.6,6.6588,6.6677,6.669,6.669,6.6757,6.669,6.6588,6.6677,6.669,6.669,6.6757,6.6791,6.6791,6.6791,6.6791,6.6791,6.6791,6.6728,6.6707,6.677,6.6728,6.6686,6.6686,6.6749,6.6749,6.6546,6.6686,6.677,6.6686,6.6749,6.6791,6.6791,6.6791,6.6791,6.6791,6.6791,6.6791,6.6791,6.6791,6.6791,6.6791,6.6791,6.6791,6.6791,6.6791,6.6791,6.6791,6.6791,6.6791,6.6791,6.6791,6.6791,6.6791,6.6791,6.6791,5.2408,5.2221,5.1897,5.1651,5.156,5.1472,5.1446,0.0,5.2438,5.3043,5.3147,5.3268,5.378,5.3668,5.3518,5.3518,5.3856,5.4532,5.5564,5.6071,5.6678,5.76,5.7643,0.0,0.0,0.0,5.8822,6.015,6.0946,6.139,6.1467,6.1366,6.1501,6.1941,6.2245,6.24,6.24,6.24,6.24,6.24,6.24,6.24,6.24,6.24,6.24,6.2415,6.2854,6.3057,0.0,6.3869,6.441,6.485,6.5155,6.5696,6.6373,6.6373,6.6542,6.6791,6.6791,6.6791,6.6791,6.6791,6.6791,6.6791,6.6791,6.6791,6.6791,6.6791,6.6791,6.6791,6.6791,6.6791,6.6791,6.6791,6.6791,6.6791,6.6791,6.6791,6.6791,6.6791,6.6791,6.6588,6.6019,6.6397,6.6588,6.5997,6.6418,6.6791,6.6791,6.6791,6.6791,6.6791,6.6791,6.6791,6.6791,6.6791,6.6791,6.6791,6.6791,6.6791,6.6791,6.6791,6.6791,6.6791,6.6791,6.6791,6.6791,6.6791,6.6791,6.6791,6.617,6.5877,5.2233,5.1921,5.1584,5.1462,5.1111,5.0886,0.0,0.0,5.1348,5.2442,5.2472,5.2536,5.3348,5.3518,5.3518,5.3518,5.3923,5.46,5.5564,5.6139,5.6779,5.7597,0.0,5.7853,0.0,5.9212,5.9996,6.1211,6.1975,6.24,6.24,6.1907,6.1873,6.24,6.24,6.24,6.24,6.24,6.24,6.24,6.24,6.24,6.24,6.24,6.2516,6.2753,6.3274,6.3612,0.0,6.4613,6.5222,6.5717,6.5933,6.6339,6.6791,6.6791,6.6791,6.6791,6.6791,6.6791,6.6791,6.6791,6.6791,6.6791,6.6791,6.6791,6.6791,6.6791,6.6791,6.6791,6.6791,6.6791,6.6791,6.6791,6.6791,6.6791,6.6791,6.6791,6.6791,6.6791,6.6791,6.6567,6.5855,6.6354,6.6546,6.5833,6.6354,6.6791,6.6791,6.6791,6.6791,6.6791,6.6791,6.6791,6.6791,6.6791,6.6791,6.6791,6.6791,6.6791,6.6791,6.6791,6.6791,6.6791,6.6791,6.6791,6.6791,6.6791,6.6665,6.6354,6.5636,6.5078,5.1559,5.1601,5.1499,5.1095,5.0996,5.0832,5.024,5.0692,5.1201,5.1217,5.1792,5.2536,5.3348,5.3518,5.3518,5.3518,5.3518,5.4008,5.5496,5.5699,5.6258,0.0,0.0,5.776,5.8874,6.0366,6.1298,6.1298,6.1975,0.0,6.24,6.2381,6.2381,6.24,6.24,6.24,6.24,6.24,6.24,6.24,6.24,6.24,6.24,6.24,6.2787,6.3477,6.3511,6.3917,0.0,6.5358,6.5683,6.5764,6.6508,6.6791,6.6791,6.6791,6.6791,6.6791,6.6791,6.6791,6.6791,6.6791,6.6791,6.6791,6.6791,6.6791,6.6791,6.6791,6.6791,6.6791,6.6791,6.6791,6.6791,6.6791,6.6791,6.6791,6.6791,6.6791,6.6791,6.6791,6.6791,6.6791,6.6791,6.6791,6.6791,6.6791,6.6791,6.6791,6.6791,6.6791,6.6791,6.6791,6.6791,6.6791,6.6791,6.6791,6.6791,6.6791,6.6791,6.6791,6.6791,6.6791,6.6791,6.6791,6.6791,6.6791,6.6791,6.6791,6.6278,6.5315,6.5293,6.4584,5.1559,5.1286,5.0862,5.0385,4.9962,4.9569,4.9403,4.9526,4.9984,5.0998,5.137,5.1945,5.3281,5.3518,5.3518,5.3518,5.3518,5.4025,5.5496,5.6139,5.6948,5.8305,5.9251,6.003,0.0,0.0,6.2564,6.2076,6.2753,6.2922,6.2434,6.24,6.24,6.24,6.24,6.24,6.24,6.24,6.24,6.24,6.24,6.24,6.2434,6.2922,6.3274,6.3545,6.458,6.5121,6.5412,6.6136,6.644,6.6474,6.669,6.6791,6.6791,6.6791,6.6791,6.6791,6.6791,6.6791,6.6791,6.6791,6.6791,6.6791,6.6791,6.6791,6.6791,6.6791,6.6791,6.6791,6.6791,6.6791,6.6791,6.6791,6.6791,6.6791,6.6791,6.6791,6.6791,6.6791,6.6791,6.6791,6.6791,6.7218,6.7557,6.7557,6.803,6.8368,6.8368,6.8368,6.8368,6.8368,6.8368,6.7963,6.6893,6.6791,6.6994,6.7523,6.7557,6.7793,6.8368,6.8368,6.8368,6.8368,6.8368,6.801,6.7279,6.7257,6.6381,6.4599,6.4599,6.4038,5.1066,5.0853,5.0335,5.0061,4.9494,4.9086,4.9357,4.9424,4.9763,5.0964,5.1404,5.1979,5.3281,5.3518,5.3518,5.3518,5.3518,5.4126,5.5868,5.6528,5.7369,5.8919,0.0,0.0,0.0,6.2341,6.2888,6.2434,6.2821,6.2888,6.2415,6.24,6.24,6.24,6.24,6.24,6.24,6.24,6.24,6.24,6.24,6.257,6.2821,6.3274,6.3781,6.4377,6.529,6.5886,0.0,6.6609,6.6791,6.6791,6.6791,6.6791,6.6791,6.6791,6.6791,6.6791,6.6791,6.6791,6.6791,6.6791,6.7015,6.7286,6.759,6.7265,6.6791,6.6791,6.6994,6.7218,6.7218,6.7455,6.7692,6.7692,6.7692,6.7692,6.7692,6.7692,6.7692,6.7692,6.7692,6.7692,6.7692,6.8064,6.8335,6.8335,6.8774,6.9113,6.9113,6.9113,6.9113,6.9113,6.9113,6.8707,6.776,6.7692,6.7861,6.8335,6.8335,6.8571,6.9079,6.9113,6.9113,6.9113,6.9113,6.8761,6.8092,6.7281,6.6015,6.4271,6.3917,6.3525,0.0,5.0244,4.9899,5.0002,4.9492,4.9187,4.988,5.0083,0.0,5.1032,5.1776,5.2536,5.3348,5.3518,5.3518,5.3518,5.3551,5.4329,5.6494,5.7002,5.7808,5.9698,6.0777,0.0,6.1046,6.1877,6.24,6.24,6.24,6.24,6.24,6.24,6.24,6.24,6.24,6.24,6.24,6.24,6.24,6.24,6.24,6.2787,6.3511,6.3545,6.4343,0.0,6.5784,6.617,6.6791,6.6791,6.6791,6.6791,6.6791,6.6791,6.6791,6.6791,6.6791,6.6791,6.6791,6.6825,6.6893,6.6927,6.7455,6.8132,6.8876,6.8098,6.696,6.696,6.7455,6.7996,6.7996,6.8538,6.9113,6.9113,6.9113,6.9113,6.9113,6.9113,6.9113,6.9113,6.9113,6.9113,6.9113,6.9147,6.918,6.918,6.9214,6.9248,6.9248,6.9248,6.9248,6.9248,6.9248,6.9248,6.9248,6.918,6.9113,6.918,6.918,6.9214,6.9248,6.9248,6.9248,6.9248,6.9117,6.8973,6.8907,6.6817,6.5333,6.4301,6.3371,6.326,4.882,0.0,4.9811,4.9391,4.912,4.9052,0.0,4.9695,5.0304,5.1032,5.1776,5.2536,5.3348,5.3518,5.3518,5.3518,5.3957,5.4905,5.6562,5.8795,6.0433,6.0902,6.1651,6.1888,6.1308,6.1955,6.24,6.24,6.24,6.24,6.24,6.24,6.24,6.24,6.24,6.24,6.24,6.24,6.24,6.24,6.24,6.2787,6.3511,6.4086,6.485,6.5751,6.6305,6.6622,6.6791,6.6791,6.6791,6.6791,6.6791,6.6791,6.6791,6.6791,6.6791,6.6791,6.6791,6.7184,6.776,6.8368,6.8673,6.8842,6.9045,6.8842,6.8571,6.8571,6.8673,6.8808,6.8808,6.8977,6.9113,6.9113,6.9113,6.9113,6.9113,6.9113,6.9113,6.9113,6.9113,6.9113,6.9113,6.9553,6.9925,6.9925,7.0432,7.0804,7.0804,7.0804,7.0804,7.0804,7.0804,7.0804,7.0804,6.9755,6.935,6.9891,6.9925,7.0195,7.0748,7.0804,7.0804,7.0804,6.9178,6.7907,6.7117,6.5781,6.5017,6.4746,6.4505,6.4487,4.7566,4.8421,4.8982,4.9009,4.9018,4.9086,4.9424,5.0067,5.0811,5.1555,5.2334,5.2976,5.3416,5.3788,5.3991,5.3991,5.4905,5.6087,5.7483,5.9449,6.0854,6.1129,6.1612,6.1873,0.0,6.2164,6.24,6.24,6.24,6.24,6.24,6.24,6.24,6.24,6.24,6.24,6.24,6.24,6.24,6.24,6.2753,6.3294,6.4038,6.4783,6.5493,6.6237,6.6643,6.6791,6.6791,6.6791,6.6791,6.6791,6.6791,6.6791,6.6791,6.6791,6.6791,6.6859,6.7184,6.7827,6.8571,6.935,6.9586,6.9654,7.0026,7.0128,6.9992,6.9282,6.935,6.9586,6.9586,6.9857,7.0128,7.0128,7.0128,7.0128,7.0128,7.0128,7.0128,7.0128,7.0128,7.0128,7.0128,7.0432,7.0703,7.0703,7.1041,7.1289,7.1289,7.1289,7.1289,7.1289,7.1289,7.1289,7.1289,7.013,6.976,7.0647,7.0703,7.067,7.0551,7.0584,7.032,6.9841,6.8699,6.7573,6.6491,6.5911,6.5378,6.4888,6.4888,6.4888,4.6563,4.7327,4.809,4.8815,4.9018,4.9187,4.9932,5.0676,5.1404,5.2164,5.2942,5.3551,5.3653,5.416,5.4651,5.4735,5.6089,5.7572,5.889,5.9865,6.0598,6.0998,6.1303,0.0,6.2178,6.2333,6.24,6.24,6.24,6.24,6.24,6.24,6.24,6.24,6.24,6.24,6.24,6.24,6.2448,6.2584,6.3193,6.3971,6.4783,6.5412,6.6102,6.6791,6.6791,0.0,6.6791,6.6791,6.6791,6.6791,6.6791,6.6791,6.6791,6.6791,6.6859,6.7096,6.7963,6.8707,6.9383,7.0128,7.0364,7.0466,7.1109,7.1289,7.1019,6.9789,6.9891,7.0364,7.0364,7.0838,7.1289,7.1289,7.1289,7.1289,7.1289,7.1289,7.1289,7.1289,7.1289,7.1289,7.1289,7.1289,7.1289,7.1289,7.1289,7.1289,7.1289,7.1289,7.1244,7.1052,7.1052,7.0984,7.0848,7.0123,7.0076,7.1007,7.0916,7.0389,6.9499,6.9451,6.8936,6.7871,6.7878,6.7343,6.6258,6.6258,6.5808,6.4888,6.4888,6.4888,4.6428,4.7327,4.809,4.8815,4.9018,4.9187,4.9932,5.0676,5.1404,5.2164,5.2942,5.3687,5.4329,5.4499,5.4803,5.5428,5.7288,5.9182,0.0,0.0,6.1839,6.1327,0.0,6.2009,6.1535,6.2009,6.24,6.24,6.24,6.24,6.24,6.24,6.24,6.24,6.24,6.24,6.24,6.24,6.2719,6.3308,6.3443,6.4208,6.5527,6.5649,6.6102,6.6791,0.0,6.6791,6.6791,6.6791,6.6791,6.6791,6.6791,6.6791,6.6791,6.6791,6.7218,6.7929,6.935,6.9925,7.0128,7.0906,7.1142,7.1154,7.1255,7.1289,7.1255,7.1019,7.1041,7.1142,7.1142,7.1222,7.1289,7.1289,7.1289,7.1289,7.1289,7.1289,7.1289,7.1289,7.1289,7.1289,7.1289,7.1289,7.1289,7.1289,7.1289,7.1289,7.1289,7.1289,7.0961,7.0029,6.9959,6.9571,6.8675,6.9283,6.976,6.9935,6.909,6.8527,6.8346,6.8346,6.782,6.678,6.6753,6.6231,6.5163,6.5163,6.5081,6.4888,6.4888,6.4888,4.653,4.7327,4.8259,4.9814,5.0491,5.098,5.1758,5.2503,5.3145,5.345,5.3822,5.4329,5.5074,5.5513,5.6427,5.8423,5.9216,5.9975,6.0974,6.1173,6.1158,0.0,0.0,6.1839,6.1873,6.2178,6.24,6.24,6.24,6.24,6.24,6.24,6.24,6.24,6.24,6.24,6.24,6.2787,6.3139,6.3511,6.4309,6.5019,6.5717,6.6102,6.6474,6.6791,0.0,6.6791,6.6791,6.6791,6.6791,6.6791,6.6791,6.6791,6.6859,6.7252,6.8132,6.9248,6.9947,7.0466,7.0838,7.1188,7.1289,7.1289,7.1289,7.1289,7.1289,7.1289,7.1289,7.1289,7.1289,7.1289,7.1289,7.1289,7.1289,7.1289,7.1289,7.1289,7.1289,7.1289,7.1289,7.1289,7.1289,7.1289,7.1289,7.1289,7.1289,7.1289,7.1289,7.1289,7.1098,7.0631,7.0584,7.0366,6.9865,6.9211,6.909,6.9666,6.8667,6.782,6.7266,6.6701,6.6152,6.5646,6.5646,6.5406,6.4888,6.4888,6.4888,6.4888,6.4888,6.4888,4.6819,4.7582,4.8665,5.0694,5.1472,5.2131,5.345,5.4059,5.4431,5.4769,5.5006,5.5277,5.5834,5.668,5.8118,6.0622,6.0655,6.0598,6.1239,6.0931,6.0801,6.1253,6.1472,6.1772,6.2367,6.24,6.24,6.24,6.24,6.24,6.24,6.24,6.2502,6.2651,6.2651,6.2719,6.2888,6.3666,6.3937,6.3748,6.5087,6.5764,6.5967,6.6542,6.6791,6.6791,6.6791,6.6791,6.6791,6.6791,6.6791,6.6791,6.6791,6.6893,6.7184,6.8098,6.918,7.0195,7.0398,7.0838,7.1289,7.1289,7.1289,7.1289,7.1289,7.1289,7.1289,7.1289,7.1289,7.1289,7.1289,7.1289,7.1289,7.1289,7.1289,7.1289,7.1289,7.1289,7.1289,7.1289,7.1289,7.1289,7.1289,7.1289,7.1289,7.1289,7.1289,7.1289,7.1289,7.1289,7.1222,7.0961,7.0939,7.0939,7.0939,6.8968,6.8172,6.9259,6.8072,6.6982,6.6178,6.5351,6.4888,6.4888,6.4888,6.4888,6.4888,6.4888,6.4888,6.4888,6.4888,6.4888,4.7447,4.836,4.9289,5.0829,5.0744,5.103,5.3873,5.4025,5.3991,5.5327,5.619,5.6664,5.6697,5.7863,5.9148,6.0047,6.0757,6.1467,6.2212,0.0,6.2245,6.2293,6.2313,6.2347,6.2381,6.24,6.24,6.24,6.24,6.24,6.24,6.24,6.2719,6.3409,6.3409,6.3748,6.4444,6.5155,6.5189,6.4546,6.5324,6.6068,6.6724,6.6757,6.6791,6.6791,6.6791,6.6791,6.6791,6.6791,6.6791,6.6791,6.6791,6.7218,6.7996,6.9485,7.0094,7.0319,7.0973,7.1255,7.1289,7.1289,7.1289,7.1289,7.1289,7.1289,7.1289,7.1289,7.1289,7.1289,7.1289,7.1289,7.1289,7.1289,7.1289,7.1289,7.1289,7.1289,7.1289,7.1289,7.1289,7.1289,7.1289,7.1289,7.1289,7.1289,7.1289,7.1289,7.1289,7.1289,7.0916,6.9935,6.9841,6.9841,6.9841,6.7852,6.706,6.8147,6.6253,6.5108,6.5026,6.4943,6.4888,6.4888,6.4888,6.4888,6.4888,6.4888,6.4888,6.4888,6.4888,6.4888,4.7616,4.9104,5.0592,5.1607,5.2063,5.2739,5.4803,5.5412,5.5716,5.6274,5.6968,5.7611,5.8084,5.9776,6.1061,6.0892,6.1501,6.2076,6.2367,6.24,6.24,6.24,6.24,6.24,6.24,6.24,6.24,6.24,6.24,6.2584,6.3057,6.3091,6.3429,6.4174,6.3588,6.3701,6.4613,6.4728,6.4929,6.529,6.6034,6.6542,6.6791,6.6791,6.6791,6.6791,6.6791,6.6791,6.6791,6.6791,6.6791,6.6846,6.732,6.8233,6.9383,6.9958,7.0466,7.0939,7.1188,7.1289,7.1289,7.1289,7.1289,7.1289,7.1289,7.1289,7.1289,7.1289,7.1289,7.1289,7.1289,7.1289,7.1289,7.1289,7.1289,7.1289,7.1289,7.1289,7.1289,7.1289,7.1289,7.1289,7.1289,7.1289,7.1289,7.1289,7.1289,7.1289,7.1289,7.1289,7.112,7.0722,7.0699,7.0156,6.8822,6.7946,6.7086,6.6178,6.5965,6.5592,6.4915,6.4888,6.4888,6.4888,6.4888,6.4888,6.4888,6.4888,6.4888,6.4888,6.4888,6.4888,4.8665,5.0051,5.1472,5.2706,5.3281,5.4025,5.5953,5.6596,5.6934,5.7408,5.8084,5.8829,5.9607,6.0994,6.1873,0.0,6.1907,6.24,6.24,6.24,6.24,6.24,6.24,6.24,6.24,6.24,6.2502,6.2719,6.2461,6.2603,6.3342,6.3087,6.3241,6.3976,6.3655,6.3884,6.482,6.4951,6.5368,6.6034,6.6576,6.6791,6.6791,6.6791,6.6791,6.6791,6.6791,6.6791,6.6791,6.6791,6.6948,6.7218,6.7996,6.9079,7.0251,7.0466,7.0872,7.1289,7.1289,7.1289,7.1289,7.1289,7.1289,7.1289,7.1289,7.1289,7.1289,7.1289,7.1289,7.1289,7.1289,7.1289,7.1289,7.1289,7.1289,7.1289,7.1289,7.1289,7.1289,7.1289,7.1289,7.1289,7.1289,7.1289,7.1289,7.1289,7.1289,7.1289,7.1289,7.1289,7.1176,7.0814,7.018,6.934,6.8204,6.7497,6.6622,6.5487,6.5781,6.5673,6.4915,6.4888,6.4888,6.4888,6.4888,6.4888,6.4888,6.4888,6.4888,6.4888,6.4888,6.4888,5.0795,5.1201,5.1776,5.4025,5.4059,5.4296,5.7223,5.734,5.7239,5.8709,5.9607,6.0351,6.1163,6.1298,6.1298,6.1298,6.1907,6.24,6.24,6.24,6.24,6.24,6.24,6.24,6.2415,6.2415,6.2719,6.3443,6.2574,6.2314,6.3064,6.2152,6.1957,6.2682,6.3702,6.4575,6.5315,6.6278,6.6791,6.6791,6.6791,6.6791,6.6791,6.6791,6.6791,6.6791,6.6791,6.6791,6.6791,6.6791,6.7252,6.7996,6.8808,6.9553,7.0319,7.1041,7.1289,7.1289,7.1289,7.1289,7.1289,7.1289,7.1289,7.1289,7.1289,7.1289,7.1289,7.1289,7.1289,7.1289,7.1289,7.1289,7.1289,7.1289,7.1289,7.1289,7.1289,7.1289,7.1289,7.1289,7.1289,7.1289,7.1289,7.1289,7.1289,7.1289,7.1289,7.1289,7.1267,7.1267,7.087,6.9817,6.7802,6.693,6.8004,6.6152,6.5378,6.6412,6.5515,6.4888,6.4888,6.4888,6.4888,6.4888,6.4888,6.4888,6.4888,6.4888,6.4888,6.4888,6.4888,6.4888,5.0033,5.1589,5.296,5.3653,5.5209,5.6799,5.7697,5.7712,5.8152,6.0216,6.0791,6.1028,6.1264,6.1704,0.0,6.14,6.1907,6.24,6.24,6.24,6.24,6.24,6.24,6.2584,6.3125,6.3193,6.3202,6.3233,6.2915,6.2782,6.2815,6.2528,6.3036,6.4482,6.4152,6.4704,6.6354,6.5954,6.6105,6.6791,6.6791,6.6791,6.6791,6.6791,6.6791,6.6791,6.6791,6.6791,6.6825,6.7354,6.803,6.8808,6.9586,7.0331,7.1007,7.1222,7.1289,7.1289,7.1289,7.1289,7.1289,7.1289,7.1289,7.1289,7.1289,7.1289,7.1289,7.1289,7.1289,7.1289,7.1289,7.1289,7.1289,7.1289,7.1289,7.1289,7.1289,7.1289,7.1289,7.1289,7.1289,7.1289,7.1289,7.1289,7.1289,7.1289,7.0654,6.9888,6.9138,6.9041,6.8944,6.8593,6.7996,6.7446,6.7008,6.6385,6.583,6.5406,6.5081,6.4888,6.4888,6.4888,6.4888,6.4888,6.4888,6.4888,6.4888,6.4888,6.4888,6.4888,6.4888,6.4888,5.1386,5.2875,5.4228,5.5395,5.6799,5.8137,5.9032,5.9235,5.9708,6.14,6.1738,6.1738,6.1738,6.211,0.0,6.1806,6.211,6.24,6.24,6.24,6.24,6.24,6.2651,6.3024,6.3443,6.339,6.3392,6.3537,6.279,6.2381,6.2539,6.2547,6.3024,6.4077,6.4286,6.5002,6.6192,6.6019,6.6192,6.6791,6.6791,6.6791,6.6791,6.6791,6.6791,6.6791,6.6791,6.6791,6.6859,6.759,6.8368,6.918,6.9891,7.0635,7.1289,7.1289,7.1289,7.1289,7.1289,7.1289,7.1289,7.1289,7.1289,7.1289,7.1289,7.1289,7.1289,7.1289,7.1289,7.1289,7.1289,7.1289,7.1289,7.1289,7.1289,7.1289,7.1289,7.1289,7.1289,7.1289,7.1289,7.1289,7.1289,7.1289,7.1176,7.0722,6.977,6.8814,6.8172,6.7751,6.7471,6.7471,6.7086,6.657,6.5911,6.5857,6.5592,6.4943,6.4888,6.4888,6.4888,6.4888,6.4888,6.4888,6.4888,6.4888,6.4888,6.4888,6.4888,6.4888,6.4888,6.4888,5.3822,5.4532,5.5378,5.822,5.8558,5.8761,6.0926,6.14,6.1603,6.2265,6.24,6.24,6.24,6.24,6.24,6.24,6.24,6.24,6.24,6.2448,6.2502,6.2502,6.3079,6.3492,6.3559,6.3257,6.3342,6.398,6.2344,6.1575,6.2263,6.2295,6.2344,6.2411,6.4286,6.5293,6.5293,6.6311,6.6791,6.6791,6.6791,6.6791,6.6791,6.6791,6.6791,6.6791,6.6859,6.6893,6.696,6.7793,6.8538,6.9282,6.9992,7.0703,7.1289,7.1289,7.1289,7.1289,7.1289,7.1289,7.1289,7.1289,7.1289,7.1289,7.1289,7.1289,7.1289,7.1289,7.1289,7.1289,7.1289,7.1289,7.1289,7.1289,7.1289,7.1289,7.1289,7.1289,7.1289,7.1289,7.1289,7.1289,7.1289,7.1222,7.0791,6.9723,6.8618,6.7946,6.7946,6.7008,6.6332,6.6332,6.5456,6.4888,6.4888,6.4888,6.4888,6.4888,6.4888,6.4888,6.4888,6.4888,6.4888,6.4888,6.4888,6.4888,6.4888,6.4888,6.4888,6.4888,6.4949,6.498,5.2503,5.4093,5.5868,5.7679,5.937,6.0858,6.1907,6.2144,6.2212,6.2367,6.24,6.24,6.24,6.24,6.24,6.24,6.24,6.24,6.24,6.2888,6.324,6.324,6.3237,6.3397,6.3995,6.3274,6.2779,6.2708,6.2287,6.2137,6.2295,6.2295,6.2656,6.3466,6.4652,6.5293,6.5293,6.6311,6.6791,6.6791,6.6791,6.6791,6.6791,6.6791,6.6791,6.6825,6.7421,6.7658,6.776,6.9147,6.9789,7.0026,7.077,7.1176,7.1289,7.1289,7.1289,7.1289,7.1289,7.1289,7.1289,7.1289,7.1289,7.1289,7.1289,7.1289,7.1289,7.1289,7.1289,7.1289,7.1289,7.1289,7.1289,7.1289,7.1289,7.1289,7.1289,7.1289,7.1289,7.1289,7.1289,7.1289,7.1289,7.0608,6.9699,6.8593,6.7548,6.6826,6.6826,6.5884,6.5242,6.5242,6.5053,6.4888,6.4888,6.4888,6.4888,6.4888,6.4888,6.4888,6.4888,6.4888,6.4888,6.4888,6.4888,6.4888,6.4888,6.4888,6.4888,6.4918,6.5442,6.5688,5.301,5.4532,5.6206,5.8423,6.0385,6.1907,6.2333,6.24,6.24,6.24,6.24,6.24,6.24,6.24,6.24,6.24,6.2685,6.2922,6.2922,6.3565,6.3843,6.3358,6.3496,6.3584,6.348,6.2889,6.2468,6.2313,6.1853,6.1576,6.1576,6.2485,6.3252,6.3797,6.5248,6.6019,6.6019,6.6525,6.6791,6.6791,6.7163,6.7523,6.7895,6.7523,6.7557,6.7929,6.8301,6.847,6.8571,6.9722,7.0217,7.0263,7.1007,7.1289,7.1289,7.1289,7.1289,7.1289,7.1289,7.1289,7.1289,7.1289,7.1289,7.1289,7.1289,7.1289,7.1289,7.1289,7.1289,7.1289,7.1289,7.1289,7.1289,7.1289,7.1289,7.1289,7.1289,7.1289,7.1289,7.1289,7.1289,7.1289,7.1289,7.0412,6.9331,6.8246,6.7189,6.6306,6.5808,6.5242,6.4888,6.4888,6.4888,6.4888,6.4888,6.4888,6.4888,6.4888,6.4888,6.5042,6.538,6.538,6.5226,6.4918,6.5226,6.538,6.538,6.5719,6.5873,6.5873,6.6211,6.6396,5.3856,5.531,5.6883,5.9471,6.1264,6.24,6.24,6.24,6.24,6.24,6.24,6.24,6.24,6.24,6.2415,6.255,6.3125,6.3545,6.3646,6.4167,6.4233,6.3403,6.3639,6.3551,6.269,6.2435,6.2221,6.2047,6.1424,6.1047,6.1047,6.2794,6.382,6.382,6.5746,6.6728,6.6525,6.6728,6.6859,6.6994,6.776,6.8504,6.9282,6.8605,6.8605,6.9113,6.9214,6.9282,6.935,7.0094,7.0398,7.0432,7.1075,7.1289,7.1289,7.1289,7.1289,7.1289,7.1289,7.1289,7.1289,7.1289,7.1289,7.1289,7.1289,7.1289,7.1289,7.1289,7.1289,7.1289,7.1289,7.1289,7.1289,7.1289,7.1289,7.1289,7.1289,7.1289,7.1289,7.1289,7.1289,7.1244,7.1052,7.0123,6.9138,6.8221,6.7008,6.5965,6.5269,6.5026,6.4888,6.4888,6.4888,6.4888,6.4888,6.5011,6.5072,6.5072,6.5165,6.5503,6.6057,6.6088,6.5811,6.5257,6.578,6.6088,6.6088,6.6642,6.6891,6.6891,6.7042,6.7075,5.3382,5.6055,5.881,5.9844,6.1264,6.24,6.24,6.24,6.24,6.24,6.24,6.24,6.24,6.24,6.2618,6.326,6.3443,6.3714,6.4377,6.4333,6.4209,6.4079,6.3176,6.2504,6.2358,6.2306,6.1953,6.1078,6.1677,6.2096,6.2096,6.318,6.382,6.382,6.5746,6.6397,6.5526,6.6375,6.7117,6.776,6.8571,6.9316,7.0026,6.9947,6.9586,6.9147,6.9755,7.0026,7.0094,7.0872,7.1154,7.1176,7.1255,7.1289,7.1289,7.1289,7.1289,7.1289,7.1289,7.1289,7.1289,7.1289,7.1289,7.1289,7.1289,7.1289,7.1289,7.1289,7.1289,7.1289,7.1289,7.1289,7.1289,7.1289,7.1289,7.1289,7.1289,7.1289,7.1289,7.1289,7.1289,7.1007,7.0076,6.9041,6.8246,6.8097,6.6385,6.5406,6.6205,6.5456,6.4888,6.4888,6.4888,6.4888,6.4888,6.5442,6.578,6.578,6.6334,6.6645,6.6737,6.6796,6.6706,6.6614,6.6706,6.6796,6.6796,6.686,6.6891,6.6891,6.7506,6.7752,5.4177,5.6815,5.9182,5.9911,6.1264,6.24,6.24,6.24,6.24,6.24,6.24,6.24,6.24,6.24,6.2618,6.3376,6.3849,6.4193,6.4346,6.4639,6.4406,6.325,6.3163,6.2923,6.2369,6.2802,6.2729,6.1728,6.2047,6.2295,6.2295,6.3252,6.4077,6.4607,6.604,6.6791,6.6774,6.7196,6.7996,6.918,6.9553,7.0094,7.0804,7.0804,7.0635,7.0364,7.0669,7.0804,7.0838,7.1176,7.1289,7.1289,7.1289,7.1289,7.1289,7.1289,7.1289,7.1289,7.1289,7.1289,7.1289,7.1289,7.1289,7.1289,7.1289,7.1289,7.1289,7.1289,7.1289,7.1289,7.1289,7.1289,7.1289,7.1289,7.1289,7.1289,7.1289,7.1289,7.1289,7.1289,7.1289,7.1154,7.0676,7.0203,6.9699,6.909,6.7701,6.6649,6.6517,6.5565,6.5042,6.5411,6.5472,6.5626,6.5996,6.6304,6.6457,6.6457,6.6765,6.7073,6.7445,6.7445,6.7658,6.8027,6.7658,6.7445,6.7445,6.7843,6.8027,6.8027,6.8335,6.8458,5.4684,5.6883,5.8641,5.9607,6.0994,6.2164,6.2367,6.24,6.24,0.0,6.24,6.24,6.24,6.24,6.2685,6.3612,6.4241,6.4638,6.4834,6.5094,6.472,6.326,6.349,6.3395,6.2418,6.3204,6.3276,6.1997,6.2146,6.2295,6.2295,6.3252,6.4262,6.5271,6.629,6.7151,6.7895,6.8301,6.9045,7.0217,7.0398,7.077,7.1289,7.1289,7.1289,7.1289,7.1289,7.1289,7.1289,7.1289,7.1289,7.1289,7.1289,7.1289,7.1289,7.1289,7.1289,7.1289,7.1289,7.1289,7.1289,7.1289,7.1289,7.1289,7.1289,7.1289,7.1289,7.1289,7.1289,7.1289,7.1289,7.1289,7.1289,7.1289,7.1289,7.1289,7.1289,7.1289,7.1289,7.1289,7.1289,7.1289,7.1289,7.1052,7.0538,6.9451,6.8533,6.7548,6.6483,6.5809,6.5596,6.6119,6.615,6.6365,6.686,6.7073,6.7137,6.7137,6.7291,6.7627,6.8121,6.8152,6.8397,6.8919,6.8427,6.8152,6.8181,6.8643,6.8919,6.8919,6.8919,6.8919,5.4228,5.575,5.7273,5.8709,6.0197,6.1535,6.2265,6.24,6.24,6.24,6.24,6.24,6.24,6.24,6.2854,6.4309,6.458,6.5067,6.6458,6.5877,6.5248,6.5159,6.4355,6.3395,6.2418,6.3204,6.2988,6.1021,6.1778,6.2295,6.2295,6.3252,6.4262,6.5271,6.629,6.7151,6.7895,6.935,7.0094,7.0217,7.0906,7.1255,7.1289,7.1289,7.1289,7.1289,7.1289,7.1289,7.1289,7.1289,7.1289,7.1289,7.1289,7.1289,7.1289,7.1289,7.1289,7.1289,7.1289,7.1289,7.1289,7.1289,7.1289,7.1289,7.1289,7.1289,7.1289,7.1289,7.1289,7.1289,7.1289,7.1289,7.1289,7.1289,7.1289,7.1289,7.1289,7.1289,7.1289,7.1289,7.1289,7.1289,7.1289,7.0459,6.9427,6.8321,6.7816,6.7153,6.6066,6.6455,6.6798,6.6829,6.6829,6.686,6.6891,6.7475,6.7844,6.7844,6.8458,6.8826,6.8857,6.8857,6.8858,6.8919,6.8858,6.8857,6.8857,6.8858,6.8919,6.8919,6.8919,6.8919,5.4329,5.5683,5.7036,5.8051,5.981,6.1366,6.1637,6.2042,6.24,6.24,6.24,6.24,6.24,6.24,6.2719,6.3714,6.4309,6.4713,6.5096,6.5227,6.5069,6.4424,6.4031,6.3656,6.33,6.3609,6.3514,6.277,6.306,6.3538,6.4193,6.4561,6.5226,6.6213,6.7082,6.8098,6.935,7.0398,7.0906,7.0906,7.1154,7.1289,7.1289,7.1289,7.1289,7.1289,7.1289,7.1289,7.1289,7.1289,7.1289,7.1289,7.1289,7.1289,7.1289,7.1289,7.1289,7.1289,7.1289,7.1289,7.1289,7.1289,7.1289,7.1289,7.1289,7.1289,7.1289,7.1289,7.1289,7.1289,7.1289,7.1289,7.1289,7.1289,7.1289,7.1289,7.1289,7.1289,7.1289,7.1289,7.1289,7.1289,7.1289,7.0767,7.0217,6.9829,6.8827,6.8008,6.7629,6.7187,6.7045,6.7506,6.7537,6.7721,6.815,6.8397,6.8551,6.8551,6.8766,6.8919,6.8919,6.8919,6.8919,6.8919,6.8919,6.8919,6.8919,6.8919,6.8919,6.8919,6.8919,6.8919,5.4025,5.5141,5.6292,5.7273,5.8863,6.0351,6.1129,6.167,6.211,6.2367,6.24,6.24,6.24,6.24,6.2618,6.3376,6.414,6.4645,6.4707,6.506,6.5069,6.4378,6.4007,6.3679,6.3324,6.33,6.33,6.33,6.33,0.0,6.5226,6.5293,6.5867,6.7108,6.7895,6.891,7.0184,7.0939,7.1289,7.1289,7.1289,7.1289,7.1289,7.1289,7.1289,7.1289,7.1289,7.1289,7.1289,7.1289,7.1289,7.1289,7.1289,7.1289,7.1289,7.1289,7.1289,7.1289,7.1289,7.1289,7.1289,7.1289,7.1289,7.1289,7.1289,7.1289,7.1289,7.1289,7.1289,7.1289,7.1289,7.1289,7.1289,7.1289,7.1289,7.1289,7.1289,7.1289,7.1289,7.1289,7.1492,7.1684,7.1684,7.1335,7.0953,7.0577,6.9566,6.8705,6.8318,6.7866,6.775,6.8212,6.8243,6.8427,6.8858,6.8919,6.8919,6.8919,6.8919,6.8919,6.8919,6.8919,6.8919,6.8919,6.8919,6.8919,6.8919,6.8919,6.8919,6.8919,6.8919,6.8919,0.0,0.0,0.0,5.6393,5.7306,5.8475,6.0689,6.1264,6.1501,6.2231,6.24,6.24,6.24,6.24,6.2618,6.3342,6.4106,6.4816,6.5527,6.544,6.5282,6.526,6.4447,6.3443,6.2443,6.2344,6.2369,6.2393,6.2393,6.326,6.5248,6.5337,6.6123,6.7873,6.8707,6.9451,7.0251,7.0939,7.1289,7.1289,7.1289,7.1289,7.1289,7.1289,7.1289,7.1289,7.1289,7.1289,7.1289,7.1289,7.1289,7.1289,7.1289,7.1289,7.1289,7.1289,7.1289,7.1289,7.1289,7.1289,7.1289,7.1289,7.1289,7.1289,7.1289,7.1289,7.1289,7.1289,7.1289,7.1289,7.1289,7.1289,7.1289,7.1289,7.1289,7.1289,7.1323,7.1323,7.1323,7.1323,7.1921,7.2428,7.2428,7.208,7.1408,7.0389,6.9824,6.9095,6.8051,6.8489,6.8919,6.8919,6.8919,6.8919,6.8919,6.8919,6.8919,6.8919,6.8919,6.8919,6.8919,6.8919,6.8919,6.8919,6.8919,6.8919,6.8919,6.8919,6.8919,6.8919,6.8919,6.8919,5.345,0.0,0.0,0.0,0.0,0.0,0.0,0.0,6.1366,6.1569,6.2009,6.24,6.24,6.24,6.2468,6.2651,6.3328,6.3903,6.4086,6.4982,6.5322,6.4597,6.4717,6.4492,6.349,6.3395,6.3679,0.0,6.447,6.5024,6.6333,6.6397,6.7131,6.8741,6.8977,6.9722,7.0973,7.1188,7.1289,7.1289,7.1289,7.1289,7.1289,7.1289,7.1289,7.1289,7.1289,7.1289,7.1289,7.1289,7.1289,7.1289,7.1289,7.1289,7.1289,7.1289,7.1289,7.1289,7.1289,7.1289,7.1289,7.1289,7.1289,7.1289,7.1289,7.1289,7.1289,7.1289,7.1289,7.1289,7.1289,7.1289,7.1289,7.1289,7.1289,7.1424,7.1988,7.209,7.209,7.209,7.2699,7.3195,7.3195,7.2199,7.1266,7.098,6.9872,6.896,6.8671,6.8766,6.8919,6.8919,6.8919,6.8919,6.8919,6.8919,6.8919,6.8919,6.8919,6.8919,6.8919,6.8919,6.8919,6.8919,6.8919,6.8919,6.8919,6.8919,6.8919,6.8919,6.8919,6.8919,5.3518,5.3822,5.4194,5.4499,0.0,0.0,5.8084,5.9404,6.0622,0.0,6.211,6.24,6.24,6.24,6.24,6.24,6.2753,6.3159,6.3443,6.4151,6.4504,6.4222,6.422,6.4097,6.3835,6.382,6.4216,6.5226,6.5293,6.5746,6.6749,6.6791,6.7523,6.9045,6.9113,6.9823,7.1289,7.1289,7.1289,7.1289,7.1289,7.1289,7.1289,7.1289,7.1289,7.1289,7.1289,7.1289,7.1289,7.1289,7.1289,7.1289,7.1289,7.1289,7.1289,7.1289,7.1289,7.1289,7.1289,7.1289,7.1289,7.1289,7.1289,7.1289,7.1289,7.1289,7.1289,7.1289,7.1289,7.1289,7.1289,7.1289,7.1289,7.1289,7.1526,7.1887,7.2326,7.2902,7.324,7.2902,7.3443,7.395,7.395,7.3086,7.2222,7.1751,7.0513,6.9439,6.8977,6.8919,6.8919,6.8919,6.8919,6.8919,6.8919,6.8919,6.8919,6.8919,6.8919,6.8919,6.8919,6.8919,6.8919,6.8919,6.8919,6.8919,6.8919,6.8919,6.8919,6.8919,6.8919,6.8919,5.3518,5.3518,5.3653,5.4296,0.0,0.0,5.7897,5.8641,5.9351,0.0,6.196,6.2023,6.2012,6.1992,6.1992,6.1992,6.2094,6.2417,6.3274,6.3241,6.3358,6.3913,6.3326,0.0,6.3789,6.3947,6.4394,6.5382,6.5481,6.5855,6.6749,6.6791,6.7523,6.9045,6.9113,6.9823,7.1289,7.1289,7.1289,7.1289,7.1289,7.1289,7.1289,7.1289,7.1289,7.1289,7.1289,7.1289,7.1289,7.1289,7.1289,7.1289,7.1289,7.1289,7.1289,7.1289,7.1289,7.1289,7.1289,7.1289,7.1289,7.1289,7.1289,7.1289,7.1289,7.1289,7.1289,7.1289,7.1289,7.1289,7.1289,7.1289,7.1323,7.1391,7.1921,7.2428,7.2597,7.368,7.4424,7.3849,7.4255,7.4705,7.4705,7.4311,7.3599,7.2473,7.1315,7.018,6.9034,6.8919,6.8919,6.8919,6.8919,6.8919,6.8919,6.8919,6.8919,6.8919,6.8919,6.8919,6.8919,6.8919,6.8919,6.8919,6.8919,6.8919,6.8919,6.8919,6.8919,6.8919,6.8919,6.8919,5.3653,5.3518,5.3551,0.0,0.0,0.0,5.531,5.6393,5.7509,0.0,5.9235,5.9635,5.9531,5.9512,5.9512,5.9512,6.0064,6.0993,6.2403,6.3067,6.3185,6.2498,0.0,0.0,6.4123,6.4824,6.566,6.647,6.6503,6.6588,6.6791,6.6791,6.7523,6.9045,6.9113,6.9823,7.1289,7.1289,7.1289,7.1289,7.1289,7.1289,7.1289,7.1289,7.1289,7.1289,7.1289,7.1289,7.1289,7.1289,7.1289,7.1289,7.1289,7.1289,7.1289,7.1289,7.1289,7.1289,7.1289,7.1289,7.1289,7.1289,7.1289,7.1289,7.1289,7.1289,7.1289,7.1289,7.1289,7.1289,7.1289,7.1289,7.1424,7.2056,7.2293,7.2732,7.3916,7.4424,7.4728,7.5168,7.5371,7.5473,7.5473,7.4669,7.3599,7.2473,7.1315,7.018,6.9034,6.8919,6.8919,6.8919,6.8919,6.8919,6.8919,6.8919,6.8919,6.8919,6.8919,6.8919,6.8919,6.8919,6.8919,6.8919,6.8919,6.8919,6.8919,6.8919,6.8919,6.8919,6.8919,6.8919,0.0,0.0,0.0,5.3518,0.0,0.0,0.0,0.0,5.6562,5.7679,5.7857,5.795,5.8203,5.7904,5.7915,5.8661,5.949,6.0291,6.1115,0.0,0.0,0.0,0.0,0.0,6.4375,6.519,6.6,6.6724,6.6791,6.6791,6.6791,6.6791,6.732,6.847,6.8876,6.962,7.0737,7.1142,7.1289,7.1289,7.1289,7.1289,7.1289,7.1289,7.1289,7.1289,7.1289,7.1289,7.1289,7.1289,7.1289,7.1289,7.1289,7.1289,7.1289,7.1289,7.1289,7.1289,7.1289,7.1289,7.1289,7.1289,7.1289,7.1289,7.1289,7.1289,7.1289,7.1289,7.1289,7.1289,7.1289,7.156,7.1954,7.2326,7.2969,7.3713,7.4434,7.4897,7.527,7.5642,7.5709,7.5709,7.5709,7.477,7.3599,7.2473,7.1315,7.018,6.9034,6.8919,6.8919,6.8919,6.8919,6.8919,6.8919,6.8919,6.8919,6.8919,6.8919,6.8919,6.8919,6.8919,6.8919,6.8919,6.8919,6.8919,6.8919,6.8919,6.8919,6.8919,6.8919,6.8919,0.0,0.0,0.0,0.0,0.0,5.3822,0.0,0.0,0.0,0.0,0.0,0.0,0.0,0.0,0.0,0.0,0.0,0.0,0.0,0.0,0.0,0.0,0.0,0.0,6.4106,6.4952,6.5797,6.6542,6.6588,6.6643,6.6791,6.6791,6.7151,6.7895,6.8673,6.9451,7.0195,7.0939,7.1289,7.1289,7.1289,7.1289,7.1289,7.1289,7.1289,7.1289,7.1289,7.1289,7.1289,7.1289,7.1289,7.1289,7.1289,7.1289,7.1289,7.1289,7.1289,7.1289,7.1289,7.1289,7.1289,7.1289,7.1289,7.1289,7.1289,7.1289,7.1289,7.1289,7.1289,7.1323,7.1458,7.1954,7.2462,7.2766,7.3747,7.4661,7.4796,7.527,7.5709,7.5709,7.5709,7.5709,7.5709,7.477,7.3599,7.2473,7.1315,7.018,6.9034,6.8919,6.8919,6.8919,6.8919,6.8919,6.8919,6.8919,6.8919,6.8919,6.8919,6.8919,6.8919,6.8919,6.8919,6.8919,6.8919,6.8919,6.8919,6.8919,6.8919,6.8919,6.8919,6.8919,0.0,0.0,0.0,0.0,5.3518,0.0,0.0,0.0,0.0,0.0,0.0,0.0,0.0,0.0,0.0,0.0,0.0,0.0,0.0,0.0,0.0,0.0,0.0,0.0,0.0,6.3903,6.5019,6.5764,6.5797,6.6102,6.6757,6.6791,6.7151,6.7895,6.8673,6.9451,7.0195,7.0939,7.1289,7.1289,7.1289,7.1289,7.1289,7.1289,7.1289,7.1289,7.1289,7.1289,7.1289,7.1289,7.1289,7.1289,7.1289,7.1289,7.1289,7.1289,7.1289,7.1289,7.1289,7.1289,7.1289,7.1289,7.1289,7.1289,7.1289,7.1289,7.1289,7.1289,7.1289,7.1424,7.2124,7.2326,7.2732,7.4052,7.4468,7.4796,7.5439,7.5642,7.5709,7.5709,7.5709,7.5709,7.5709,7.477,7.3599,7.2473,7.1315,7.018,6.9034,6.8919,6.8919,6.8919,6.8919,6.8919,6.8919,6.8919,6.8919,6.8919,6.8919,6.8919,6.8919,6.8919,6.8919,6.8919,6.8919,6.8919,6.8919,6.8919,6.8919,6.8919,6.8919,6.8919,0.0,0.0,0.0,0.0,0.0,0.0,5.3721,0.0,5.3585,0.0,0.0,0.0,0.0,0.0,0.0,0.0,0.0,0.0,0.0,0.0,0.0,0.0,0.0,0.0,0.0,0.0,0.0,0.0,6.5717,6.6,6.6757,6.6791,6.6927,6.7252,6.7996,6.8774,6.9553,7.0297,7.0872,7.1289,7.1289,7.1289,7.1289,7.1289,7.1289,7.1289,7.1289,7.1289,7.1289,7.1289,7.1289,7.1289,7.1289,7.1289,7.1289,7.1289,7.1289,7.1289,7.1289,7.1289,7.1289,7.1289,7.1289,7.1289,7.1289,7.1289,7.1289,7.1289,7.1616,7.2022,7.2326,7.3037,7.3849,7.4458,7.4931,7.5337,7.5642,7.5709,7.5709,7.5709,7.5194,7.472,7.472,7.3777,7.2632,7.1479,7.0318,6.9439,6.8977,6.8919,6.8919,6.8919,6.8919,6.8919,6.8919,6.8919,6.8919,6.8919,6.8919,6.8919,6.8919,6.8919,6.8919,6.8919,6.8919,6.8919,6.8919,6.8919,6.8919,6.8919,6.8919,6.9105,5.5784,0.0,0.0,0.0,0.0,0.0,0.0,0.0,0.0,0.0,0.0,0.0,0.0,0.0,0.0,0.0,0.0,0.0,0.0,0.0,0.0,0.0,0.0,0.0,0.0,0.0,0.0,0.0,0.0,6.573,6.6474,6.669,6.6791,6.6791,6.7523,6.8301,6.9079,6.9823,7.0567,7.1289,7.1289,7.1289,7.1289,7.1289,7.1289,7.1289,7.1289,7.1289,7.1289,7.1289,7.1289,7.1289,7.1289,7.1289,7.1289,7.1289,7.1289,7.1289,7.1289,7.1289,7.1289,7.1289,7.1289,7.1289,7.1289,7.1289,7.1323,7.1526,7.1988,7.2496,7.2902,7.3815,7.4637,7.4864,7.5303,7.5709,7.5709,7.5709,7.5709,7.5709,7.4794,7.3912,7.3599,7.2579,7.1533,7.0711,6.9641,6.8919,6.8919,6.8919,6.8919,6.8919,6.8919,6.8919,6.8919,6.8919,6.8919,6.8919,6.8919,6.8919,6.8919,6.8919,6.8919,6.8919,6.8919,6.8919,6.8919,6.8919,6.8982,6.9166,6.9166,6.9413,0.0,0.0,0.0,5.4938,0.0,0.0,0.0,0.0,5.3518,0.0,0.0,0.0,0.0,0.0,0.0,5.0361,0.0,0.0,0.0,0.0,0.0,0.0,0.0,0.0,0.0,0.0,0.0,0.0,0.0,0.0,6.5717,6.6406,6.6791,6.6791,6.7523,6.8301,6.9079,6.9823,7.0567,7.1289,7.1289,7.1289,7.1289,7.1289,7.1289,7.1289,7.1289,7.1289,7.1289,7.1289,7.1289,7.1289,7.1289,7.1289,7.1289,7.1289,7.1289,7.1289,7.1289,7.1289,7.1289,7.1289,7.1289,7.1289,7.1289,7.1289,7.1424,7.2157,7.2394,7.2732,7.4153,7.4536,7.4796,7.5506,7.5676,7.5709,7.5709,7.5709,7.5709,7.5709,7.4794,7.365,7.2552,7.1397,7.0627,7.0599,6.9641,6.8919,6.8919,6.8919,6.8919,6.8919,6.8919,6.8919,6.8919,6.8919,6.8919,6.8919,6.8919,6.8919,6.8919,6.8919,6.8919,6.8919,6.8919,6.8919,6.8919,6.8919,6.9228,6.9874,6.9874,6.9874,0.0,0.0,5.9167,5.6664,0.0,0.0,0.0,0.0,0.0,0.0,0.0,0.0,0.0,0.0,5.2864,5.2387,0.0,0.0,0.0,0.0,0.0,0.0,0.0,0.0,0.0,0.0,0.0,0.0,0.0,0.0,0.0,6.6406,6.6791,6.6791,6.7028,6.7557,6.8301,6.9079,6.9823,7.0567,7.1075,7.1289,7.1289,7.1289,7.1289,7.1289,7.1289,7.1289,7.1289,7.1289,7.1289,7.1289,7.1289,7.1289,7.1289,7.1289,7.1289,7.1289,7.1289,7.1289,7.1289,7.1289,7.1289,7.1289,7.1289,7.1627,7.209,7.2326,7.3105,7.3984,7.4492,7.4965,7.5405,7.5642,7.5709,7.5709,7.5709,7.5709,7.5709,7.5709,7.4156,7.2737,7.2367,7.0739,6.9468,6.9468,6.9151,6.8919,6.8919,6.8919,6.8919,6.8919,6.8919,6.8919,6.8919,6.8919,6.8919,6.8919,6.8919,6.8919,6.8919,6.8919,6.8919,6.8919,6.8919,6.8919,6.8919,6.9351,6.9659,6.9905,7.0889,7.129,5.9404,6.0114,0.0,5.8152,5.8321,0.0,5.5953,0.0,0.0,0.0,0.0,0.0,0.0,0.0,0.0,5.4194,0.0,0.0,0.0,0.0,0.0,0.0,0.0,0.0,0.0,0.0,0.0,0.0,0.0,0.0,0.0,0.0,6.6542,6.6791,6.6791,6.7151,6.7895,6.8707,6.9451,7.0217,7.0973,7.1289,7.1289,7.1289,7.1289,7.1289,7.1289,7.1289,7.1289,7.1289,7.1289,7.1289,7.1289,7.1289,7.1289,7.1289,7.1289,7.1289,7.1289,7.1289,7.1289,7.1289,7.1289,7.1357,7.1616,7.2022,7.2462,7.2699,7.368,7.4603,7.4603,7.5168,7.5709,7.5709,7.5709,7.5709,7.5709,7.5709,7.558,7.5161,7.3599,7.2181,7.1751,7.0152,6.8919,6.8919,6.8919,6.8919,6.8919,6.8919,6.8919,6.8919,6.8919,6.8919,6.8919,6.8919,6.8919,6.8919,6.8919,6.8919,6.8919,6.8919,6.8766,6.8551,6.8766,6.8919,6.8919,6.9566,7.0151,7.0644,7.1598,7.2121]}]]